[[{"header":{"parameterUnit":"m.s-1","parameterCategory":1,"la1":30.6,"la2":29.2853,"lo1":-89.7004,"lo2":-87.6739,"dy":0.0162,"dx":0.0183,"nx":112,"ny":82,"refTime":"2023-04-23T06:00:00:Z","depth":0,"parameterNumber":2,"parameterNumberName":"U-component_of_WINDS"},"data":[0.0,0.0,0.0,0.0,0.0,0.0,0.0,0.0,0.0,0.0,0.0,0.0,0.0,0.0,0.0,0.0,0.0,0.0,0.0,0.0,0.0,0.0,0.0,0.0,0.0,0.0,0.0,0.0,0.0,0.0,0.0,0.0,0.0,0.0,0.0,0.0,0.0,0.0,0.0,0.0,0.0,0.0,0.0,0.0,0.0,0.0,0.0,0.0,0.0,0.0,0.0,0.0,0.0,0.0,0.0,0.0,0.0,0.0,0.0,0.0,0.0,0.0,0.0,0.0,0.0,0.0,0.0,0.0,0.0,0.0,0.0,0.0,0.0,0.0,0.0,0.0,0.0,0.0,0.0,0.0,0.0,0.0,0.0,0.0,0.0,0.0,0.0,0.0,0.0,0.0,0.0,3.0642,3.2253,3.3039,3.2492,3.4103,3.3776,3.0654,0.0,0.0,0.0,0.0,0.0,0.0,0.0,0.0,0.0,0.0,0.0,0.0,0.0,0.0,0.0,0.0,0.0,0.0,0.0,0.0,0.0,0.0,0.0,0.0,0.0,0.0,0.0,0.0,0.0,0.0,0.0,0.0,0.0,0.0,0.0,0.0,0.0,0.0,0.0,0.0,0.0,0.0,0.0,0.0,0.0,0.0,0.0,0.0,0.0,0.0,0.0,0.0,0.0,0.0,0.0,0.0,0.0,0.0,0.0,0.0,0.0,0.0,0.0,0.0,0.0,0.0,0.0,0.0,0.0,0.0,0.0,0.0,0.0,0.0,0.0,0.0,0.0,0.0,0.0,0.0,0.0,0.0,0.0,0.0,0.0,0.0,0.0,0.0,0.0,0.0,0.0,0.0,0.0,0.0,0.0,0.0,0.0,0.0,0.0,0.0,0.0,0.0,0.0,0.0,3.0148,3.1255,3.1622,3.1796,3.1697,3.2532,3.2104,2.9909,0.0,0.0,0.0,0.0,0.0,0.0,0.0,0.0,0.0,0.0,0.0,0.0,0.0,0.0,0.0,0.0,0.0,0.0,0.0,0.0,0.0,0.0,0.0,0.0,0.0,0.0,0.0,0.0,0.0,0.0,0.0,0.0,0.0,0.0,0.0,0.0,0.0,0.0,0.0,0.0,0.0,0.0,0.0,0.0,0.0,0.0,0.0,0.0,0.0,0.0,0.0,0.0,0.0,0.0,0.0,0.0,0.0,0.0,0.0,0.0,0.0,0.0,0.0,0.0,0.0,0.0,0.0,0.0,0.0,0.0,0.0,0.0,0.0,0.0,0.0,0.0,0.0,0.0,0.0,0.0,0.0,0.0,0.0,0.0,0.0,0.0,0.0,0.0,0.0,0.0,0.0,0.0,0.0,0.0,0.0,0.0,0.0,0.0,0.0,0.0,0.0,0.0,0.0,3.0013,3.1001,3.1958,3.2685,3.2955,3.2602,3.3991,3.3439,3.0288,3.1413,0.0,0.0,0.0,0.0,0.0,0.0,0.0,0.0,0.0,0.0,0.0,0.0,0.0,0.0,0.0,0.0,0.0,0.0,0.0,0.0,0.0,0.0,0.0,0.0,0.0,0.0,0.0,0.0,0.0,0.0,0.0,0.0,0.0,0.0,0.0,0.0,0.0,0.0,0.0,0.0,0.0,0.0,0.0,0.0,0.0,0.0,0.0,0.0,0.0,0.0,0.0,0.0,0.0,0.0,0.0,0.0,0.0,0.0,0.0,0.0,0.0,0.0,0.0,0.0,0.0,0.0,0.0,0.0,0.0,0.0,0.0,0.0,0.0,0.0,0.0,0.0,0.0,0.0,0.0,0.0,0.0,0.0,0.0,0.0,0.0,0.0,0.0,0.0,0.0,0.0,0.0,0.0,0.0,0.0,0.0,0.0,0.0,0.0,0.0,0.0,0.0,0.0,3.1091,3.2183,3.2691,3.3665,3.4088,3.3546,3.4967,3.4441,3.0949,3.1821,0.0,0.0,0.0,0.0,0.0,0.0,0.0,0.0,0.0,0.0,0.0,0.0,0.0,0.0,0.0,0.0,0.0,0.0,0.0,0.0,0.0,0.0,0.0,0.0,0.0,0.0,0.0,0.0,0.0,0.0,0.0,0.0,0.0,0.0,0.0,0.0,0.0,0.0,0.0,0.0,0.0,0.0,0.0,0.0,0.0,0.0,0.0,0.0,0.0,0.0,0.0,0.0,0.0,0.0,0.0,0.0,0.0,0.0,0.0,0.0,0.0,0.0,0.0,0.0,0.0,0.0,0.0,0.0,0.0,0.0,0.0,0.0,0.0,0.0,0.0,0.0,0.0,0.0,0.0,0.0,0.0,0.0,0.0,0.0,0.0,0.0,0.0,0.0,0.0,0.0,0.0,0.0,0.0,0.0,0.0,0.0,0.0,0.0,0.0,0.0,0.0,0.0,3.2153,3.338,3.3425,3.3516,3.3546,3.3484,3.3609,3.309,3.1495,3.1612,0.0,0.0,0.0,0.0,0.0,0.0,0.0,0.0,0.0,0.0,0.0,0.0,0.0,0.0,0.0,0.0,0.0,0.0,0.0,0.0,0.0,0.0,0.0,0.0,0.0,0.0,0.0,0.0,0.0,0.0,0.0,0.0,0.0,0.0,0.0,0.0,0.0,0.0,0.0,0.0,0.0,0.0,0.0,0.0,0.0,0.0,0.0,0.0,0.0,0.0,0.0,0.0,0.0,0.0,0.0,0.0,0.0,0.0,0.0,0.0,0.0,0.0,0.0,0.0,0.0,0.0,0.0,0.0,0.0,0.0,0.0,0.0,0.0,0.0,0.0,0.0,0.0,0.0,0.0,0.0,0.0,0.0,0.0,0.0,0.0,0.0,0.0,0.0,0.0,0.0,0.0,0.0,0.0,0.0,0.0,0.0,0.0,0.0,0.0,0.0,0.0,0.0,3.2527,3.3649,0.0,3.4502,3.4756,3.4756,3.5171,3.448,3.2228,0.0,0.0,0.0,0.0,0.0,0.0,0.0,0.0,0.0,0.0,0.0,0.0,0.0,0.0,0.0,0.0,0.0,0.0,0.0,0.0,0.0,0.0,0.0,0.0,0.0,0.0,0.0,0.0,0.0,0.0,0.0,0.0,0.0,0.0,0.0,0.0,0.0,0.0,0.0,0.0,0.0,0.0,0.0,0.0,0.0,0.0,0.0,0.0,0.0,0.0,0.0,0.0,0.0,0.0,0.0,0.0,0.0,0.0,0.0,0.0,0.0,0.0,0.0,0.0,0.0,0.0,0.0,0.0,0.0,0.0,0.0,0.0,0.0,0.0,0.0,0.0,0.0,0.0,0.0,0.0,0.0,0.0,0.0,0.0,0.0,0.0,0.0,0.0,0.0,0.0,0.0,0.0,0.0,0.0,0.0,0.0,0.0,0.0,0.0,0.0,0.0,0.0,3.1779,3.3185,3.4307,0.0,3.522,3.5504,3.5504,3.5746,3.5049,3.2916,0.0,0.0,0.0,0.0,0.0,0.0,0.0,0.0,0.0,0.0,0.0,0.0,0.0,0.0,0.0,0.0,0.0,0.0,0.0,0.0,0.0,0.0,0.0,0.0,0.0,0.0,0.0,0.0,0.0,0.0,0.0,0.0,0.0,0.0,0.0,0.0,0.0,0.0,0.0,0.0,0.0,0.0,0.0,0.0,0.0,0.0,0.0,0.0,0.0,0.0,0.0,0.0,0.0,0.0,0.0,0.0,0.0,0.0,0.0,0.0,0.0,0.0,0.0,0.0,0.0,0.0,0.0,0.0,0.0,0.0,0.0,0.0,0.0,0.0,0.0,0.0,0.0,0.0,0.0,0.0,0.0,0.0,0.0,0.0,0.0,0.0,0.0,0.0,0.0,0.0,0.0,0.0,0.0,0.0,0.0,0.0,0.0,0.0,0.0,0.0,0.0,0.0,3.2527,3.4277,3.5504,3.5504,3.5504,3.5504,3.5504,3.4876,3.4203,0.0,0.0,0.0,0.0,0.0,0.0,0.0,0.0,0.0,0.0,0.0,0.0,0.0,0.0,0.0,0.0,0.0,0.0,0.0,0.0,0.0,0.0,0.0,0.0,0.0,0.0,0.0,0.0,0.0,0.0,0.0,0.0,0.0,0.0,0.0,0.0,0.0,0.0,0.0,0.0,0.0,0.0,0.0,0.0,0.0,0.0,0.0,0.0,0.0,0.0,0.0,0.0,0.0,0.0,0.0,0.0,0.0,0.0,0.0,0.0,0.0,0.0,0.0,0.0,0.0,0.0,0.0,0.0,0.0,0.0,0.0,0.0,0.0,0.0,0.0,0.0,0.0,0.0,0.0,0.0,0.0,0.0,0.0,0.0,0.0,0.0,0.0,0.0,0.0,0.0,0.0,0.0,0.0,0.0,0.0,0.0,0.0,0.0,0.0,0.0,0.0,0.0,0.0,3.32,3.4562,3.5504,3.5504,3.5504,3.5504,3.5504,3.5325,3.4711,3.3559,0.0,0.0,0.0,0.0,0.0,0.0,0.0,0.0,0.0,0.0,0.0,0.0,0.0,0.0,0.0,0.0,0.0,0.0,0.0,0.0,0.0,0.0,0.0,0.0,0.0,0.0,0.0,0.0,0.0,0.0,0.0,0.0,0.0,0.0,0.0,0.0,0.0,0.0,0.0,0.0,0.0,0.0,0.0,0.0,0.0,0.0,0.0,0.0,0.0,0.0,0.0,0.0,0.0,0.0,0.0,0.0,0.0,0.0,0.0,0.0,0.0,0.0,0.0,0.0,0.0,0.0,0.0,0.0,0.0,0.0,0.0,0.0,0.0,0.0,0.0,0.0,0.0,0.0,0.0,0.0,0.0,0.0,0.0,0.0,0.0,0.0,0.0,0.0,0.0,0.0,0.0,0.0,0.0,0.0,0.0,0.0,0.0,0.0,0.0,0.0,0.0,0.0,3.3499,3.4681,3.5504,3.5504,3.5504,3.5504,3.5504,3.5504,3.504,3.3963,0.0,0.0,0.0,0.0,0.0,0.0,0.0,0.0,0.0,0.0,0.0,0.0,0.0,0.0,0.0,0.0,0.0,0.0,0.0,0.0,0.0,0.0,0.0,0.0,0.0,0.0,0.0,0.0,0.0,0.0,0.0,0.0,0.0,0.0,0.0,0.0,0.0,0.0,0.0,0.0,0.0,0.0,0.0,0.0,0.0,0.0,0.0,0.0,0.0,0.0,0.0,0.0,0.0,0.0,0.0,0.0,0.0,0.0,0.0,0.0,0.0,0.0,0.0,0.0,0.0,0.0,0.0,0.0,0.0,0.0,0.0,0.0,0.0,0.0,0.0,0.0,0.0,0.0,0.0,0.0,0.0,0.0,0.0,0.0,0.0,0.0,0.0,0.0,0.0,0.0,0.0,0.0,0.0,0.0,0.0,0.0,0.0,0.0,0.0,0.0,0.0,0.0,3.3499,3.4681,3.5504,3.5504,3.5504,3.5504,3.5504,3.5504,3.5205,3.4517,0.0,0.0,0.0,0.0,0.0,0.0,0.0,0.0,0.0,0.0,0.0,0.0,0.0,0.0,0.0,0.0,0.0,0.0,0.0,0.0,0.0,0.0,0.0,0.0,0.0,0.0,0.0,0.0,0.0,0.0,0.0,0.0,0.0,0.0,0.0,0.0,0.0,0.0,0.0,0.0,0.0,0.0,0.0,0.0,0.0,0.0,0.0,0.0,0.0,0.0,0.0,0.0,0.0,0.0,0.0,0.0,0.0,0.0,0.0,0.0,3.5182,0.0,0.0,0.0,0.0,0.0,0.0,0.0,0.0,0.0,0.0,0.0,0.0,0.0,0.0,0.0,0.0,0.0,0.0,0.0,0.0,0.0,0.0,0.0,0.0,0.0,0.0,0.0,0.0,0.0,0.0,0.0,0.0,0.0,0.0,0.0,0.0,0.0,0.0,0.0,0.0,0.0,3.3499,3.4681,3.5504,3.5504,3.5504,3.5504,3.5504,3.5504,3.5205,3.4517,3.4352,0.0,0.0,0.0,0.0,0.0,0.0,0.0,0.0,0.0,0.0,0.0,0.0,0.0,0.0,0.0,0.0,0.0,0.0,0.0,0.0,0.0,0.0,0.0,0.0,0.0,0.0,0.0,0.0,0.0,0.0,0.0,0.0,0.0,0.0,0.0,0.0,0.0,0.0,0.0,0.0,0.0,0.0,0.0,0.0,0.0,0.0,0.0,0.0,0.0,0.0,0.0,0.0,0.0,0.0,0.0,0.0,0.0,0.0,0.0,0.0,3.525,0.0,0.0,0.0,0.0,0.0,0.0,0.0,0.0,0.0,0.0,0.0,0.0,0.0,0.0,0.0,0.0,0.0,0.0,0.0,0.0,0.0,0.0,0.0,0.0,0.0,0.0,0.0,0.0,0.0,0.0,0.0,0.0,0.0,0.0,0.0,0.0,0.0,0.0,0.0,0.0,3.3918,3.5145,3.5968,3.5968,3.6252,3.6417,3.6417,3.6417,3.6148,3.5474,3.5145,0.0,0.0,0.0,0.0,0.0,0.0,0.0,0.0,0.0,0.0,0.0,0.0,0.0,0.0,0.0,0.0,0.0,0.0,0.0,0.0,0.0,0.0,0.0,0.0,0.0,0.0,0.0,0.0,0.0,0.0,0.0,0.0,0.0,0.0,0.0,0.0,0.0,0.0,0.0,0.0,0.0,0.0,0.0,0.0,0.0,0.0,0.0,0.0,0.0,0.0,0.0,0.0,0.0,0.0,3.6738,3.7364,3.7364,3.7702,3.821,3.6806,3.6569,3.706,0.0,0.0,0.0,0.0,0.0,0.0,0.0,0.0,0.0,0.0,0.0,0.0,0.0,0.0,0.0,0.0,0.0,0.0,0.0,0.0,0.0,0.0,0.0,0.0,0.0,3.4996,3.4831,0.0,0.0,0.0,0.0,0.0,0.0,0.0,0.0,0.0,0.0,0.0,0.0,3.4756,3.5893,3.6656,3.6656,3.7105,3.7404,3.7404,3.7404,3.7195,3.6686,3.6133,3.5579,0.0,0.0,0.0,0.0,0.0,0.0,0.0,0.0,0.0,0.0,0.0,0.0,0.0,0.0,0.0,0.0,0.0,0.0,0.0,0.0,0.0,0.0,0.0,0.0,0.0,0.0,0.0,0.0,0.0,0.0,0.0,0.0,3.325,3.357,0.0,0.0,0.0,0.0,0.0,0.0,0.0,0.0,0.0,0.0,0.0,0.0,0.0,0.0,3.662,3.728,3.7922,3.8548,3.9191,3.9546,3.9648,3.9648,3.9698,3.9749,3.8903,0.0,3.8684,3.8481,0.0,0.0,0.0,0.0,0.0,0.0,0.0,0.0,0.0,0.0,0.0,0.0,0.0,0.0,0.0,0.0,0.0,0.0,0.0,0.0,0.0,0.0,3.6911,3.7,3.703,3.7,0.0,3.51,3.3649,3.4128,0.0,0.0,0.0,0.0,0.0,0.0,0.0,0.0,3.6207,3.6851,3.7285,3.7285,3.736,3.7404,3.7404,3.7404,3.7375,3.73,3.721,3.712,3.703,3.6507,0.0,0.0,0.0,0.0,0.0,0.0,0.0,0.0,0.0,0.0,0.0,0.0,0.0,0.0,0.0,0.0,0.0,0.0,0.0,0.0,0.0,0.0,0.0,0.0,0.0,0.0,0.0,0.0,0.0,3.3512,3.4365,3.5236,3.4782,3.43,0.0,0.0,0.0,0.0,0.0,0.0,0.0,0.0,0.0,3.6857,3.6907,3.7466,3.8616,3.8971,3.9292,3.9597,3.9935,4.007,4.007,4.007,4.007,4.0054,3.9732,3.9597,3.958,3.9157,3.8988,3.8937,0.0,0.0,0.0,0.0,0.0,3.695,3.7317,0.0,0.0,0.0,0.0,0.0,0.0,0.0,0.0,0.0,0.0,0.0,0.0,0.0,0.0,3.733,3.7404,3.7404,3.7404,3.6507,3.5669,0.0,3.5609,3.5489,3.5115,0.0,0.0,0.0,0.0,0.0,3.6956,3.7569,3.7958,3.7958,3.8302,3.8542,3.8542,3.8542,3.8377,3.7988,3.7958,3.7793,3.7419,3.715,3.6701,0.0,0.0,0.0,0.0,0.0,0.0,0.0,0.0,0.0,0.0,0.0,0.0,0.0,0.0,0.0,0.0,0.0,0.0,0.0,0.0,0.0,0.0,0.0,0.0,0.0,0.0,0.0,0.0,3.4639,3.5294,3.6471,3.5808,3.5382,0.0,0.0,0.0,0.0,0.0,0.0,3.618,3.6197,3.6907,3.8413,3.8464,3.8988,4.007,4.007,4.007,4.007,4.007,4.007,4.0087,4.0273,4.0358,4.0375,4.0561,4.0646,4.0578,3.9648,3.9276,3.9276,3.9276,3.8954,3.8497,3.8684,3.8751,3.8719,3.869,3.865,3.8543,3.8099,0.0,3.6779,3.6556,0.0,0.0,0.0,0.0,3.6312,3.6641,3.6971,3.736,3.7808,3.7913,3.7913,3.7913,3.7913,3.7734,0.0,3.6971,3.6821,3.6327,0.0,0.0,0.0,0.0,3.7404,3.7853,3.8347,3.8661,3.8661,3.911,3.9424,3.9424,3.9424,3.92,3.8691,3.8661,3.8437,3.7943,3.7913,3.7629,3.6985,0.0,0.0,0.0,0.0,0.0,0.0,0.0,0.0,0.0,0.0,0.0,0.0,0.0,0.0,0.0,0.0,0.0,0.0,0.0,0.0,0.0,0.0,0.0,0.0,0.0,0.0,0.0,0.0,0.0,3.6301,3.7577,0.0,0.0,0.0,0.0,3.5622,3.5605,3.6248,3.7719,3.7787,3.8464,3.9918,3.9969,4.0003,4.007,4.007,4.007,4.007,4.007,4.007,4.0104,4.0832,4.1136,4.1187,4.188,4.2185,4.2066,4.0629,4.002,4.002,4.002,4.002,4.0087,4.0781,4.1035,4.1015,4.0878,4.0828,4.0573,3.9047,3.8009,3.7263,3.6656,3.6881,0.0,0.0,3.6821,3.8108,3.7524,3.8317,3.9275,3.9305,3.932,3.932,3.932,3.932,3.911,0.0,3.8287,3.8287,3.8242,0.0,3.9005,3.8392,3.8856,3.929,3.932,3.9349,3.9364,3.9364,3.9394,3.9424,3.9424,3.9424,3.9409,3.9364,3.9364,3.9349,3.932,3.932,3.899,3.8302,3.7689,0.0,0.0,0.0,0.0,0.0,0.0,0.0,0.0,0.0,0.0,0.0,0.0,0.0,0.0,0.0,0.0,0.0,0.0,0.0,0.0,0.0,0.0,0.0,0.0,0.0,0.0,0.0,0.0,3.6972,3.7254,0.0,0.0,3.7499,3.7584,3.777,3.8227,3.8734,3.9276,3.9309,3.9546,4.0054,4.007,4.007,4.007,4.0561,4.0798,4.0798,4.1271,4.1508,4.1508,4.1779,4.1914,4.1914,4.2185,4.2286,4.2252,4.1711,4.1508,4.1508,4.1508,4.1508,4.1542,4.1813,4.1914,4.1825,4.1243,4.1025,4.0802,3.9626,3.8994,3.8661,3.8437,3.8527,3.8601,3.8153,3.8527,3.9005,3.8766,3.9065,3.9424,3.9424,3.9424,3.9424,3.9424,3.9424,3.9349,3.9095,3.905,3.905,3.905,3.926,3.9334,3.9095,3.926,3.9424,3.9424,3.9424,3.9424,3.9424,3.9424,3.9424,3.9424,3.9424,3.9424,3.9424,3.9424,3.9424,3.9424,3.9424,3.9305,3.905,3.8826,3.8167,0.0,0.0,0.0,0.0,0.0,0.0,0.0,0.0,0.0,0.0,0.0,0.0,0.0,0.0,0.0,0.0,0.0,0.0,0.0,0.0,0.0,0.0,0.0,0.0,0.0,0.0,3.7014,3.7511,3.7784,3.8091,3.8582,3.8633,3.8836,3.9326,3.98,4.007,4.007,4.007,4.0189,4.0443,4.046,4.0578,4.0815,4.1322,4.1576,4.1576,4.2066,4.2286,4.2303,4.2557,4.2675,4.2692,4.2946,4.3064,4.3064,4.3064,4.3064,4.3047,4.2777,4.2675,4.2692,4.2963,4.3064,4.2939,4.1765,4.0958,4.0356,3.9751,3.9446,3.9424,3.9424,3.9424,3.9424,3.9424,3.9424,3.9424,3.9424,3.9424,3.9424,3.9424,3.9424,3.9424,3.9424,3.9424,3.9424,3.9424,3.9424,3.9349,3.911,3.9065,3.899,3.8766,3.8751,3.8751,3.8751,3.8931,3.9065,3.9065,3.8956,3.887,3.887,3.8649,3.8458,3.8354,3.8488,3.8619,3.8855,3.8634,3.8676,3.9065,3.8856,3.8407,3.7734,0.0,0.0,0.0,0.0,0.0,0.0,0.0,0.0,0.0,0.0,0.0,0.0,0.0,0.0,0.0,0.0,0.0,0.0,0.0,0.0,0.0,0.0,0.0,3.6293,3.728,3.7939,3.7973,3.9225,4.007,4.007,4.007,4.007,4.007,4.0104,4.0104,4.0104,4.0138,4.0493,4.1221,4.1238,4.1576,4.2286,4.2303,4.232,4.232,4.2354,4.2354,4.2388,4.3115,4.3453,4.3504,4.4248,4.4587,4.4587,4.4587,4.4587,4.4502,4.3741,4.3453,4.3538,4.4299,4.457,4.4253,4.2583,4.0842,3.9424,3.9424,3.9424,3.9424,3.9424,3.9424,3.9424,3.9424,3.9424,3.9424,3.9424,3.9424,3.9424,3.9424,3.9424,3.9424,3.9424,3.9424,3.9424,3.9424,3.9424,3.92,3.8542,3.8422,3.8197,3.7569,3.7464,0.0,3.7464,3.8033,3.8407,3.8392,3.8062,3.7829,3.78,3.7224,3.666,3.6249,3.6594,3.7077,3.78,3.7135,3.7259,3.8336,3.7694,3.7679,3.8307,0.0,0.0,0.0,0.0,0.0,0.0,0.0,0.0,0.0,0.0,0.0,0.0,0.0,0.0,0.0,0.0,0.0,0.0,0.0,0.0,0.0,0.0,3.7919,3.7517,3.8187,3.8886,3.9411,3.9834,4.007,4.007,4.007,4.007,4.007,4.0595,4.0899,4.0899,4.139,4.1779,4.1982,4.1999,4.2083,4.2286,4.2828,4.3115,4.3115,4.3673,4.3944,4.3961,4.4164,4.4265,4.4265,4.4485,4.4587,4.4587,4.4587,4.4587,4.4553,4.435,4.4265,4.4282,4.4502,4.3798,4.2645,4.2189,4.0842,3.9424,3.9424,3.9424,3.9424,3.9424,3.9424,3.9424,3.9424,3.9424,3.9424,3.9424,3.9424,3.9424,3.9424,3.9424,3.9424,3.9424,3.9424,3.9424,3.9424,3.9424,3.9364,3.917,3.914,3.9065,3.8886,3.8871,0.0,3.8871,3.902,3.8945,3.8437,3.8775,3.8429,3.7152,3.7382,3.7158,3.6277,3.6281,3.6838,3.7738,3.6852,3.6494,3.6816,3.6146,3.5935,0.0,0.0,0.0,0.0,0.0,0.0,0.0,0.0,0.0,0.0,0.0,0.0,0.0,0.0,0.0,0.0,0.0,0.0,0.0,0.0,0.0,0.0,3.8227,3.8954,3.8836,3.9174,3.9597,4.002,4.007,4.007,4.007,4.0358,4.0544,4.0544,4.1238,4.166,4.166,4.2066,4.2439,4.276,4.276,4.2912,4.325,4.369,4.391,4.391,4.4367,4.4587,4.4587,4.4587,4.4587,0.0,4.4587,4.4587,4.4587,4.4587,4.4587,0.0,0.0,0.0,0.0,0.0,4.3486,4.1997,4.1997,4.0842,3.9424,3.9424,3.9424,3.9424,3.9424,3.9424,3.9424,3.9424,3.9424,3.9424,3.9424,3.9424,3.9424,3.9424,3.9424,3.9424,3.9424,3.9424,3.9424,3.9424,0.0,0.0,3.9424,3.9185,3.8901,3.8616,3.8571,3.843,3.7971,3.812,3.7974,3.7215,3.729,3.7048,3.6039,3.6045,0.0,0.0,0.0,3.5459,3.6036,3.5931,0.0,0.0,0.0,3.503,3.5278,0.0,0.0,0.0,3.575,3.5596,0.0,0.0,0.0,0.0,0.0,0.0,0.0,0.0,0.0,0.0,0.0,0.0,0.0,0.0,0.0,0.0,3.8633,3.9343,3.9986,4.0155,4.0172,4.0087,4.0155,4.0206,4.0206,4.0882,4.1322,4.1322,4.2016,4.2422,4.2422,0.0,0.0,0.0,0.0,4.3876,4.457,4.4587,4.4587,4.4587,4.4587,4.4587,4.4587,4.4587,4.4587,4.4587,4.4587,4.4587,4.4587,4.4587,4.4587,4.4587,4.4587,4.4587,4.4587,4.4514,4.3469,0.0,0.0,0.0,0.0,3.9409,3.9424,3.9424,3.9424,3.9424,3.9424,3.9424,3.9424,3.9424,3.9424,3.9424,3.9424,3.9424,3.9424,3.9424,3.9424,3.9424,3.9424,3.9424,3.9424,3.9424,3.9424,3.8916,3.8302,3.7719,3.7644,3.7267,3.623,3.6546,3.6475,3.5432,0.0,0.0,3.4571,3.4081,3.3576,3.3129,3.3558,3.375,3.3682,3.467,3.4895,3.4208,3.4194,3.4467,3.5063,3.5063,3.494,3.4719,3.5529,3.5695,0.0,0.0,0.0,0.0,0.0,0.0,0.0,0.0,0.0,0.0,0.0,0.0,0.0,0.0,0.0,3.8751,3.9394,3.9918,4.0054,4.0595,4.0764,4.0155,4.0612,4.0984,4.0984,4.1644,4.2083,4.2083,4.2777,4.32,4.32,4.3792,0.0,4.435,4.435,4.4418,4.4587,4.4587,4.4587,4.4587,0.0,0.0,4.4587,4.4587,4.4587,4.4587,4.4587,4.4587,4.4587,4.4587,4.4587,4.4587,4.4587,4.4587,4.4514,4.3814,4.3366,4.2847,4.1412,4.0758,4.0309,3.961,3.9424,3.9424,3.9424,3.9424,0.0,3.9424,3.9424,3.9424,3.9424,3.9424,3.9424,3.9424,3.9424,3.9424,3.9424,3.9424,3.9424,3.9424,3.9424,3.9424,3.9424,3.9305,3.917,3.905,3.9035,3.8646,3.7543,3.7569,3.6973,3.5488,3.5631,3.5398,3.4017,3.4294,3.4074,3.3154,3.4017,3.4105,3.3233,3.4271,3.437,3.3308,3.3308,3.336,3.3559,3.3559,3.392,3.4733,3.5661,3.5699,0.0,0.0,0.0,0.0,0.0,0.0,0.0,0.0,0.0,0.0,0.0,3.7984,0.0,0.0,3.8988,3.8988,3.9918,4.0646,4.0646,4.1288,4.1474,4.073,4.1288,4.1745,4.1745,4.2422,4.2861,4.2861,4.3555,4.3995,4.3995,4.4367,4.4587,4.4587,4.4587,4.4587,4.4587,4.4587,4.4587,4.4587,4.4587,4.4587,4.4587,4.4587,4.4587,4.4587,4.4587,4.4587,4.4587,4.4587,4.4587,4.4587,4.4587,4.4587,4.457,4.4121,4.368,4.3108,4.1788,4.108,4.0569,3.9666,3.9424,3.9424,3.9424,3.9424,3.9424,3.9424,3.9424,3.9424,3.9424,3.9424,3.9424,3.9424,3.9424,3.9424,3.9424,3.9424,3.9424,3.9424,3.9424,3.9424,3.9424,3.9424,3.9424,3.9424,3.8943,3.8219,3.7175,3.6554,3.5746,3.4349,3.4479,3.4297,3.3482,3.3714,3.3628,3.3154,3.3641,3.3628,3.3167,3.3641,3.3641,3.3081,3.3081,3.3081,3.3081,3.3641,3.3869,3.3953,3.4966,3.521,0.0,0.0,0.0,0.0,0.0,0.0,0.0,0.0,3.9301,3.8977,3.8594,3.8328,3.8328,3.892,3.9428,3.9428,4.0544,4.1407,4.1407,4.2049,4.2286,4.1711,4.2151,4.2506,4.2506,4.32,4.3639,4.3639,4.4215,4.4587,4.4587,4.4587,4.4587,4.4587,4.4587,4.4587,4.4587,4.4587,4.4587,4.4587,4.4587,4.4587,4.4587,4.4587,4.4587,4.4587,4.4587,4.4587,4.4587,4.4587,4.4587,4.457,4.4384,4.4327,4.4327,4.4179,4.368,4.2909,4.1869,4.1147,4.0569,3.9666,3.9424,3.9424,3.9424,3.9424,3.9424,3.9424,3.9424,3.9424,3.9424,3.9424,3.9424,3.9424,3.9424,3.9424,3.9424,3.9424,3.9424,3.9424,3.9424,3.9424,3.9424,3.9424,3.9424,3.9424,3.8472,3.742,3.6369,3.5278,3.4275,3.324,3.3081,3.3081,3.3081,3.3081,3.3081,3.3081,3.3081,3.3081,3.3081,3.3081,3.3081,3.3081,3.3081,3.3081,3.3081,3.3953,3.3953,3.3167,3.3953,3.4428,3.982,3.9955,3.9914,3.9369,3.9369,3.9522,0.0,0.0,3.9217,3.9831,3.9867,3.9834,3.9834,4.046,4.095,4.095,4.1644,4.2168,4.2168,4.2811,4.3267,4.3183,4.325,4.3301,4.3301,4.3995,4.4451,4.4451,4.4536,4.4587,4.4587,4.4587,4.4587,4.4587,4.4587,4.4587,4.4587,4.4587,4.4587,4.4587,4.4587,4.4587,4.4587,4.4587,4.4587,4.4587,4.4587,4.4587,4.4587,4.4587,4.4587,4.4514,4.3756,4.3443,4.3366,4.2583,4.2252,4.1933,4.0255,4.0115,4.0569,3.9666,3.9424,3.9424,3.9424,3.9424,3.9424,3.9424,3.9424,3.9424,3.9424,3.9424,3.9424,3.9424,3.9424,3.9424,3.9424,3.9424,3.9424,3.9424,3.9424,3.9424,3.9424,3.9424,3.9424,3.9424,3.8472,3.742,3.6369,3.5278,3.4275,3.324,3.3081,3.3081,3.3081,3.3081,3.3081,3.3081,3.3081,3.3081,3.3081,3.3081,3.3081,3.3081,3.3081,3.3081,3.3081,3.324,3.324,3.3081,3.324,3.3326,4.0636,4.0221,0.0,0.0,4.0153,3.9809,4.0262,4.0238,4.012,4.0103,4.0426,4.073,4.073,4.1339,4.183,0.0,4.2455,4.2946,4.2946,4.3606,4.4096,4.4096,4.4096,4.4096,4.4096,4.4384,4.4587,4.4587,4.4587,4.4587,4.4587,4.4587,4.4587,4.4587,4.4587,4.4587,4.4587,4.4587,4.4587,4.4587,4.4587,4.4587,4.4587,4.4587,4.4587,4.4587,4.4587,4.4587,4.4587,4.4587,4.4587,4.4514,4.3621,4.2986,4.252,4.2125,4.1997,4.1804,4.0569,4.0378,4.0569,3.9666,3.9424,3.9424,3.9424,3.9424,3.9424,3.9424,3.9424,3.9424,3.9424,3.9424,3.9424,3.9424,3.9424,3.9424,3.9424,3.9424,3.9424,3.9424,3.9424,3.9424,3.9424,3.9424,3.9424,3.9424,3.7979,3.6682,3.629,3.4802,3.3641,3.3154,3.3081,3.3081,3.3081,3.3081,3.3081,3.3081,3.3081,3.3081,3.3081,3.3081,3.3081,3.3081,3.3081,3.3081,3.3081,3.3081,3.3081,3.3081,3.3081,3.3081,4.0852,0.0,0.0,4.0926,4.0665,4.0199,4.0565,4.0703,4.0645,4.0425,4.0832,4.1271,4.1474,4.2117,4.2591,4.2591,4.325,4.3741,4.3741,4.4215,4.4587,4.4587,4.4587,4.4587,4.4587,4.4587,4.4587,4.4587,4.4587,4.4587,4.4587,4.4587,4.4587,4.4587,4.4587,4.4587,4.4587,4.4587,4.4587,4.4587,4.4587,4.4587,4.4587,4.4587,4.4587,4.4587,4.4587,4.444,4.4253,4.4253,4.4121,4.3798,4.2909,4.2189,4.1609,4.1346,4.128,4.1162,4.0569,4.0363,4.0255,3.961,3.9424,3.9424,3.9424,3.9424,3.9424,3.9424,3.9424,3.9424,3.9424,3.9424,3.9424,3.9424,3.9424,3.9424,3.9424,3.9424,3.9424,3.9424,3.9424,3.9424,3.9424,3.9424,3.9424,3.9424,3.7558,3.6198,3.6198,3.4415,3.3081,3.3081,3.3081,3.3081,3.3081,3.3081,3.3081,3.3081,3.3081,3.3081,3.3081,3.3081,3.3081,3.3081,3.3081,3.3081,3.3081,3.3081,3.3081,3.3081,3.3081,3.3081,4.004,0.0,3.9564,3.971,4.0303,4.0763,4.0254,4.0121,4.0324,4.1018,4.1187,4.1424,4.2117,4.2878,4.3386,4.3386,4.4045,4.4536,4.4536,4.4553,4.4587,4.4587,4.4587,4.4587,0.0,4.4587,4.4587,4.4587,4.4587,4.4587,4.4587,4.4587,4.4587,4.4587,4.4587,4.4587,4.4587,4.4587,4.4587,4.4587,4.4587,4.4587,4.4587,4.4587,4.4587,4.4587,4.4587,4.4121,4.3366,4.3366,4.2847,4.1997,4.1147,4.0743,4.0622,3.9793,3.9481,3.9481,3.9409,3.9409,3.9424,3.9424,3.9424,3.9424,3.9424,3.9424,3.9424,3.9424,3.9424,3.9424,3.9424,3.9424,3.9424,3.9424,3.9424,3.9424,3.9424,3.9424,3.9424,3.9424,3.9424,3.9424,3.9424,3.9424,3.9424,3.9424,3.7558,3.6198,3.6198,3.4415,3.3081,3.3081,3.3081,3.3081,3.3081,3.3081,3.3081,3.3081,3.3081,3.3081,3.3081,3.3081,3.3081,3.3081,3.3081,3.3081,3.3081,3.3081,3.3081,3.3081,3.3081,3.3081,3.9841,0.0,3.9693,3.9901,4.0197,4.0455,4.0747,4.0832,4.1035,4.1779,4.1931,4.1999,4.2252,4.2489,4.2828,4.3335,4.3639,4.3995,4.4502,4.4587,4.4587,4.4587,4.4587,0.0,0.0,0.0,0.0,4.4587,4.4587,4.4587,4.4587,4.4587,4.4587,4.4587,4.4587,4.4587,4.4587,4.4587,4.4587,4.4587,4.4587,4.4587,4.4587,4.4587,4.4587,4.457,4.4006,4.3562,4.3246,4.2645,4.2252,4.1933,4.1013,4.069,4.0622,3.9737,3.9424,3.9424,3.9424,3.9424,3.9424,3.9424,3.9424,3.9424,3.9424,3.9424,3.9424,3.9424,3.9424,3.9424,3.9424,3.9424,3.9424,3.9424,3.9424,3.9424,3.9424,3.9424,3.9424,3.9424,3.9424,3.9424,3.9424,3.9424,3.8943,3.7482,3.6682,3.5734,3.4332,3.3543,3.3081,3.3081,3.3081,3.3081,3.3081,3.3081,3.3081,3.3081,3.3081,3.3081,3.3081,3.3081,3.3081,3.3081,3.3081,3.3081,3.3081,3.3081,3.3269,3.3621,3.3621,3.3822,3.9633,3.9583,3.9555,3.9985,4.029,4.0612,4.1085,4.1407,4.1728,4.2202,4.2286,4.2286,4.2286,4.2286,4.254,4.3301,4.342,4.369,4.4468,4.4587,4.4587,4.4587,4.4587,4.4587,0.0,0.0,0.0,4.4587,4.4587,4.4587,4.4587,4.4587,4.4587,4.4587,4.4587,4.4587,4.4587,4.4587,4.4587,4.4587,4.4587,4.4587,4.4587,4.4587,4.4587,4.457,4.4006,4.3426,4.2785,4.2252,4.1609,4.1028,4.0432,4.0392,4.0537,3.9956,3.9918,4.0053,3.9589,3.9424,3.9424,3.9424,3.9424,3.9469,3.9694,3.9768,3.9828,4.0053,4.0113,4.0113,4.0113,3.9948,3.9768,3.9768,3.9589,3.9424,3.9424,3.9424,3.9424,3.9424,3.9424,3.9424,3.9424,3.9104,3.8219,3.6448,3.5894,3.5034,3.3313,3.3081,3.3081,3.3081,3.3081,3.3081,3.3081,3.3081,3.3081,3.3081,3.3081,3.3081,3.3081,3.3081,3.3169,3.337,3.337,3.347,3.3658,3.3658,3.3847,3.4198,3.4198,3.4387,3.933,3.9405,3.9208,3.9901,4.0646,4.1221,4.1255,4.1796,4.2303,4.2337,4.2286,4.2236,0.0,0.0,4.2489,4.3234,4.3403,4.369,4.4468,4.4587,4.4587,0.0,0.0,0.0,0.0,0.0,0.0,4.4587,0.0,4.4587,4.4587,4.4587,4.4587,4.4587,4.4587,4.4587,4.4587,4.4587,4.4587,4.4587,4.4587,4.4587,4.4587,4.4587,4.4587,4.4587,4.457,4.3562,4.2045,4.1981,4.0972,3.9514,3.9514,3.9903,4.0442,4.0442,4.0846,4.1205,3.9948,3.9514,3.9514,3.9514,3.9514,3.9634,4.0262,4.0442,4.0576,4.1205,4.1384,4.1384,4.1384,4.092,4.0442,4.0442,3.9978,3.9514,3.9514,3.9514,3.9514,3.9484,3.9439,3.9424,3.9424,3.8457,3.7343,3.6369,3.5278,3.4275,3.324,3.3081,3.3081,3.3081,3.3081,3.3081,3.3081,3.3081,3.3081,3.3081,3.3106,3.3119,3.3119,3.3144,3.3407,3.3935,3.3935,3.4198,3.4726,3.4726,3.4738,3.4763,3.4763,3.4776,3.9839,3.9932,3.9834,4.002,4.0646,4.1339,4.188,4.2168,4.2455,4.3014,4.2252,4.1474,0.0,0.0,0.0,4.2455,4.3047,0.0,4.4468,4.4587,0.0,4.4587,0.0,4.4587,4.4587,4.4587,0.0,0.0,4.4587,4.4587,4.4587,4.4587,4.4587,4.4587,4.4587,4.4587,4.4587,4.4587,4.4587,4.4587,4.4587,4.4587,4.4587,4.4587,4.4587,4.457,4.3931,4.3281,4.2716,4.2066,4.1454,4.0876,4.0876,4.098,4.113,4.113,4.1235,4.1324,4.0995,4.0876,4.0876,4.0876,4.0876,4.0905,4.107,4.113,4.116,4.1324,4.1384,4.1384,4.1384,4.125,4.113,4.113,4.0995,4.0876,4.0876,4.0876,4.0726,4.0247,3.9753,3.9424,3.9424,3.7814,3.6526,3.6277,3.4637,3.3398,3.3154,3.3081,3.3081,3.3081,3.3081,3.3081,3.3081,3.3081,3.3081,3.3081,3.347,3.3696,3.3696,3.4085,3.4374,3.4512,3.4512,3.4575,3.4726,3.4726,3.4939,3.5341,3.5341,3.5554,3.9968,4.007,4.0155,4.0493,4.1136,4.1779,4.2202,4.254,4.2726,4.2489,4.1796,0.0,4.1204,0.0,0.0,0.0,0.0,0.0,4.4468,4.4587,4.4587,0.0,4.4587,0.0,4.4587,4.4587,4.4587,0.0,4.4587,4.4587,4.4587,4.4587,4.4587,4.4587,4.4587,4.4587,4.4587,4.4587,4.4587,4.4587,4.4587,4.4756,4.5077,4.5077,4.5246,4.5551,0.0,4.4335,4.3435,4.2911,4.2212,4.1384,4.1384,4.1549,4.1818,4.1818,4.1998,4.2237,4.2237,4.2237,4.2147,4.1564,4.1384,4.1429,4.1728,4.1818,4.1863,4.2162,4.2237,4.2237,4.2237,4.2028,4.1818,4.1818,4.1594,4.1384,4.1384,4.1384,4.1265,4.0905,4.0307,3.9843,3.9843,3.7835,3.6198,3.6198,3.4415,3.3081,3.3081,3.3081,3.3081,3.3081,3.3081,3.3081,3.3081,3.3307,3.3432,3.3432,3.396,3.4261,3.4261,3.4562,3.4839,3.5077,3.509,3.5203,3.5441,3.5441,3.5604,3.5893,3.5893,3.6069,3.9918,4.007,4.0257,4.1018,4.1745,4.2286,4.2286,4.2794,4.2878,4.1491,0.0,4.1085,4.1187,4.1204,4.1694,4.3183,0.0,4.369,4.4468,4.4587,4.4587,4.4587,4.4587,4.4587,4.4587,4.4587,4.4587,4.4587,4.4587,4.4587,4.4587,4.4587,4.4587,4.4587,4.4587,4.4587,4.4587,4.4587,4.4621,4.4722,4.4722,4.5111,4.5855,4.5855,4.6194,4.6786,0.0,0.0,4.4388,4.4305,4.3278,4.1851,4.1715,4.1983,4.2491,4.2491,4.2851,4.3329,4.3329,4.3329,4.315,4.2013,4.1639,4.1743,4.2312,4.2491,4.2611,4.3165,4.3329,4.3329,4.3329,4.291,4.2491,4.2491,4.2058,4.1639,4.1639,4.1564,4.1504,4.1504,4.098,4.0457,4.0293,3.8173,3.6339,3.6177,3.445,3.3156,3.3081,3.3081,3.3081,3.3081,3.3144,3.3181,3.3181,3.3696,3.401,3.401,3.4525,3.4826,3.4826,3.4901,3.5165,3.5642,3.5655,3.5893,3.6358,3.6358,3.6358,3.6358,3.6358,3.6358,4.0054,4.007,4.0257,4.1018,4.1745,4.2286,4.2286,4.2388,0.0,0.0,4.0713,4.046,4.1085,4.1204,4.1694,4.3183,0.0,0.0,0.0,0.0,4.4587,0.0,0.0,0.0,0.0,0.0,0.0,0.0,0.0,0.0,4.4587,4.4587,4.4587,4.4587,4.4587,4.4587,4.4587,4.4587,4.4891,4.5517,4.5517,4.5906,4.6599,4.6599,4.6667,4.6786,0.0,0.0,4.5996,4.5246,4.4622,4.4096,4.3283,4.306,4.3165,4.3165,4.324,4.3329,4.3329,4.3329,4.3299,4.306,4.3,4.3015,4.3135,4.3165,4.3195,4.3299,4.3329,4.3329,4.3329,4.324,4.3165,4.3165,4.3075,4.3,4.3,4.2566,4.2192,4.2192,4.1669,4.0887,3.9886,3.8629,3.7318,3.5848,3.4564,3.3596,3.3131,3.3081,3.3081,3.3081,3.3483,3.3759,3.3759,3.4261,3.4575,3.4575,3.5102,3.5403,3.5403,3.5843,3.6119,3.6219,3.6219,3.627,3.6358,3.6358,3.6358,3.6358,3.6358,3.6358,3.9614,4.007,4.0849,4.1593,4.2337,4.2777,4.2388,0.0,0.0,0.0,4.0341,4.0307,4.1068,4.1204,0.0,4.2658,0.0,0.0,0.0,0.0,0.0,0.0,0.0,0.0,0.0,0.0,0.0,0.0,0.0,0.0,4.4587,4.4587,4.4587,4.4587,4.4587,4.4773,4.5162,4.5162,4.5534,4.6261,4.6261,4.6667,4.7378,4.7378,4.7581,4.7936,4.7936,0.0,4.7013,4.6039,4.5349,4.4737,4.3708,4.3329,4.3329,4.3329,4.3329,4.3329,4.3329,4.3329,4.3329,4.3329,4.3329,4.3329,4.3329,4.3329,4.3329,4.3329,4.3329,4.3329,4.3329,4.3329,4.3329,4.3329,4.3329,4.3329,4.3329,4.309,4.2865,4.2865,4.2342,4.1724,4.1136,3.9434,3.7799,3.6928,3.5392,3.4223,3.3972,3.3935,3.3822,3.3533,3.3997,3.4324,3.4324,3.4826,3.5152,3.5152,3.5667,3.5968,3.5968,3.6219,3.6358,3.6358,3.6358,3.6358,3.6358,3.6358,3.6358,3.6358,3.6358,3.6358,3.9343,4.0189,4.139,4.2117,4.2861,4.3217,4.2472,4.2286,0.0,4.0375,4.007,4.0307,4.1068,0.0,4.1255,0.0,4.2658,4.3064,4.3369,4.3944,4.4401,0.0,0.0,0.0,0.0,0.0,0.0,0.0,0.0,0.0,4.4587,4.4587,4.4587,4.4587,4.4739,4.5111,4.5703,4.5872,4.6312,4.7039,4.7039,4.7428,4.8156,4.8156,4.846,4.9001,4.9001,0.0,0.0,4.6678,4.5778,4.5005,4.3771,4.3329,4.3329,4.3329,4.3329,4.3329,4.3329,4.3329,4.3329,4.3329,4.3329,4.3329,4.3329,4.3329,4.3329,4.3329,4.3329,4.3329,4.3329,4.3329,4.3329,4.3329,4.3329,4.3329,4.3329,4.3329,4.3329,4.3329,4.2925,4.2488,4.2302,4.0383,3.8672,3.8269,3.649,3.5187,3.5073,3.4994,3.4726,3.4299,3.4638,3.4901,3.4901,3.5403,3.5717,3.5717,3.6119,3.6358,3.6358,3.6358,3.6358,3.6358,3.6358,3.6358,3.6358,3.6358,3.6358,3.6358,3.6358,3.6358,3.9817,4.0578,4.139,4.2117,4.2861,4.3217,4.2472,0.0,4.1863,4.0375,4.007,4.0307,4.1068,4.0646,0.0,0.0,0.0,4.188,4.3234,4.347,4.3792,4.4485,0.0,0.0,0.0,0.0,0.0,0.0,0.0,0.0,0.0,4.4587,4.4587,4.4587,4.5246,4.5635,4.5703,4.6363,4.7073,4.7817,4.7817,4.8206,4.89,4.89,4.8951,4.9001,0.0,0.0,0.0,4.6952,4.6173,4.5905,4.4051,4.3329,4.3329,4.3329,4.3329,4.3329,4.3329,4.3329,4.3329,4.3329,4.3329,4.3329,4.3329,4.3329,4.3329,4.3329,4.3329,4.3329,4.3329,4.3329,4.3329,4.3329,4.3329,4.3329,4.3329,4.3329,4.3329,4.3329,4.3284,4.2906,4.1845,4.1457,4.0715,3.9116,3.7846,3.6898,3.6371,3.5827,3.5454,3.5403,3.5441,3.5466,3.5466,3.5968,3.6282,3.6282,3.6332,3.6358,3.6358,3.6358,3.6358,3.6358,3.6358,3.6358,3.6358,3.6358,3.6358,3.6358,3.6358,3.6358,3.8819,4.029,4.1931,4.2219,4.3217,4.3792,4.2574,0.0,4.1863,4.0375,4.007,4.0172,4.046,4.029,4.0273,4.0865,4.1102,4.1559,4.2591,4.3132,4.3707,4.4485,0.0,0.0,0.0,0.0,0.0,0.0,0.0,0.0,0.0,4.4587,4.479,4.5246,4.5551,4.6143,4.7039,4.7327,4.7834,4.8578,4.8578,4.8731,4.9001,4.9001,4.9001,4.9001,0.0,0.0,0.0,4.6952,4.6173,4.6032,4.4051,4.3329,4.3329,4.3329,4.3329,4.3329,4.3329,4.3329,4.3329,4.3329,4.3329,4.3329,4.3329,4.3329,4.3329,4.3329,4.3329,4.3329,4.3329,4.3329,4.3329,4.3329,4.3329,4.3329,4.3329,4.3329,4.3329,4.3329,4.3329,4.3155,4.2725,4.2029,4.1334,4.0645,3.9585,3.8836,3.8592,3.7722,3.7078,3.7078,3.6472,3.6031,3.6031,3.6232,3.6358,3.6358,3.6358,3.6358,3.6358,3.6358,3.6358,3.6358,3.6358,3.6358,3.6358,3.6358,3.6358,3.6358,3.6358,3.6358,3.8244,4.0054,4.2016,4.2236,4.3267,4.3893,0.0,0.0,4.161,4.0341,4.007,4.007,4.007,4.007,4.007,4.007,4.0527,4.1119,4.1863,4.2608,4.3284,0.0,0.0,0.0,0.0,0.0,0.0,0.0,0.0,0.0,0.0,4.479,4.5162,4.5686,4.6126,4.687,4.7902,4.8139,4.8494,4.9001,4.9001,4.9001,4.9001,4.9001,4.9001,4.9001,0.0,0.0,0.0,4.6952,4.6173,4.6032,4.4051,4.3329,4.3329,4.3329,4.3329,4.3329,4.3329,4.3329,4.3329,4.3329,4.3329,4.3329,4.3329,4.3329,4.3329,4.3329,4.3329,4.3329,4.3329,4.3329,4.3329,4.3329,4.3329,4.3329,4.3329,4.3329,4.3329,4.3329,4.3329,4.3329,4.3329,4.2629,4.2111,4.2111,4.1085,4.0404,4.0404,3.9346,3.8469,3.8107,3.7415,3.6803,3.6452,3.6358,3.6358,3.6358,3.6358,3.6358,3.6358,3.6358,3.6358,3.6358,3.6358,3.6358,3.6358,3.6358,3.6358,3.6358,3.6358,3.6358,3.8582,4.0087,4.139,4.2117,4.2861,4.3234,0.0,4.1728,4.1001,4.024,4.007,4.007,4.007,4.007,4.007,4.007,4.0087,4.0358,4.1119,4.1847,0.0,0.0,0.0,0.0,0.0,0.0,0.0,0.0,0.0,0.0,0.0,4.528,4.5703,4.5703,4.7141,4.7902,4.7919,4.8629,4.9001,4.9001,4.9001,4.9001,4.9001,4.9001,4.9001,0.0,0.0,0.0,0.0,4.6952,4.6173,4.6032,4.4051,4.3329,4.3329,4.3329,4.3329,4.3329,4.3329,4.3329,4.3329,4.3329,4.3329,4.3329,4.3329,4.3329,4.3329,4.3329,4.3329,4.3329,4.3329,4.3329,4.3329,4.3329,4.3329,4.3329,4.3329,4.3329,4.3329,4.3329,4.3329,4.3329,4.3329,4.325,4.325,4.325,4.229,4.1587,4.1587,4.0575,3.9448,3.8198,3.8107,3.7586,3.6546,3.6358,3.6358,3.6358,3.6358,3.6358,3.6358,3.6358,3.6358,3.6358,3.6358,3.6358,3.6358,3.6358,3.6358,3.6358,3.6358,3.6358,3.7347,3.892,4.0493,4.0747,4.1728,4.2455,4.1728,4.1373,4.0984,4.024,4.007,4.007,4.007,4.007,4.007,4.007,4.007,4.0341,0.0,0.0,0.0,0.0,0.0,0.0,0.0,0.0,0.0,0.0,0.0,0.0,0.0,4.5771,4.6447,4.6447,4.7394,4.8156,4.8663,4.8883,4.9001,4.9001,4.9001,4.9001,4.9001,4.9001,0.0,0.0,0.0,0.0,0.0,4.7671,4.6815,4.6103,4.4781,4.3927,4.3329,4.3329,4.3329,4.3329,4.3329,4.3329,4.3329,4.3329,4.3329,4.3329,4.3329,4.3329,4.3329,4.3329,4.3329,4.3329,4.3329,4.3329,4.3329,4.3329,4.3329,4.3329,4.3329,4.3329,4.3329,4.3329,4.3329,4.3329,4.3329,4.3329,4.3329,4.3329,4.2981,4.2725,4.2725,4.1099,3.9724,3.936,3.7861,3.6803,3.6452,3.6358,3.6358,3.6358,3.6358,3.6358,3.6358,3.6358,3.6358,3.6358,3.6358,3.6358,3.6358,3.6358,3.6358,3.6358,3.6358,3.6358,3.6705,3.8193,3.9732,4.0037,4.1001,0.0,4.1305,4.0984,4.0646,4.0172,4.007,4.007,4.007,4.007,4.007,4.007,4.007,4.024,0.0,0.0,0.0,0.0,0.0,0.0,0.0,0.0,0.0,0.0,0.0,0.0,0.0,0.0,4.6786,4.6786,4.78,4.8545,4.9001,4.9001,4.9001,4.9001,4.9001,4.9001,4.9001,4.9001,0.0,0.0,0.0,0.0,0.0,4.8015,4.7239,4.6592,4.5706,4.4706,4.3849,4.3849,4.363,4.3329,4.3329,4.3329,4.3329,4.3329,4.3329,4.3329,4.3329,4.3329,4.3329,4.3329,4.3329,4.3329,4.3329,4.3329,4.3329,4.3329,4.3329,4.3329,4.3329,4.3329,4.3329,4.3329,4.3329,4.3329,4.3329,4.3329,4.3329,4.3329,4.3329,4.3329,4.3329,4.1699,4.0418,3.9986,3.8211,3.6896,3.6452,3.6358,3.6358,3.6358,3.6358,3.6358,3.6358,3.6358,3.6358,3.6358,3.6358,3.6358,3.6358,3.6358,3.6358,3.6358,3.6358,3.6358,0.0,3.7821,3.9089,3.9749,4.0527,4.1119,4.1119,4.0578,0.0,4.007,4.007,4.007,4.007,4.007,4.007,4.007,4.007,0.0,0.0,0.0,0.0,0.0,0.0,0.0,0.0,0.0,0.0,0.0,0.0,0.0,0.0,0.0,4.6786,4.6786,4.824,4.9001,4.9001,4.9001,4.9001,4.9001,4.9001,4.9001,4.9001,4.9001,0.0,0.0,0.0,0.0,0.0,4.808,4.7655,4.7506,4.6662,4.5706,4.4871,4.4871,4.4297,4.3409,4.3409,4.3329,4.3329,4.3329,4.3329,4.3329,4.3329,4.3329,4.3329,4.3329,4.3329,4.3329,4.3329,4.3329,4.3329,4.3329,4.3329,4.3329,4.3329,4.3329,4.3329,4.3329,4.3329,4.3329,4.3329,4.3329,4.3329,4.3329,4.3329,4.3329,4.3329,4.229,4.1169,3.9986,3.8827,3.7678,3.6546,3.6358,3.6358,3.6358,3.6358,3.6358,3.6358,3.6358,3.6358,3.6358,3.6358,3.6358,3.6358,3.6358,3.6358,3.6358,3.6358,3.6358,3.6569,0.0,3.821,3.8379,3.9394,4.0341,0.0,0.0,0.0,0.0,0.0,0.0,0.0,0.0,4.007,0.0,0.0,0.0,0.0,0.0,0.0,0.0,0.0,0.0,0.0,0.0,0.0,0.0,0.0,0.0,0.0,0.0,4.6786,4.6786,4.824,4.9001,4.9001,4.9001,4.9001,4.9001,4.9001,4.9001,4.9001,4.9001,0.0,0.0,0.0,0.0,4.9001,4.8781,4.8225,4.7589,4.7373,4.6678,4.5905,4.5905,4.5285,4.445,4.445,4.3927,4.3329,4.3329,4.3329,4.3329,4.3329,4.3329,4.3329,4.3329,4.3329,4.3329,4.3329,4.3329,4.3329,4.3329,4.3329,4.3329,4.3329,4.3329,4.3329,4.3329,4.3329,4.3329,4.3329,4.3329,4.3329,4.3329,4.3329,4.3329,4.3329,4.229,4.1169,3.9986,3.8827,3.7678,3.6546,3.6358,3.6358,3.6358,3.6358,3.6358,3.6358,3.6358,3.6358,3.6358,3.6358,3.6358,3.6358,3.6358,3.6358,3.6358,3.6358,3.6358,3.6569,3.733,3.799,3.8328,3.9242,4.007,4.007,4.007,0.0,0.0,0.0,0.0,0.0,0.0,0.0,0.0,0.0,0.0,0.0,0.0,0.0,0.0,0.0,0.0,0.0,0.0,0.0,0.0,0.0,0.0,0.0,0.0,4.6786,4.6786,4.824,4.9001,4.9001,4.9001,4.9001,4.9001,4.9001,4.9001,4.9001,4.9001,0.0,0.0,0.0,0.0,4.9001,4.9001,4.8719,4.8225,4.8225,4.7655,4.6815,4.6815,4.626,4.5358,4.4946,4.4143,4.3329,4.3329,4.3329,4.3329,4.3329,4.3329,4.3329,4.3329,4.3329,4.3329,4.3329,4.3329,4.3329,4.3329,4.3329,4.3329,4.3329,4.3329,4.3329,4.3329,4.3329,4.3329,4.3329,4.3329,4.3329,4.3329,4.3329,4.3329,4.3329,4.229,4.1169,3.9986,3.8827,3.7678,3.6546,3.6358,3.6358,3.6358,3.6358,3.6358,3.6358,3.6358,3.6358,3.6358,3.6358,3.6358,3.6358,3.6358,3.6358,3.6358,3.6358,3.6358,3.6705,3.7415,3.8091,3.8819,3.9529,4.007,4.007,4.007,0.0,0.0,0.0,0.0,0.0,0.0,0.0,0.0,0.0,0.0,0.0,0.0,0.0,0.0,0.0,0.0,0.0,0.0,0.0,0.0,0.0,0.0,0.0,0.0,0.0,4.6786,4.824,4.9001,4.9001,4.9001,4.9001,4.9001,4.9001,4.9001,4.9001,4.9001,4.9001,0.0,0.0,0.0,4.9001,4.9001,4.9001,4.9001,4.9001,4.8497,4.7803,4.7803,4.7239,4.626,4.5153,4.4143,4.3329,4.3329,4.3329,4.3329,4.3329,4.3329,4.3329,4.3329,4.3329,4.3329,4.3329,4.3329,4.3329,4.3329,4.3329,4.3329,4.3329,4.3329,4.3329,4.3329,4.3329,4.3329,4.3329,4.3329,4.3329,4.3329,4.3329,4.3329,4.3329,4.2467,4.142,4.0232,3.9258,3.8107,3.6803,3.6628,3.6628,3.6452,3.6358,3.6358,3.6358,3.6358,3.6358,3.6358,3.6358,3.6358,3.6358,3.6358,3.6358,3.6358,3.6358,3.6358,3.7347,3.7821,3.8091,3.8819,3.9529,4.007,4.007,4.007,4.007,0.0,0.0,0.0,0.0,0.0,0.0,0.0,0.0,0.0,0.0,0.0,0.0,0.0,0.0,0.0,0.0,0.0,0.0,0.0,0.0,0.0,0.0,0.0,0.0,4.6786,4.824,4.9001,4.9001,4.9001,4.9001,4.9001,4.9001,4.9001,4.9001,4.9001,4.9001,0.0,0.0,4.9001,4.9001,4.9001,4.9001,4.9001,4.9001,4.894,4.8798,4.8798,4.8161,4.7172,4.5358,4.4143,4.3329,4.3329,4.3329,4.3329,4.3329,4.3329,4.3329,4.3329,4.3329,4.3329,4.3329,4.3329,4.3329,4.3329,4.3329,4.3329,4.3329,4.3329,4.3329,4.3329,4.3329,4.3329,4.3329,4.3329,4.3329,4.3329,4.3329,4.3329,4.3329,4.3155,4.2629,4.142,4.1155,4.0204,3.8017,3.7848,3.7415,3.6452,3.6358,3.6358,3.6358,3.6358,3.6358,3.6358,3.6358,3.6358,3.6358,3.6358,3.6358,3.6358,3.6358,3.6358,3.7483,3.7905,3.8278,3.98,4.0121,4.007,4.007,4.007,0.0,0.0,0.0,0.0,0.0,0.0,0.0,0.0,0.0,0.0,0.0,0.0,0.0,0.0,0.0,0.0,0.0,0.0,0.0,0.0,0.0,0.0,0.0,0.0,0.0,0.0,4.824,4.9001,4.9001,4.9001,4.9001,4.9001,4.9001,4.9001,4.9001,4.9001,4.9001,4.9001,0.0,4.9001,4.9001,4.9001,4.9001,4.9001,4.9001,4.9001,4.9001,4.9001,4.8433,4.7456,4.6609,4.5358,4.4143,4.4143,4.3771,4.3329,4.3329,4.3329,4.3329,4.3329,4.3329,4.3329,4.3329,4.3329,4.3329,4.3329,4.3329,4.3329,4.3329,4.3329,4.3329,4.3329,4.3329,4.3329,4.3329,4.3329,4.3329,4.3329,4.3329,4.3329,4.3329,4.3329,4.29,4.1684,4.1085,3.9958,3.8289,3.7494,3.6977,3.6452,3.6358,3.6358,3.6358,3.6358,3.6358,3.6358,3.6358,3.6358,3.6358,3.6358,3.6358,3.6358,3.6358,3.6358,3.7483,3.7905,3.8396,4.0426,4.0646,4.0392,4.0561,4.0595,0.0,0.0,0.0,0.0,0.0,0.0,0.0,0.0,0.0,0.0,0.0,0.0,0.0,0.0,0.0,0.0,0.0,0.0,0.0,0.0,0.0,0.0,0.0,0.0,0.0,0.0,4.8054,4.8832,4.9001,4.9001,4.9001,4.9001,4.9001,4.9001,4.9001,4.9001,4.9001,4.9001,4.9001,4.9001,4.9001,4.9001,4.9001,4.9001,4.9001,4.9001,4.9001,4.9001,4.8433,4.7589,4.7589,4.6346,4.4812,4.4812,4.4143,4.3329,4.3329,4.3329,4.3329,4.3329,4.3329,4.3329,4.3329,4.3329,4.3329,4.3329,4.3329,4.3329,4.3329,4.3329,4.3329,4.3329,4.3329,4.3329,4.3329,4.3329,4.3329,4.3329,4.3329,4.3329,4.3329,4.3329,4.2981,4.2111,4.1183,4.0145,3.8649,3.7243,3.6358,3.6358,3.6358,3.6358,3.6358,3.6358,3.6358,3.6358,3.6358,3.6358,3.6358,3.6358,3.6358,3.6358,3.6358,3.6358,3.7483,3.7905,3.8278,3.9783,4.0646,4.1305,4.1982,4.2134,0.0,4.2134,0.0,0.0,0.0,0.0,0.0,0.0,0.0,0.0,0.0,0.0,0.0,0.0,0.0,0.0,0.0,0.0,0.0,0.0,0.0,0.0,0.0,0.0,0.0,0.0,0.0,4.8325,4.9001,4.9001,4.9001,4.9001,4.9001,4.9001,4.9001,4.9001,4.9001,4.9001,4.9001,4.9001,4.9001,4.9001,4.9001,4.9001,4.9001,4.9001,4.9001,4.9001,4.8433,4.7589,4.7589,4.6346,4.4812,4.4812,4.4143,4.3329,4.3329,4.3329,4.3329,4.3329,4.3329,4.3329,4.3329,4.3329,4.3329,4.3329,4.3329,4.3329,4.3329,4.3329,4.3329,4.3329,4.3329,4.3329,4.3329,4.3329,4.3329,4.3329,4.3329,4.3329,4.3329,4.3329,4.325,4.317,4.3076,4.2126,3.9986,3.7691,3.6358,3.6358,3.6358,3.6358,3.6358,3.6358,3.6358,3.6358,3.6358,3.6358,3.6358,3.6358,3.6358,3.6358,3.6358,3.6358,3.7483,3.8227,3.9056,4.0967,4.1677,0.0,0.0,4.1965,4.2286,4.2286,4.2286,0.0,0.0,0.0,0.0,0.0,0.0,0.0,0.0,0.0,0.0,0.0,0.0,0.0,0.0,0.0,0.0,0.0,0.0,0.0,0.0,0.0,0.0,0.0,0.0,4.8257,4.9001,4.9001,4.9001,4.9001,4.9001,4.9001,4.9001,4.9001,4.9001,4.9001,4.9001,4.9001,4.9001,4.9001,4.9001,4.9001,4.9001,4.9001,4.9001,4.9001,4.8798,4.845,4.845,4.7239,4.5706,4.5706,4.4631,4.3329,4.3329,4.3329,4.3329,4.3329,4.3329,4.3329,4.3329,4.3329,4.3329,4.3329,4.3329,4.3329,4.3329,4.3329,4.3329,4.3329,4.3329,4.3329,4.3329,4.3329,4.3329,4.3329,4.3329,4.3329,4.3329,4.3329,4.3329,4.3329,4.2044,4.0575,3.8917,3.7335,3.6358,3.6358,3.6358,3.6358,3.6358,3.6358,3.6358,3.6358,3.6358,3.6358,3.6358,3.6358,3.6358,3.6358,3.6358,3.6358,3.7567,3.8616,3.9749,4.1508,0.0,0.0,4.2016,4.21,4.2354,4.2591,4.2844,0.0,0.0,0.0,0.0,0.0,0.0,0.0,0.0,0.0,0.0,0.0,0.0,0.0,0.0,0.0,0.0,0.0,0.0,0.0,0.0,0.0,0.0,0.0,0.0,4.7919,4.8663,4.8883,4.9001,4.9001,4.9001,4.9001,4.9001,4.9001,4.9001,4.9001,4.9001,4.9001,4.9001,4.9001,4.9001,4.9001,4.9001,4.9001,4.9001,4.9001,4.9001,4.894,4.8656,4.7523,4.6173,4.5834,4.4615,4.3329,4.3329,4.3329,4.3329,4.3329,4.3329,4.3329,4.3329,4.3329,4.3329,4.3329,4.3329,4.3329,4.3329,4.3329,4.3329,4.3329,4.3329,4.3329,4.3329,4.3329,4.3329,4.3329,4.3329,4.3329,4.3329,4.3329,4.3329,4.3329,4.1267,3.9549,3.8738,3.7243,3.6358,3.6358,3.6358,3.6358,3.6358,3.6358,3.6358,3.6358,3.6358,3.6358,3.6358,3.6358,3.6358,3.6358,3.6358,3.6358,3.7719,3.8988,4.029,0.0,0.0,0.0,4.342,4.2828,4.2523,4.325,0.0,0.0,0.0,0.0,0.0,0.0,0.0,0.0,0.0,0.0,0.0,0.0,0.0,0.0,0.0,0.0,0.0,0.0,0.0,0.0,0.0,0.0,0.0,0.0,0.0,4.7141,4.7919,4.8629,4.9001,4.9001,4.9001,4.9001,4.9001,4.9001,4.9001,4.9001,4.9001,4.9001,4.9001,4.9001,4.9001,4.9001,4.9001,4.9001,4.9001,4.9001,4.9001,4.8861,4.795,4.702,4.6048,4.5079,4.4143,4.3329,4.3329,4.3329,4.3329,4.3329,4.3329,4.3329,4.3329,4.3329,4.3329,4.3329,4.3329,4.3329,4.3329,4.3329,4.3329,4.3329,4.3329,4.3329,4.3329,4.3329,4.3329,4.3329,4.3329,4.3329,4.3329,4.3329,4.3329,4.3329,4.1267,3.9899,3.9899,3.7782,3.6452,3.6358,3.6358,3.6358,3.6358,3.6358,3.6358,3.6358,3.6358,3.6358,3.6358,3.6358,3.6358,3.6358,3.6358,3.6358,3.8464,4.0121,0.0,0.0,0.0,0.0,0.0,4.325,0.0,0.0,0.0,0.0,0.0,0.0,0.0,0.0,0.0,0.0,0.0,0.0,0.0,0.0,0.0,0.0,0.0,0.0,0.0,0.0,0.0,0.0,0.0,0.0,0.0,0.0,4.5923,4.6633,4.7902,4.8139,4.8494,4.9001,4.9001,4.9001,4.9001,4.9001,4.9001,4.9001,4.9001,4.9001,4.9001,4.9001,4.9001,4.9001,4.9001,4.9001,4.9001,4.9001,4.9001,4.894,4.8656,4.7523,4.6173,4.5905,4.469,4.3329,4.3329,4.3329,4.3329,4.3329,4.3329,4.3329,4.3329,4.3329,4.3329,4.3329,4.3329,4.3329,4.3329,4.3329,4.3329,4.3329,4.3329,4.3329,4.3329,4.3329,4.3329,4.3329,4.3329,4.3329,4.3329,4.3329,4.3329,4.3329,4.1947,4.0746,3.9986,3.8469,3.7243,3.6452,3.6358,3.6358,3.6358,3.6358,3.6358,3.6358,3.6358,3.6358,3.6358,3.6358,3.6358,3.6358,3.6358,3.6358,3.887,0.0,0.0,0.0,0.0,0.0,0.0,0.0,0.0,0.0,0.0,0.0,0.0,0.0,0.0,0.0,0.0,0.0,0.0,0.0,0.0,0.0,0.0,0.0,0.0,0.0,0.0,0.0,0.0,0.0,0.0,0.0,0.0,0.0,4.5551,4.6143,4.7039,4.7631,4.8139,4.8578,4.8866,4.9001,4.9001,4.9001,4.9001,4.9001,4.9001,4.9001,4.9001,4.9001,4.9001,4.9001,4.9001,4.9001,4.9001,4.9001,4.9001,4.8861,4.8161,4.7172,4.6103,4.5327,4.4266,4.3329,4.3329,4.3329,4.3329,4.3329,4.3329,4.3329,4.3329,4.3329,4.3329,4.3329,4.3329,4.3329,4.3329,4.3329,4.3329,4.3329,4.3329,4.3329,4.3329,4.3329,4.3329,4.3329,4.3329,4.3329,4.3329,4.3329,4.3329,4.3329,4.229,4.1169,3.9986,3.8827,3.7586,3.6452,3.6358,3.6358,3.6358,3.6358,3.6358,3.6358,3.6358,3.6358,3.6358,3.6358,3.6358,3.6358,3.6358,3.6358,3.9073,0.0,0.0,0.0,0.0,0.0,0.0,0.0,0.0,0.0,0.0,0.0,0.0,0.0,0.0,0.0,0.0,0.0,0.0,0.0,0.0,0.0,0.0,0.0,0.0,0.0,0.0,0.0,0.0,0.0,0.0,0.0,0.0,0.0,4.5246,4.5635,4.5703,4.7039,4.775,0.0,4.8562,4.89,4.89,4.8968,4.9001,4.9001,4.9001,4.9001,4.9001,4.9001,4.9001,4.9001,4.9001,4.9001,4.9001,4.9001,4.9001,4.8798,4.702,4.6314,4.5889,4.4113,4.3472,4.3329,4.3329,4.3329,4.3329,4.3329,4.3329,4.3329,4.3329,4.3329,4.3329,4.3329,4.3329,4.3329,4.3329,4.3329,4.3329,4.3329,4.3329,4.3329,4.3329,4.3329,4.3329,4.3329,4.3329,4.3329,4.3329,4.3329,4.3329,4.3329,4.2371,4.1253,4.0145,3.8917,3.7769,3.6628,3.6452,3.6358,3.6358,3.6358,3.6358,3.6358,3.6358,3.6358,3.6358,3.6358,3.6358,3.6358,3.6358,3.6358,0.0,4.161,0.0,0.0,0.0,0.0,0.0,0.0,0.0,0.0,0.0,0.0,0.0,0.0,0.0,0.0,0.0,0.0,0.0,0.0,0.0,0.0,0.0,0.0,0.0,0.0,0.0,0.0,0.0,0.0,0.0,0.0,0.0,4.4587,4.4739,4.5111,4.5703,4.6024,4.6464,0.0,4.7784,4.8156,4.8173,4.8748,4.9001,4.9001,4.9001,4.9001,4.9001,4.9001,4.9001,4.9001,4.9001,4.9001,4.9001,4.9001,4.9001,4.894,4.8513,4.744,4.6103,4.5674,4.454,4.3329,4.3329,4.3329,4.3329,4.3329,4.3329,4.3329,4.3329,4.3329,4.3329,4.3329,4.3329,4.3329,4.3329,4.3329,4.3329,4.3329,4.3329,4.3329,4.3329,4.3329,4.3329,4.3329,4.3329,4.3329,4.3329,4.3329,4.3329,4.3329,4.3076,4.2467,4.1337,4.0145,3.9006,3.7848,3.6883,3.6358,3.6358,3.6358,3.6358,3.6358,3.6358,3.6358,3.6358,3.6358,3.6358,3.6358,3.6358,3.6358,0.0,0.0,0.0,0.0,0.0,0.0,0.0,0.0,0.0,0.0,0.0,0.0,0.0,0.0,0.0,0.0,0.0,0.0,0.0,0.0,0.0,0.0,0.0,0.0,0.0,0.0,0.0,0.0,0.0,0.0,0.0,4.4587,4.4587,4.4587,4.4587,4.4773,4.5162,4.5517,4.5889,4.6278,4.7022,4.7564,4.7953,4.8663,4.9001,4.9001,4.9001,4.9001,4.9001,4.9001,4.9001,4.9001,4.9001,4.9001,4.9001,4.9001,4.9001,4.894,4.8513,4.7655,4.6747,4.585,4.4856,4.3927,4.3488,4.3329,4.3329,4.3329,4.3329,4.3329,4.3329,4.3329,4.3329,4.3329,4.3329,4.3329,4.3329,4.3329,4.3329,4.3329,4.3329,4.3329,4.3329,4.3329,4.3329,4.3329,4.3329,4.3329,4.3329,4.3329,4.3329,4.3329,4.3329,4.282,4.1684,4.1085,3.9958,3.8198,3.7494,3.6977,3.6452,3.6358,3.6358,3.6358,3.6358,3.6358,3.6358,3.6358,3.6358,3.6358,3.6358,3.6358,0.0,0.0,0.0,0.0,0.0,0.0,0.0,0.0,0.0,0.0,0.0,0.0,0.0,0.0,0.0,0.0,0.0,0.0,0.0,0.0,0.0,0.0,0.0,0.0,0.0,0.0,0.0,0.0,0.0,0.0,4.4587,4.4587,4.4587,4.4587,4.4587,4.4587,4.4587,4.5213,4.5517,4.5517,4.6261,4.7005,4.775,4.8342,4.8765,4.9001,4.9001,4.9001,4.9001,4.9001,4.9001,4.9001,4.9001,4.9001,4.9001,4.9001,4.9001,4.8861,4.808,4.7737,4.7306,4.5577,4.4946,4.4586,4.363,4.3329,4.3329,4.3329,4.3329,4.3329,4.3329,4.3329,4.3329,4.3329,4.3329,4.3329,4.3329,4.3329,4.3329,4.3329,4.3329,4.3329,4.3329,4.3329,4.3329,4.3329,4.3329,4.3329,4.3329,4.3329,4.3329,4.3329,4.3329,4.29,4.1947,4.1684,4.0718,3.8559,3.8198,3.7586,3.6452,3.6358,3.6358,3.6358,3.6358,3.6358,3.6358,3.6358,3.6358,3.6358,3.6358,3.6358,0.0,0.0,0.0,0.0,0.0,0.0,0.0,0.0,0.0,0.0,0.0,0.0,0.0,0.0,0.0,0.0,0.0,0.0,0.0,0.0,0.0,0.0,0.0,0.0,0.0,0.0,0.0,0.0,0.0,0.0,4.4587,4.4587,4.4587,4.4587,4.4587,4.4587,4.4587,4.4671,4.4722,4.4739,4.5483,4.6227,4.6955,4.7039,4.7784,4.9001,4.9001,4.9001,4.9001,4.9001,4.9001,4.9001,4.9001,4.9001,4.9001,4.9001,4.9001,4.9001,4.8861,4.8289,4.744,4.64,4.5431,4.4586,4.363,4.3329,4.3329,4.3329,4.3329,4.3329,4.3329,4.3329,4.3329,4.3329,4.3329,4.3329,4.3329,4.3329,4.3329,4.3329,4.3329,4.3329,4.3329,4.3329,4.3329,4.3329,4.3329,4.3329,4.3329,4.3329,4.3329,4.3329,4.3329,4.325,4.3076,4.2193,4.107,3.9711,3.8649,3.7586,3.6452,3.6358,3.6358,3.6358,3.6358,3.6358,3.6358,3.6358,3.6358,3.6358,3.6358,3.6358,4.0307,0.0,0.0,0.0,0.0,0.0,0.0,0.0,0.0,0.0,0.0,0.0,0.0,0.0,0.0,0.0,0.0,0.0,0.0,0.0,0.0,0.0,0.0,0.0,0.0,0.0,0.0,0.0,0.0,4.4587,4.4587,4.4587,4.4587,4.4587,4.4587,4.4587,4.4587,4.4587,4.4587,4.4587,4.4925,4.5466,4.6177,4.6177,4.6769,4.7784,4.8206,4.8392,4.8426,4.8832,4.9001,4.9001,4.9001,4.9001,4.9001,4.9001,4.9001,4.9001,4.9001,4.8719,4.8225,4.7306,4.633,4.5416,4.4419,4.3771,4.3329,4.3329,4.3329,4.3329,4.3329,4.3329,4.3329,4.3329,4.3329,4.3329,4.3329,4.3329,4.3329,4.3329,4.3329,4.3329,4.3329,4.3329,4.3329,4.3329,4.3329,4.3329,4.3329,4.3329,4.3329,4.3329,4.3329,4.3329,4.3329,4.282,4.1782,3.9986,3.936,3.8302,3.6452,3.6358,3.6358,3.6358,3.6358,3.6358,3.6358,3.6358,3.6358,3.6358,3.6358,3.6358,0.0,0.0,0.0,0.0,0.0,0.0,0.0,0.0,0.0,0.0,0.0,0.0,0.0,0.0,0.0,0.0,0.0,0.0,0.0,0.0,0.0,0.0,0.0,0.0,0.0,0.0,0.0,0.0,0.0,4.4587,4.4587,4.4587,4.4587,4.4587,4.4587,4.4587,4.4587,4.4587,4.4587,4.4587,4.4587,4.4874,4.5415,4.5415,4.572,4.6278,4.7225,4.7631,4.7682,4.8223,4.8562,4.8731,4.8731,4.8832,4.9001,4.9001,4.9001,4.9001,4.9001,4.9001,4.8861,4.7933,4.6952,4.6032,4.5079,4.4066,4.3329,4.3329,4.3329,4.3329,4.3329,4.3329,4.3329,4.3329,4.3329,4.3329,4.3329,4.3329,4.3329,4.3329,4.3329,4.3329,4.3329,4.3329,4.3329,4.3329,4.3329,4.3329,4.3329,4.3329,4.3329,4.3329,4.3329,4.3329,4.3329,4.3329,4.2304,4.0073,3.9899,3.8841,3.6546,3.6358,3.6358,3.6358,3.6358,3.6358,3.6358,3.6358,3.6358,3.6358,3.6358,3.6358,0.0,4.1271,0.0,0.0,0.0,0.0,0.0,0.0,0.0,0.0,0.0,0.0,0.0,0.0,0.0,0.0,0.0,0.0,0.0,0.0,0.0,0.0,0.0,0.0,0.0,0.0,0.0,0.0,0.0,4.4587,4.4587,4.4587,4.4587,4.4587,4.4587,4.4587,4.4587,4.4587,4.4587,4.4587,4.4587,4.4604,4.4637,4.4637,4.4654,4.4773,4.6227,4.6853,4.6853,4.6887,4.7327,4.797,4.797,4.8392,4.9001,4.9001,4.9001,4.9001,4.9001,4.9001,4.8861,4.7933,4.6952,4.6032,4.5079,4.4066,4.3329,4.3329,4.3329,4.3329,4.3329,4.3329,4.3329,4.3329,4.3329,4.3329,4.3329,4.3329,4.3329,4.3329,4.3329,4.3329,4.3329,4.3329,4.3329,4.3329,4.3329,4.3329,4.3329,4.3329,4.3329,4.3329,4.3329,4.3329,4.3329,4.3329,4.2304,4.0073,3.9899,3.8841,3.6546,3.6358,3.6358,3.6358,3.6358,3.6358,3.6358,3.6358,3.6358,3.6358,3.6358,3.6358,0.0,0.0,0.0,4.1863,0.0,0.0,0.0,0.0,0.0,0.0,0.0,0.0,0.0,0.0,0.0,0.0,0.0,0.0,0.0,0.0,0.0,0.0,0.0,0.0,0.0,0.0,0.0,0.0,0.0,0.0,4.4587,4.4587,4.4587,4.4587,4.4587,4.4587,4.4587,4.4587,4.4587,4.4587,4.4587,4.4587,4.4587,4.4587,4.4587,4.4604,4.5145,4.5652,4.6126,4.6599,4.6955,4.7192,4.7192,4.7361,4.7648,4.8122,4.8308,4.8376,4.8849,4.9001,4.894,4.8576,4.7868,4.6952,4.5977,4.5005,4.4143,4.3472,4.3329,4.3329,4.3329,4.3329,4.3329,4.3329,4.3329,4.3329,4.3329,4.3329,4.3329,4.3329,4.3329,4.3329,4.3329,4.3329,4.3329,4.3329,4.3329,4.3329,4.3329,4.3329,4.3329,4.3329,4.3329,4.3329,4.3329,4.3329,4.2304,4.0073,3.9899,3.8841,3.6546,3.6358,3.6358,3.6358,3.6358,3.6358,3.6358,3.6358,3.6358,3.6358,3.6358,3.6358,4.007,0.0,0.0,0.0,0.0,0.0,0.0,0.0,0.0,0.0,0.0,0.0,0.0,0.0,0.0,0.0,0.0,0.0,0.0,0.0,0.0,0.0,0.0,0.0,0.0,0.0,0.0,0.0,0.0,0.0,4.4587,4.4587,4.4587,4.4587,4.4587,4.4587,4.4587,4.4587,4.4587,4.4587,4.4587,4.4587,4.4587,4.4587,4.4587,4.4587,4.4587,4.4874,4.5365,4.5855,4.6194,4.643,4.643,4.6583,4.6853,4.7361,4.7547,4.7614,4.8088,4.8426,4.8646,4.8646,4.7961,4.702,4.6384,4.5342,4.4143,4.3472,4.3329,4.3329,4.3329,4.3329,4.3329,4.3329,4.3329,4.3329,4.3329,4.3329,4.3329,4.3329,4.3329,4.3329,4.3329,4.3329,4.3329,4.3329,4.3329,4.3329,4.3329,4.3329,4.3329,4.3329,4.3329,4.3329,4.3329,4.3329,4.2304,4.0073,3.9899,3.8841,3.6546,3.6358,3.6358,3.6358,3.6358,3.6358,3.6358,3.6358,3.6358,3.6358,3.6358,3.6358,0.0,0.0,0.0,0.0,0.0,0.0,0.0,0.0,0.0,0.0,0.0,0.0,0.0,0.0,0.0,0.0,0.0,0.0,0.0,0.0,0.0,0.0,0.0,0.0,0.0,0.0,0.0,0.0,0.0,4.4587,4.4587,4.4587,4.4587,4.4587,4.4587,4.4587,4.4587,4.4587,4.4587,4.4587,4.4587,4.4587,4.4587,4.4587,4.4587,4.4587,4.4587,4.4587,4.4587,4.4587,4.501,4.5669,4.5669,4.6109,4.6735,4.6752,4.6752,4.6752,4.6786,4.7276,4.7885,4.7885,4.711,4.6196,4.6212,4.4868,4.3379,4.3329,4.3329,4.3329,4.3329,4.3329,4.3329,4.3329,4.3329,4.3329,4.3329,4.3329,4.3329,4.3329,4.3329,4.3329,4.3329,4.3329,4.3329,4.3329,4.3329,4.3329,4.3329,4.3329,4.3329,4.3329,4.3329,4.3329,4.3329,4.3329,4.2304,4.0073,3.9899,3.8841,3.6546,3.6358,3.6358,3.6358,3.6358,3.6358,3.6358,3.6358,3.6358,3.6358,3.6358,3.6358,4.007,0.0,0.0,0.0,0.0,0.0,0.0,0.0,0.0,0.0,0.0,0.0,0.0,0.0,0.0,0.0,0.0,0.0,0.0,0.0,0.0,0.0,0.0,0.0,0.0,0.0,0.0,0.0,4.4587,4.4587,4.4587,4.4587,4.4587,4.4587,4.4587,4.4587,4.4587,4.4587,4.4587,4.4587,4.4587,4.4587,4.4587,4.4587,4.4587,4.4587,4.4587,4.4587,4.4587,4.4587,4.4705,4.4891,4.4891,4.501,4.5246,4.5805,4.6007,4.6075,4.6599,4.6921,4.7107,4.7107,4.6891,4.6474,4.562,4.5017,4.4424,4.3557,4.3329,4.3329,4.3329,4.3329,4.3329,4.3329,4.3329,4.3329,4.3329,4.3329,4.3329,4.3329,4.3329,4.3329,4.3329,4.3329,4.3329,4.3329,4.3329,4.3329,4.3329,4.3329,4.3329,4.3329,4.3329,4.3329,4.3329,4.3329,4.2304,4.0073,3.9899,3.8841,3.6546,3.6358,3.6358,3.6358,3.6358,3.6358,3.6358,3.6358,3.6358,3.6358,3.6358,3.6358,4.007,4.007,4.007,0.0,0.0,0.0,4.0629,4.0984,0.0,0.0,0.0,0.0,0.0,0.0,0.0,0.0,0.0,0.0,0.0,0.0,0.0,0.0,0.0,0.0,0.0,0.0,0.0,4.4587,4.4587,4.4587,4.4587,4.4587,4.4587,4.4587,4.4587,4.4587,4.4587,4.4587,4.4587,4.4587,4.4587,4.4587,4.4587,4.4587,4.4587,4.4587,4.4587,4.4587,4.4587,4.4587,4.4587,4.4587,4.4587,4.4587,4.4621,4.5077,4.5229,4.5297,4.572,4.6075,4.6346,4.6346,4.6279,4.6001,4.4994,4.4373,4.3897,4.3166,4.3135,4.3329,4.3329,4.3329,4.3329,4.3329,4.3329,4.3329,4.3329,4.3329,4.3329,4.3329,4.3329,4.3329,4.3329,4.3329,4.3329,4.3329,4.3329,4.3329,4.3329,4.3329,4.3329,4.3329,4.3329,4.3329,4.3329,4.3329,4.2304,4.0073,3.9899,3.8841,3.6546,3.6358,3.6358,3.6358,3.6358,3.6358,3.6358,3.6358,3.6358,3.6358,3.6358,3.6358,4.007,4.007,4.007,0.0,0.0,0.0,4.0189,4.0663,4.1305,0.0,0.0,0.0,0.0,0.0,0.0,0.0,0.0,0.0,0.0,0.0,0.0,0.0,0.0,0.0,0.0,4.4587,4.4587,4.4587,4.4587,4.4587,4.4587,4.4587,4.4587,4.4587,4.4587,4.4587,4.4587,4.4587,4.4587,4.4587,4.4587,4.4587,4.4587,4.4587,4.4587,4.4587,4.4587,4.4587,4.4587,4.4587,4.4587,4.4587,4.4587,4.4587,4.4587,4.4587,4.4587,4.4587,4.4587,4.501,4.5585,4.5585,4.541,4.5011,4.4232,4.3315,4.2525,4.2439,4.2776,4.324,4.3314,4.3329,4.3329,4.3329,4.3329,4.3329,4.3329,4.3329,4.3329,4.3329,4.3329,4.3329,4.3329,4.3329,4.3329,4.3329,4.3329,4.3329,4.3329,4.3329,4.3329,4.3329,4.3329,4.3329,4.3329,4.3329,4.2304,4.0073,3.9899,3.8841,3.6546,3.6358,3.6358,3.6358,3.6358,3.6358,3.6358,3.6358,3.6358,3.6358,3.6358,3.6358,0.0,0.0,0.0,0.0,0.0,0.0,4.0849,4.0629,4.0679,0.0,0.0,0.0,0.0,0.0,0.0,0.0,0.0,0.0,0.0,0.0,0.0,0.0,0.0,0.0,0.0,4.4587,4.4587,4.4587,4.4587,4.4587,4.4587,4.4587,4.4587,4.4587,4.4587,4.4587,4.4587,4.4587,4.4587,4.4587,4.4587,4.4587,4.4587,4.4587,4.4587,4.4587,4.4587,4.4587,4.4587,4.4587,4.4587,4.4587,4.4587,4.4587,4.4587,4.4587,4.4587,4.4587,4.4587,4.4671,4.479,4.479,4.4307,4.3633,4.3347,4.2606,4.1996,4.2304,4.2447,4.2671,4.3195,4.3329,4.3329,4.3329,4.3329,4.3329,4.3329,4.3329,4.3329,4.3329,4.3329,4.3329,4.3329,4.3329,4.3329,4.3329,4.3329,4.3329,4.3329,4.3329,4.3329,4.3329,4.3329,4.3329,4.3329,4.3329,4.2304,4.0073,3.9899,3.8841,3.6546,3.6358,3.6358,3.6358,3.6358,3.6358,3.6358,3.6358,3.6358,3.6358,3.6358,3.6358,0.0,0.0,0.0,4.007,0.0,0.0,0.0,4.0358,4.0392,0.0,0.0,0.0,0.0,0.0,0.0,0.0,0.0,0.0,0.0,0.0,0.0,0.0,0.0,0.0,0.0,4.4587,4.4587,4.4587,4.4587,4.4587,4.4587,4.4587,4.4587,4.4587,4.4587,4.4587,4.4587,4.4587,4.4587,4.4587,4.4587,4.4587,4.4587,4.4587,4.4587,4.4587,4.4587,4.4587,4.4587,4.4587,4.4587,4.4587,4.4587,4.4587,4.4587,4.4587,4.4587,4.4587,4.4587,4.4587,4.4587,4.4587,4.431,4.3747,4.2815,4.1778,4.1073,4.134,4.1848,4.2432,4.2761,4.309,4.3329,4.3329,4.3329,4.3329,4.3329,4.3329,4.3329,4.3329,4.3329,4.3329,4.3329,4.3329,4.3329,4.3329,4.3329,4.3329,4.3329,4.3329,4.3329,4.3329,4.3329,4.3329,4.3329,4.3329,4.2304,4.0073,3.9899,3.8841,3.6546,3.6358,3.6358,3.6358,3.6358,3.6358,3.6358,3.6358,3.6358,3.6358,3.6358,3.6358,0.0,0.0,0.0,0.0,0.0,4.007,0.0,0.0,0.0,4.0865,0.0,0.0,0.0,0.0,0.0,0.0,0.0,0.0,0.0,0.0,0.0,0.0,0.0,0.0,0.0,4.4485,4.4587,4.4587,4.4587,4.4587,4.4587,4.4587,4.4587,4.4587,4.4587,4.4587,4.4587,4.4587,4.4587,4.4587,4.4587,4.4587,4.4587,4.4587,4.4587,4.4587,4.4587,4.4587,4.4587,4.4587,4.4587,4.4587,4.4587,4.4587,4.4587,4.4587,4.4587,4.4587,4.4587,4.4587,4.4587,4.4587,4.4384,4.3798,4.2252,4.1024,4.0232,4.0367,4.116,4.2043,4.2297,4.2746,4.318,4.3299,4.3329,4.3329,4.3329,4.3329,4.3329,4.3329,4.3329,4.3329,4.3329,4.3329,4.3329,4.3329,4.3329,4.3329,4.3329,4.3329,4.3329,4.3329,4.3329,4.3329,4.3329,4.3329,4.2304,4.0073,3.9899,3.8841,3.6546,3.6358,3.6358,3.6358,3.6358,3.6358,3.6358,3.6358,3.6358,3.6358,3.6358,3.6358,0.0,0.0,0.0,0.0,4.007,0.0,0.0,0.0,4.0104,4.0189,0.0,0.0,0.0,0.0,0.0,0.0,0.0,0.0,0.0,0.0,0.0,0.0,0.0,0.0,0.0,0.0,4.4587,4.4587,4.4587,4.4587,4.4587,4.4587,4.4587,4.4587,4.4587,4.4587,4.4587,4.4587,4.4587,4.4587,4.4587,4.4587,4.4587,4.4587,4.4587,4.4587,4.4587,4.4587,4.4587,4.4587,4.4587,4.4587,4.4587,4.4587,4.4587,4.4587,4.4587,4.4587,4.4587,4.4587,4.4587,4.4587,4.3545,4.2125,4.1147,4.0231,3.9649,4.0232,4.0502,4.0891,4.2058,4.2417,4.2626,4.3195,4.3329,4.3329,4.3329,4.3329,4.3329,4.3329,4.3329,4.3329,4.3329,4.3329,4.3329,4.3329,4.3329,4.3329,4.3329,4.3329,4.3329,4.3329,4.3329,4.3329,4.3329,4.3329,4.2304,4.0073,3.9899,3.8841,3.6546,3.6358,3.6358,3.6358,3.6358,3.6358,3.6358,3.6358,3.6358,3.6358,3.6358,3.6358,0.0,0.0,0.0,0.0,0.0,0.0,0.0,0.0,4.007,0.0,0.0,0.0,0.0,0.0,0.0,0.0,0.0,0.0,0.0,0.0,0.0,0.0,0.0,0.0,0.0,0.0,0.0,0.0,0.0,4.391,4.391,4.4333,4.4587,4.4587,4.4587,4.4587,4.4587,4.4587,4.4587,4.4587,4.4587,4.4587,4.4587,4.4587,4.4587,4.4587,4.4587,4.4587,4.4587,4.4587,4.4587,4.4587,4.4587,4.4587,4.4587,4.4587,4.4587,4.4587,4.4587,4.4587,4.4587,4.4587,4.341,4.1933,4.1543,4.0516,3.9484,3.9753,4.0113,4.0621,4.1549,4.2073,4.2521,4.318,4.3329,4.3329,4.3329,4.3329,4.3329,4.3329,4.3329,4.3329,4.3329,4.3329,4.3329,4.3329,4.3329,4.3329,4.3329,4.3329,4.3329,4.3329,4.3329,4.3329,4.3329,4.3329,4.2644,4.1,3.961,3.8121,3.6452,3.6358,3.6358,3.6358,3.6358,3.6358,3.6358,3.6358,3.6358,3.6358,3.6358,3.6358,4.1356,0.0,0.0,0.0,0.0,0.0,0.0,0.0,0.0,0.0,0.0,0.0,0.0,0.0,0.0,4.007,0.0,0.0,0.0,0.0,0.0,0.0,0.0,0.0,0.0,0.0,0.0,4.3064,4.3115,4.32,4.3403,4.3944,4.435,4.457,4.4587,4.4587,4.4587,4.4587,4.4587,4.4587,4.4587,4.4587,4.4587,4.4587,4.4587,4.4587,4.4587,4.4587,4.4587,4.4587,4.4587,4.4587,4.4587,4.4587,4.4587,4.4587,4.4587,4.4587,4.4587,4.4587,4.4587,4.4587,4.341,4.1997,4.1997,4.0774,3.9424,3.9424,3.9768,4.0277,4.0935,4.1594,4.2252,4.291,4.321,4.3329,4.3329,4.3329,4.3329,4.3329,4.3329,4.3329,4.3329,4.3329,4.3329,4.3329,4.3329,4.3329,4.3329,4.3329,4.3329,4.3329,4.3329,4.3329,4.3329,4.3329,4.2644,4.1253,3.9258,3.7586,3.6452,3.6358,3.6358,3.6358,3.6358,3.6358,3.6358,3.6358,3.6358,3.6358,3.6358,3.6358,0.0,0.0,0.0,4.2083,0.0,0.0,0.0,0.0,4.007,0.0,0.0,0.0,0.0,0.0,4.007,4.007,4.007,0.0,0.0,0.0,0.0,0.0,0.0,0.0,0.0,0.0,0.0,4.232,4.2337,4.2642,4.3386,4.3436,4.3809,4.4553,4.4587,4.4587,4.4587,4.4587,4.4587,4.4587,4.4587,4.4587,4.4587,4.4587,4.4587,4.4587,4.4587,4.4587,4.4587,4.4587,4.4587,4.4587,4.4587,4.4587,4.4587,4.4587,4.4587,4.4587,4.4587,4.4587,4.4587,4.4587,4.341,4.1997,4.1997,4.0774,3.9424,3.9424,3.9439,3.9604,4.0262,4.092,4.1579,4.2237,4.2865,4.3329,4.3329,4.3329,4.3329,4.3329,4.3329,4.3329,4.3329,4.3329,4.3329,4.3329,4.3329,4.3329,4.3329,4.3329,4.3329,4.3329,4.3329,4.3329,4.3329,4.3329,4.2304,4.0073,3.8827,3.7586,3.6452,3.6358,3.6358,3.6358,3.6358,3.6358,3.6358,3.6358,3.6358,3.6358,3.6358,3.6358,0.0,0.0,4.2726,4.298,0.0,0.0,0.0,0.0,0.0,0.0,0.0,0.0,0.0,0.0,4.007,4.007,4.007,4.007,0.0,0.0,0.0,0.0,0.0,0.0,0.0,0.0,0.0,4.1542,4.1576,4.1897,4.2625,4.3149,4.3775,4.4553,4.4587,4.4587,4.4587,4.4587,4.4587,4.4587,4.4587,4.4587,4.4587,4.4587,4.4587,4.4587,4.4587,4.4587,4.4587,4.4587,4.4587,4.4587,4.4587,4.4587,4.4587,4.4587,4.4587,4.4587,4.4587,4.4587,4.4587,4.4587,4.341,4.1997,4.1997,4.0774,3.9424,3.9424,3.9424,3.9574,4.0232,4.0891,4.1549,4.2207,4.2865,4.3329,4.3329,4.3329,4.3329,4.3329,4.3329,4.3329,4.3329,4.3329,4.3329,4.3329,4.3329,4.3329,4.3329,4.3329,4.3329,4.3329,4.3329,4.3329,4.3329,4.3329,4.2304,4.0073,3.9536,3.8392,3.6452,3.6358,3.6358,3.6358,3.6358,3.6358,3.6358,3.6358,3.6358,3.6358,3.6358,3.6358,4.3745,4.3639,0.0,4.3775,4.3047,0.0,4.2033,0.0,0.0,0.0,0.0,0.0,0.0,0.0,4.007,4.007,4.007,4.007,0.0,4.007,0.0,0.0,0.0,0.0,0.0,0.0,4.029,4.0764,4.0798,4.1238,0.0,0.0,4.3504,4.4553,4.4587,4.4587,4.4587,4.4587,4.4587,4.4587,4.4587,4.4587,4.4587,4.4587,4.4587,4.4587,4.4587,4.4587,4.4587,4.4587,4.4587,4.4587,4.4587,4.4587,4.4587,4.4587,4.4587,4.4587,4.4587,4.4587,4.4587,4.4587,4.341,4.1997,4.1997,4.0774,3.9574,4.0277,4.0127,3.9963,4.0876,4.1235,4.1489,4.1908,4.2506,4.3045,4.3284,4.3329,4.3329,4.3329,4.3329,4.3329,4.3329,4.3329,4.3329,4.3329,4.3329,4.3329,4.3329,4.3329,4.3329,4.3329,4.3329,4.3329,4.3329,4.3329,4.2304,4.0073,3.9899,3.8841,3.6546,3.6358,3.6358,3.6358,3.6358,3.6358,3.6358,3.6358,3.6358,3.6358,3.6358,3.6358]},{"header":{"parameterUnit":"m.s-1","parameterCategory":1,"la1":30.6,"la2":29.2853,"lo1":-89.7004,"lo2":-87.6739,"dy":0.0162,"dx":0.0183,"nx":112,"ny":82,"refTime":"2023-04-23T06:00:00:Z","depth":0,"parameterNumber":3,"parameterNumberName":"V-component_of_WINDS"},"data":[0.0,0.0,0.0,0.0,0.0,0.0,0.0,0.0,0.0,0.0,0.0,0.0,0.0,0.0,0.0,0.0,0.0,0.0,0.0,0.0,0.0,0.0,0.0,0.0,0.0,0.0,0.0,0.0,0.0,0.0,0.0,0.0,0.0,0.0,0.0,0.0,0.0,0.0,0.0,0.0,0.0,0.0,0.0,0.0,0.0,0.0,0.0,0.0,0.0,0.0,0.0,0.0,0.0,0.0,0.0,0.0,0.0,0.0,0.0,0.0,0.0,0.0,0.0,0.0,0.0,0.0,0.0,0.0,0.0,0.0,0.0,0.0,0.0,0.0,0.0,0.0,0.0,0.0,0.0,0.0,0.0,0.0,0.0,0.0,0.0,0.0,0.0,0.0,0.0,0.0,0.0,-2.5711,-2.4637,-2.4337,-2.5158,-2.2787,-2.1934,-2.3416,0.0,0.0,0.0,0.0,0.0,0.0,0.0,0.0,0.0,0.0,0.0,0.0,0.0,0.0,0.0,0.0,0.0,0.0,0.0,0.0,0.0,0.0,0.0,0.0,0.0,0.0,0.0,0.0,0.0,0.0,0.0,0.0,0.0,0.0,0.0,0.0,0.0,0.0,0.0,0.0,0.0,0.0,0.0,0.0,0.0,0.0,0.0,0.0,0.0,0.0,0.0,0.0,0.0,0.0,0.0,0.0,0.0,0.0,0.0,0.0,0.0,0.0,0.0,0.0,0.0,0.0,0.0,0.0,0.0,0.0,0.0,0.0,0.0,0.0,0.0,0.0,0.0,0.0,0.0,0.0,0.0,0.0,0.0,0.0,0.0,0.0,0.0,0.0,0.0,0.0,0.0,0.0,0.0,0.0,0.0,0.0,0.0,0.0,0.0,0.0,0.0,0.0,0.0,0.0,-2.5297,-2.6226,-2.6183,-2.6094,-2.6245,-2.5075,-2.4413,-2.4546,0.0,0.0,0.0,0.0,0.0,0.0,0.0,0.0,0.0,0.0,0.0,0.0,0.0,0.0,0.0,0.0,0.0,0.0,0.0,0.0,0.0,0.0,0.0,0.0,0.0,0.0,0.0,0.0,0.0,0.0,0.0,0.0,0.0,0.0,0.0,0.0,0.0,0.0,0.0,0.0,0.0,0.0,0.0,0.0,0.0,0.0,0.0,0.0,0.0,0.0,0.0,0.0,0.0,0.0,0.0,0.0,0.0,0.0,0.0,0.0,0.0,0.0,0.0,0.0,0.0,0.0,0.0,0.0,0.0,0.0,0.0,0.0,0.0,0.0,0.0,0.0,0.0,0.0,0.0,0.0,0.0,0.0,0.0,0.0,0.0,0.0,0.0,0.0,0.0,0.0,0.0,0.0,0.0,0.0,0.0,0.0,0.0,0.0,0.0,0.0,0.0,0.0,0.0,-2.5184,-2.6013,-2.6816,-2.6705,-2.6806,-2.7356,-2.5382,-2.4519,-2.519,-2.335,0.0,0.0,0.0,0.0,0.0,0.0,0.0,0.0,0.0,0.0,0.0,0.0,0.0,0.0,0.0,0.0,0.0,0.0,0.0,0.0,0.0,0.0,0.0,0.0,0.0,0.0,0.0,0.0,0.0,0.0,0.0,0.0,0.0,0.0,0.0,0.0,0.0,0.0,0.0,0.0,0.0,0.0,0.0,0.0,0.0,0.0,0.0,0.0,0.0,0.0,0.0,0.0,0.0,0.0,0.0,0.0,0.0,0.0,0.0,0.0,0.0,0.0,0.0,0.0,0.0,0.0,0.0,0.0,0.0,0.0,0.0,0.0,0.0,0.0,0.0,0.0,0.0,0.0,0.0,0.0,0.0,0.0,0.0,0.0,0.0,0.0,0.0,0.0,0.0,0.0,0.0,0.0,0.0,0.0,0.0,0.0,0.0,0.0,0.0,0.0,0.0,0.0,-2.6088,-2.7005,-2.7431,-2.714,-2.7236,-2.8024,-2.5639,-2.4566,-2.574,-2.3979,0.0,0.0,0.0,0.0,0.0,0.0,0.0,0.0,0.0,0.0,0.0,0.0,0.0,0.0,0.0,0.0,0.0,0.0,0.0,0.0,0.0,0.0,0.0,0.0,0.0,0.0,0.0,0.0,0.0,0.0,0.0,0.0,0.0,0.0,0.0,0.0,0.0,0.0,0.0,0.0,0.0,0.0,0.0,0.0,0.0,0.0,0.0,0.0,0.0,0.0,0.0,0.0,0.0,0.0,0.0,0.0,0.0,0.0,0.0,0.0,0.0,0.0,0.0,0.0,0.0,0.0,0.0,0.0,0.0,0.0,0.0,0.0,0.0,0.0,0.0,0.0,0.0,0.0,0.0,0.0,0.0,0.0,0.0,0.0,0.0,0.0,0.0,0.0,0.0,0.0,0.0,0.0,0.0,0.0,0.0,0.0,0.0,0.0,0.0,0.0,0.0,0.0,-2.6979,-2.8009,-2.8047,-2.7999,-2.8024,-2.8097,-2.6615,-2.5853,-2.6427,-2.4921,0.0,0.0,0.0,0.0,0.0,0.0,0.0,0.0,0.0,0.0,0.0,0.0,0.0,0.0,0.0,0.0,0.0,0.0,0.0,0.0,0.0,0.0,0.0,0.0,0.0,0.0,0.0,0.0,0.0,0.0,0.0,0.0,0.0,0.0,0.0,0.0,0.0,0.0,0.0,0.0,0.0,0.0,0.0,0.0,0.0,0.0,0.0,0.0,0.0,0.0,0.0,0.0,0.0,0.0,0.0,0.0,0.0,0.0,0.0,0.0,0.0,0.0,0.0,0.0,0.0,0.0,0.0,0.0,0.0,0.0,0.0,0.0,0.0,0.0,0.0,0.0,0.0,0.0,0.0,0.0,0.0,0.0,0.0,0.0,0.0,0.0,0.0,0.0,0.0,0.0,0.0,0.0,0.0,0.0,0.0,0.0,0.0,0.0,0.0,0.0,0.0,0.0,-2.7293,-2.8235,0.0,-2.895,-2.9164,-2.9164,-2.7977,-2.7182,-2.7042,0.0,0.0,0.0,0.0,0.0,0.0,0.0,0.0,0.0,0.0,0.0,0.0,0.0,0.0,0.0,0.0,0.0,0.0,0.0,0.0,0.0,0.0,0.0,0.0,0.0,0.0,0.0,0.0,0.0,0.0,0.0,0.0,0.0,0.0,0.0,0.0,0.0,0.0,0.0,0.0,0.0,0.0,0.0,0.0,0.0,0.0,0.0,0.0,0.0,0.0,0.0,0.0,0.0,0.0,0.0,0.0,0.0,0.0,0.0,0.0,0.0,0.0,0.0,0.0,0.0,0.0,0.0,0.0,0.0,0.0,0.0,0.0,0.0,0.0,0.0,0.0,0.0,0.0,0.0,0.0,0.0,0.0,0.0,0.0,0.0,0.0,0.0,0.0,0.0,0.0,0.0,0.0,0.0,0.0,0.0,0.0,0.0,0.0,0.0,0.0,0.0,0.0,-2.6666,-2.7846,-2.8787,0.0,-2.9553,-2.9792,-2.9792,-2.8946,-2.813,-2.762,0.0,0.0,0.0,0.0,0.0,0.0,0.0,0.0,0.0,0.0,0.0,0.0,0.0,0.0,0.0,0.0,0.0,0.0,0.0,0.0,0.0,0.0,0.0,0.0,0.0,0.0,0.0,0.0,0.0,0.0,0.0,0.0,0.0,0.0,0.0,0.0,0.0,0.0,0.0,0.0,0.0,0.0,0.0,0.0,0.0,0.0,0.0,0.0,0.0,0.0,0.0,0.0,0.0,0.0,0.0,0.0,0.0,0.0,0.0,0.0,0.0,0.0,0.0,0.0,0.0,0.0,0.0,0.0,0.0,0.0,0.0,0.0,0.0,0.0,0.0,0.0,0.0,0.0,0.0,0.0,0.0,0.0,0.0,0.0,0.0,0.0,0.0,0.0,0.0,0.0,0.0,0.0,0.0,0.0,0.0,0.0,0.0,0.0,0.0,0.0,0.0,0.0,-2.7293,-2.8762,-2.9792,-2.9792,-2.9792,-2.9792,-2.9792,-2.9264,-2.8699,0.0,0.0,0.0,0.0,0.0,0.0,0.0,0.0,0.0,0.0,0.0,0.0,0.0,0.0,0.0,0.0,0.0,0.0,0.0,0.0,0.0,0.0,0.0,0.0,0.0,0.0,0.0,0.0,0.0,0.0,0.0,0.0,0.0,0.0,0.0,0.0,0.0,0.0,0.0,0.0,0.0,0.0,0.0,0.0,0.0,0.0,0.0,0.0,0.0,0.0,0.0,0.0,0.0,0.0,0.0,0.0,0.0,0.0,0.0,0.0,0.0,0.0,0.0,0.0,0.0,0.0,0.0,0.0,0.0,0.0,0.0,0.0,0.0,0.0,0.0,0.0,0.0,0.0,0.0,0.0,0.0,0.0,0.0,0.0,0.0,0.0,0.0,0.0,0.0,0.0,0.0,0.0,0.0,0.0,0.0,0.0,0.0,0.0,0.0,0.0,0.0,0.0,0.0,-2.7858,-2.9001,-2.9792,-2.9792,-2.9792,-2.9792,-2.9792,-2.9641,-2.9126,-2.816,0.0,0.0,0.0,0.0,0.0,0.0,0.0,0.0,0.0,0.0,0.0,0.0,0.0,0.0,0.0,0.0,0.0,0.0,0.0,0.0,0.0,0.0,0.0,0.0,0.0,0.0,0.0,0.0,0.0,0.0,0.0,0.0,0.0,0.0,0.0,0.0,0.0,0.0,0.0,0.0,0.0,0.0,0.0,0.0,0.0,0.0,0.0,0.0,0.0,0.0,0.0,0.0,0.0,0.0,0.0,0.0,0.0,0.0,0.0,0.0,0.0,0.0,0.0,0.0,0.0,0.0,0.0,0.0,0.0,0.0,0.0,0.0,0.0,0.0,0.0,0.0,0.0,0.0,0.0,0.0,0.0,0.0,0.0,0.0,0.0,0.0,0.0,0.0,0.0,0.0,0.0,0.0,0.0,0.0,0.0,0.0,0.0,0.0,0.0,0.0,0.0,0.0,-2.8109,-2.9101,-2.9792,-2.9792,-2.9792,-2.9792,-2.9792,-2.9792,-2.9402,-2.8499,0.0,0.0,0.0,0.0,0.0,0.0,0.0,0.0,0.0,0.0,0.0,0.0,0.0,0.0,0.0,0.0,0.0,0.0,0.0,0.0,0.0,0.0,0.0,0.0,0.0,0.0,0.0,0.0,0.0,0.0,0.0,0.0,0.0,0.0,0.0,0.0,0.0,0.0,0.0,0.0,0.0,0.0,0.0,0.0,0.0,0.0,0.0,0.0,0.0,0.0,0.0,0.0,0.0,0.0,0.0,0.0,0.0,0.0,0.0,0.0,0.0,0.0,0.0,0.0,0.0,0.0,0.0,0.0,0.0,0.0,0.0,0.0,0.0,0.0,0.0,0.0,0.0,0.0,0.0,0.0,0.0,0.0,0.0,0.0,0.0,0.0,0.0,0.0,0.0,0.0,0.0,0.0,0.0,0.0,0.0,0.0,0.0,0.0,0.0,0.0,0.0,0.0,-2.8109,-2.9101,-2.9792,-2.9792,-2.9792,-2.9792,-2.9792,-2.9792,-2.9541,-2.8963,0.0,0.0,0.0,0.0,0.0,0.0,0.0,0.0,0.0,0.0,0.0,0.0,0.0,0.0,0.0,0.0,0.0,0.0,0.0,0.0,0.0,0.0,0.0,0.0,0.0,0.0,0.0,0.0,0.0,0.0,0.0,0.0,0.0,0.0,0.0,0.0,0.0,0.0,0.0,0.0,0.0,0.0,0.0,0.0,0.0,0.0,0.0,0.0,0.0,0.0,0.0,0.0,0.0,0.0,0.0,0.0,0.0,0.0,0.0,0.0,-2.0312,0.0,0.0,0.0,0.0,0.0,0.0,0.0,0.0,0.0,0.0,0.0,0.0,0.0,0.0,0.0,0.0,0.0,0.0,0.0,0.0,0.0,0.0,0.0,0.0,0.0,0.0,0.0,0.0,0.0,0.0,0.0,0.0,0.0,0.0,0.0,0.0,0.0,0.0,0.0,0.0,0.0,-2.8109,-2.9101,-2.9792,-2.9792,-2.9792,-2.9792,-2.9792,-2.9792,-2.9541,-2.8963,-2.8825,0.0,0.0,0.0,0.0,0.0,0.0,0.0,0.0,0.0,0.0,0.0,0.0,0.0,0.0,0.0,0.0,0.0,0.0,0.0,0.0,0.0,0.0,0.0,0.0,0.0,0.0,0.0,0.0,0.0,0.0,0.0,0.0,0.0,0.0,0.0,0.0,0.0,0.0,0.0,0.0,0.0,0.0,0.0,0.0,0.0,0.0,0.0,0.0,0.0,0.0,0.0,0.0,0.0,0.0,0.0,0.0,0.0,0.0,0.0,0.0,-2.0352,0.0,0.0,0.0,0.0,0.0,0.0,0.0,0.0,0.0,0.0,0.0,0.0,0.0,0.0,0.0,0.0,0.0,0.0,0.0,0.0,0.0,0.0,0.0,0.0,0.0,0.0,0.0,0.0,0.0,0.0,0.0,0.0,0.0,0.0,0.0,0.0,0.0,0.0,0.0,0.0,-2.8461,-2.949,-3.0181,-3.0181,-3.0419,-3.0557,-3.0557,-3.0557,-3.0331,-2.9767,-2.949,0.0,0.0,0.0,0.0,0.0,0.0,0.0,0.0,0.0,0.0,0.0,0.0,0.0,0.0,0.0,0.0,0.0,0.0,0.0,0.0,0.0,0.0,0.0,0.0,0.0,0.0,0.0,0.0,0.0,0.0,0.0,0.0,0.0,0.0,0.0,0.0,0.0,0.0,0.0,0.0,0.0,0.0,0.0,0.0,0.0,0.0,0.0,0.0,0.0,0.0,0.0,0.0,0.0,0.0,-2.1211,-2.1572,-2.1572,-2.1768,-2.206,-2.125,-2.1113,-2.1396,0.0,0.0,0.0,0.0,0.0,0.0,0.0,0.0,0.0,0.0,0.0,0.0,0.0,0.0,0.0,0.0,0.0,0.0,0.0,0.0,0.0,0.0,0.0,0.0,0.0,-2.9365,-2.9227,0.0,0.0,0.0,0.0,0.0,0.0,0.0,0.0,0.0,0.0,0.0,0.0,-2.9164,-3.0118,-3.0758,-3.0758,-3.1135,-3.1386,-3.1386,-3.1386,-3.121,-3.0783,-3.0319,-2.9854,0.0,0.0,0.0,0.0,0.0,0.0,0.0,0.0,0.0,0.0,0.0,0.0,0.0,0.0,0.0,0.0,0.0,0.0,0.0,0.0,0.0,0.0,0.0,0.0,0.0,0.0,0.0,0.0,0.0,0.0,0.0,0.0,-1.3943,-1.521,0.0,0.0,0.0,0.0,0.0,0.0,0.0,0.0,0.0,0.0,0.0,0.0,0.0,0.0,-2.1143,-2.1523,-2.1894,-2.2256,-2.2627,-2.2832,-2.2891,-2.2891,-2.292,-2.2949,-2.2461,0.0,-2.2334,-2.2217,0.0,0.0,0.0,0.0,0.0,0.0,0.0,0.0,0.0,0.0,0.0,0.0,0.0,0.0,0.0,0.0,0.0,0.0,0.0,0.0,0.0,0.0,-3.0972,-3.1047,-3.1072,-3.1047,0.0,-2.9453,-2.8235,-2.8637,0.0,0.0,0.0,0.0,0.0,0.0,0.0,0.0,-3.0382,-3.0922,-3.1286,-3.1286,-3.1348,-3.1386,-3.1386,-3.1386,-3.1361,-3.1298,-3.1223,-3.1148,-3.1072,-3.0633,0.0,0.0,0.0,0.0,0.0,0.0,0.0,0.0,0.0,0.0,0.0,0.0,0.0,0.0,0.0,0.0,0.0,0.0,0.0,0.0,0.0,0.0,0.0,0.0,0.0,0.0,0.0,0.0,0.0,-1.4571,-1.53,-1.5504,-1.6497,-1.7477,0.0,0.0,0.0,0.0,0.0,0.0,0.0,0.0,0.0,-2.1279,-2.1309,-2.1631,-2.2295,-2.25,-2.2685,-2.2861,-2.3057,-2.3135,-2.3135,-2.3135,-2.3135,-2.3125,-2.2939,-2.2861,-2.2852,-2.2607,-2.251,-2.248,0.0,0.0,0.0,0.0,0.0,-2.2312,-2.2422,0.0,0.0,0.0,0.0,0.0,0.0,0.0,0.0,0.0,0.0,0.0,0.0,0.0,0.0,-3.1323,-3.1386,-3.1386,-3.1386,-3.0633,-2.993,0.0,-2.988,-2.9779,-2.9465,0.0,0.0,0.0,0.0,0.0,-3.1009,-3.1524,-3.1851,-3.1851,-3.2139,-3.234,-3.234,-3.234,-3.2202,-3.1876,-3.1851,-3.1712,-3.1399,-3.1173,-3.0796,0.0,0.0,0.0,0.0,0.0,0.0,0.0,0.0,0.0,0.0,0.0,0.0,0.0,0.0,0.0,0.0,0.0,0.0,0.0,0.0,0.0,0.0,0.0,0.0,0.0,0.0,0.0,0.0,-1.5786,-1.674,-1.6333,-1.7562,-1.8615,0.0,0.0,0.0,0.0,0.0,0.0,-2.0889,-2.0898,-2.1309,-2.2178,-2.2207,-2.251,-2.3135,-2.3135,-2.3135,-2.3135,-2.3135,-2.3135,-2.3144,-2.3252,-2.3301,-2.331,-2.3418,-2.3467,-2.3428,-2.2891,-2.2676,-2.2676,-2.2676,-2.249,-2.2227,-2.2334,-2.2373,-2.2467,-2.2904,-2.3801,-2.503,-2.6801,0.0,-2.9124,-3.0269,0.0,0.0,0.0,0.0,-3.047,-3.0746,-3.1022,-3.1348,-3.1725,-3.1813,-3.1813,-3.1813,-3.1813,-3.1662,0.0,-3.1022,-3.0896,-3.0482,0.0,0.0,0.0,0.0,-3.1386,-3.1763,-3.2177,-3.2441,-3.2441,-3.2817,-3.3081,-3.3081,-3.3081,-3.2893,-3.2466,-3.2441,-3.2252,-3.1838,-3.1813,-3.1574,-3.1035,0.0,0.0,0.0,0.0,0.0,0.0,0.0,0.0,0.0,0.0,0.0,0.0,0.0,0.0,0.0,0.0,0.0,0.0,0.0,0.0,0.0,0.0,0.0,0.0,0.0,0.0,0.0,0.0,0.0,-1.8797,-1.9561,0.0,0.0,0.0,0.0,-2.0566,-2.0557,-2.0928,-2.1777,-2.1816,-2.2207,-2.3047,-2.3076,-2.3096,-2.3135,-2.3135,-2.3135,-2.3135,-2.3135,-2.3135,-2.3154,-2.3574,-2.375,-2.3779,-2.418,-2.4355,-2.4287,-2.3457,-2.3105,-2.3105,-2.3105,-2.3105,-2.3144,-2.3545,-2.3691,-2.3919,-2.5544,-2.6136,-2.6601,-2.8893,-3.037,-3.1129,-3.0758,-3.0947,0.0,0.0,-3.0896,-3.1976,-3.1486,-3.2152,-3.2955,-3.298,-3.2993,-3.2993,-3.2993,-3.2993,-3.2817,0.0,-3.2127,-3.2127,-3.2089,0.0,-3.2729,-3.2215,-3.2604,-3.2968,-3.2993,-3.3018,-3.3031,-3.3031,-3.3056,-3.3081,-3.3081,-3.3081,-3.3068,-3.3031,-3.3031,-3.3018,-3.2993,-3.2993,-3.2717,-3.2139,-3.1625,0.0,0.0,0.0,0.0,0.0,0.0,0.0,0.0,0.0,0.0,0.0,0.0,0.0,0.0,0.0,0.0,0.0,0.0,0.0,0.0,0.0,0.0,0.0,0.0,0.0,0.0,0.0,0.0,-1.9452,-2.0333,0.0,0.0,-2.165,-2.1699,-2.1807,-2.207,-2.2363,-2.2676,-2.2695,-2.2832,-2.3125,-2.3135,-2.3135,-2.3135,-2.3418,-2.3555,-2.3555,-2.3828,-2.3965,-2.3965,-2.4121,-2.4199,-2.4199,-2.4355,-2.4414,-2.4394,-2.4082,-2.3965,-2.3965,-2.3965,-2.3965,-2.3984,-2.4141,-2.4199,-2.4392,-2.5771,-2.6262,-2.6751,-2.9456,-3.1296,-3.2441,-3.2252,-3.2328,-3.239,-3.2014,-3.2328,-3.2729,-3.2528,-3.278,-3.3081,-3.3081,-3.3081,-3.3081,-3.3081,-3.3081,-3.3018,-3.2805,-3.2767,-3.2767,-3.2767,-3.2943,-3.3006,-3.2805,-3.2943,-3.3081,-3.3081,-3.3081,-3.3081,-3.3081,-3.3081,-3.3081,-3.3081,-3.3081,-3.3081,-3.3081,-3.3081,-3.3081,-3.3081,-3.3081,-3.298,-3.2767,-3.2579,-3.2026,0.0,0.0,0.0,0.0,0.0,0.0,0.0,0.0,0.0,0.0,0.0,0.0,0.0,0.0,0.0,0.0,0.0,0.0,0.0,0.0,0.0,0.0,0.0,0.0,0.0,0.0,-2.0202,-2.0473,-2.1269,-2.1992,-2.2275,-2.2305,-2.2422,-2.2705,-2.2978,-2.3135,-2.3135,-2.3135,-2.3203,-2.335,-2.3359,-2.3428,-2.3564,-2.3857,-2.4004,-2.4004,-2.4287,-2.4414,-2.4424,-2.457,-2.4639,-2.4648,-2.4795,-2.4863,-2.4863,-2.4863,-2.4863,-2.4853,-2.4697,-2.4639,-2.4648,-2.4805,-2.4863,-2.5041,-2.6736,-2.7887,-2.8919,-3.0778,-3.2228,-3.3081,-3.3081,-3.3081,-3.3081,-3.3081,-3.3081,-3.3081,-3.3081,-3.3081,-3.3081,-3.3081,-3.3081,-3.3081,-3.3081,-3.3081,-3.3081,-3.3081,-3.3081,-3.3018,-3.2817,-3.278,-3.2717,-3.2528,-3.2516,-3.2516,-3.2516,-3.2667,-3.278,-3.278,-3.3271,-3.3641,-3.3641,-3.3449,-3.3579,-3.4082,-3.3604,-3.3423,-3.3628,-3.3436,-3.3178,-3.278,-3.2604,-3.2227,-3.1662,0.0,0.0,0.0,0.0,0.0,0.0,0.0,0.0,0.0,0.0,0.0,0.0,0.0,0.0,0.0,0.0,0.0,0.0,0.0,0.0,0.0,0.0,0.0,-1.9399,-2.0771,-2.1904,-2.1924,-2.2646,-2.3135,-2.3135,-2.3135,-2.3135,-2.3135,-2.3154,-2.3154,-2.3154,-2.3174,-2.3379,-2.3799,-2.3809,-2.4004,-2.4414,-2.4424,-2.4434,-2.4434,-2.4453,-2.4453,-2.4473,-2.4893,-2.5088,-2.5117,-2.5547,-2.5742,-2.5742,-2.5742,-2.5742,-2.5693,-2.5254,-2.5088,-2.5137,-2.5576,-2.5732,-2.6197,-2.8588,-3.1057,-3.3081,-3.3081,-3.3081,-3.3081,-3.3081,-3.3081,-3.3081,-3.3081,-3.3081,-3.3081,-3.3081,-3.3081,-3.3081,-3.3081,-3.3081,-3.3081,-3.3081,-3.3081,-3.3081,-3.3081,-3.3081,-3.2893,-3.234,-3.224,-3.2051,-3.1524,-3.1436,0.0,-3.1436,-3.1913,-3.2227,-3.2215,-3.3674,-3.4664,-3.4637,-3.4109,-3.4487,-3.6091,-3.4727,-3.4124,-3.4637,-3.4177,-3.3401,-3.2311,-3.177,-3.1757,-3.2286,0.0,0.0,0.0,0.0,0.0,0.0,0.0,0.0,0.0,0.0,0.0,0.0,0.0,0.0,0.0,0.0,0.0,0.0,0.0,0.0,0.0,0.0,-2.1783,-2.1226,-2.1826,-2.2451,-2.2754,-2.2998,-2.3135,-2.3135,-2.3135,-2.3135,-2.3135,-2.3437,-2.3613,-2.3613,-2.3896,-2.4121,-2.4238,-2.4248,-2.4297,-2.4414,-2.4727,-2.4893,-2.4893,-2.5215,-2.5371,-2.5381,-2.5498,-2.5557,-2.5557,-2.5684,-2.5742,-2.5742,-2.5742,-2.5742,-2.5723,-2.5605,-2.5557,-2.5566,-2.5693,-2.6839,-2.8495,-2.9131,-3.1057,-3.3081,-3.3081,-3.3081,-3.3081,-3.3081,-3.3081,-3.3081,-3.3081,-3.3081,-3.3081,-3.3081,-3.3081,-3.3081,-3.3081,-3.3081,-3.3081,-3.3081,-3.3081,-3.3081,-3.3081,-3.3081,-3.3031,-3.2867,-3.2842,-3.278,-3.2629,-3.2616,0.0,-3.2616,-3.2742,-3.2679,-3.2252,-3.2971,-3.3701,-3.4043,-3.4254,-3.4955,-3.6119,-3.5809,-3.5264,-3.4733,-3.5278,-3.5396,-3.509,-3.4603,-3.44,0.0,0.0,0.0,0.0,0.0,0.0,0.0,0.0,0.0,0.0,0.0,0.0,0.0,0.0,0.0,0.0,0.0,0.0,0.0,0.0,0.0,0.0,-2.207,-2.249,-2.2422,-2.2617,-2.2861,-2.3105,-2.3135,-2.3135,-2.3135,-2.3301,-2.3408,-2.3408,-2.3809,-2.4053,-2.4053,-2.4287,-2.4502,-2.4687,-2.4687,-2.4775,-2.4971,-2.5225,-2.5352,-2.5352,-2.5615,-2.5742,-2.5742,-2.5742,-2.5742,0.0,-2.5742,-2.5742,-2.5742,-2.5742,-2.5742,0.0,0.0,0.0,0.0,0.0,-2.7305,-2.9407,-2.9407,-3.1057,-3.3081,-3.3081,-3.3081,-3.3081,-3.3081,-3.3081,-3.3081,-3.3081,-3.3081,-3.3081,-3.3081,-3.3081,-3.3081,-3.3081,-3.3081,-3.3081,-3.3081,-3.3081,-3.3081,-3.3081,0.0,0.0,-3.3081,-3.288,-3.2641,-3.2403,-3.2365,-3.2533,-3.3008,-3.3283,-3.3449,-3.3509,-3.447,-3.5157,-3.5415,-3.5576,0.0,0.0,0.0,-3.6241,-3.5723,-3.5774,0.0,0.0,0.0,-3.5183,-3.5432,0.0,0.0,0.0,-3.363,-3.3194,0.0,0.0,0.0,0.0,0.0,0.0,0.0,0.0,0.0,0.0,0.0,0.0,0.0,0.0,0.0,0.0,-2.2305,-2.2715,-2.3086,-2.3184,-2.3193,-2.3144,-2.3184,-2.3213,-2.3213,-2.3603,-2.3857,-2.3857,-2.4258,-2.4492,-2.4492,0.0,0.0,0.0,0.0,-2.5332,-2.5732,-2.5742,-2.5742,-2.5742,-2.5742,-2.5742,-2.5742,-2.5742,-2.5742,-2.5742,-2.5742,-2.5742,-2.5742,-2.5742,-2.5742,-2.5742,-2.5742,-2.5742,-2.5742,-2.583,-2.7295,0.0,0.0,0.0,0.0,-3.3068,-3.3081,-3.3081,-3.3081,-3.3081,-3.3081,-3.3081,-3.3081,-3.3081,-3.3081,-3.3081,-3.3081,-3.3081,-3.3081,-3.3081,-3.3081,-3.3081,-3.3081,-3.3081,-3.3081,-3.3081,-3.3081,-3.2654,-3.2139,-3.165,-3.1587,-3.197,-3.3054,-3.3635,-3.4313,-3.5278,0.0,0.0,-3.7728,-3.7356,-3.7784,-3.9307,-3.793,-3.7155,-3.7243,-3.6217,-3.5509,-3.5116,-3.5102,-3.5381,-3.5837,-3.5837,-3.6499,-3.7724,-3.4763,-3.417,0.0,0.0,0.0,0.0,0.0,0.0,0.0,0.0,0.0,0.0,0.0,0.0,0.0,0.0,0.0,-2.2373,-2.2744,-2.3047,-2.3125,-2.3437,-2.3535,-2.3184,-2.3447,-2.3662,-2.3662,-2.4043,-2.4297,-2.4297,-2.4697,-2.4941,-2.4941,-2.5283,0.0,-2.5605,-2.5605,-2.5644,-2.5742,-2.5742,-2.5742,-2.5742,0.0,0.0,-2.5742,-2.5742,-2.5742,-2.5742,-2.5742,-2.5742,-2.5742,-2.5742,-2.5742,-2.5742,-2.5742,-2.5742,-2.583,-2.6849,-2.7494,-2.8226,-3.0226,-3.1134,-3.1777,-3.2797,-3.3081,-3.3081,-3.3081,-3.3081,0.0,-3.3081,-3.3081,-3.3081,-3.3081,-3.3081,-3.3081,-3.3081,-3.3081,-3.3081,-3.3081,-3.3081,-3.3081,-3.3081,-3.3081,-3.3081,-3.3081,-3.298,-3.2867,-3.2767,-3.2754,-3.3153,-3.4252,-3.4426,-3.4781,-3.5333,-3.61,-3.6655,-3.7123,-3.7425,-3.8177,-3.9337,-3.8281,-3.8044,-3.8911,-3.7895,-3.7673,-3.8486,-3.8486,-3.8545,-3.8605,-3.8605,-3.834,-3.7738,-3.6289,-3.617,0.0,0.0,0.0,0.0,0.0,0.0,0.0,0.0,0.0,0.0,0.0,-2.1709,0.0,0.0,-2.251,-2.251,-2.3047,-2.3467,-2.3467,-2.3838,-2.3945,-2.3516,-2.3838,-2.4102,-2.4102,-2.4492,-2.4746,-2.4746,-2.5146,-2.54,-2.54,-2.5615,-2.5742,-2.5742,-2.5742,-2.5742,-2.5742,-2.5742,-2.5742,-2.5742,-2.5742,-2.5742,-2.5742,-2.5742,-2.5742,-2.5742,-2.5742,-2.5742,-2.5742,-2.5742,-2.5742,-2.5742,-2.5742,-2.5742,-2.5732,-2.638,-2.703,-2.7861,-2.967,-3.0676,-3.1412,-3.2698,-3.3081,-3.3081,-3.3081,-3.3081,-3.3081,-3.3081,-3.3081,-3.3081,-3.3081,-3.3081,-3.3081,-3.3081,-3.3081,-3.3081,-3.3081,-3.3081,-3.3081,-3.3081,-3.3081,-3.3081,-3.3081,-3.3081,-3.3081,-3.3081,-3.3556,-3.4262,-3.5278,-3.5922,-3.6535,-3.7322,-3.7627,-3.7924,-3.8179,-3.8444,-3.8855,-3.9337,-3.887,-3.8855,-3.9352,-3.887,-3.887,-3.9424,-3.9424,-3.9424,-3.9424,-3.887,-3.862,-3.8546,-3.7496,-3.7266,0.0,0.0,0.0,0.0,0.0,0.0,0.0,0.0,-1.9488,-2.0507,-2.1503,-2.2129,-2.2129,-2.2471,-2.2764,-2.2764,-2.3408,-2.3906,-2.3906,-2.4277,-2.4414,-2.4082,-2.4336,-2.4541,-2.4541,-2.4941,-2.5195,-2.5195,-2.5527,-2.5742,-2.5742,-2.5742,-2.5742,-2.5742,-2.5742,-2.5742,-2.5742,-2.5742,-2.5742,-2.5742,-2.5742,-2.5742,-2.5742,-2.5742,-2.5742,-2.5742,-2.5742,-2.5742,-2.5742,-2.5742,-2.5742,-2.5732,-2.6014,-2.611,-2.611,-2.6284,-2.703,-2.8132,-2.959,-3.0586,-3.1412,-3.2698,-3.3081,-3.3081,-3.3081,-3.3081,-3.3081,-3.3081,-3.3081,-3.3081,-3.3081,-3.3081,-3.3081,-3.3081,-3.3081,-3.3081,-3.3081,-3.3081,-3.3081,-3.3081,-3.3081,-3.3081,-3.3081,-3.3081,-3.3081,-3.3081,-3.4037,-3.5047,-3.6053,-3.7175,-3.8234,-3.9265,-3.9424,-3.9424,-3.9424,-3.9424,-3.9424,-3.9424,-3.9424,-3.9424,-3.9424,-3.9424,-3.9424,-3.9424,-3.9424,-3.9424,-3.9424,-3.8546,-3.8546,-3.9352,-3.8546,-3.8069,-1.5186,-1.4543,-1.4824,-1.5906,-1.7118,-1.8535,0.0,0.0,-2.2188,-2.265,-2.2901,-2.2998,-2.2998,-2.3359,-2.3643,-2.3643,-2.4043,-2.4346,-2.4346,-2.4717,-2.498,-2.4932,-2.4971,-2.5,-2.5,-2.54,-2.5664,-2.5664,-2.5713,-2.5742,-2.5742,-2.5742,-2.5742,-2.5742,-2.5742,-2.5742,-2.5742,-2.5742,-2.5742,-2.5742,-2.5742,-2.5742,-2.5742,-2.5742,-2.5742,-2.5742,-2.5742,-2.5742,-2.5742,-2.5742,-2.5742,-2.583,-2.6945,-2.741,-2.7494,-2.8588,-2.9039,-2.9498,-3.1877,-3.2052,-3.1412,-3.2698,-3.3081,-3.3081,-3.3081,-3.3081,-3.3081,-3.3081,-3.3081,-3.3081,-3.3081,-3.3081,-3.3081,-3.3081,-3.3081,-3.3081,-3.3081,-3.3081,-3.3081,-3.3081,-3.3081,-3.3081,-3.3081,-3.3081,-3.3081,-3.3081,-3.4037,-3.5047,-3.6053,-3.7175,-3.8234,-3.9265,-3.9424,-3.9424,-3.9424,-3.9424,-3.9424,-3.9424,-3.9424,-3.9424,-3.9424,-3.9424,-3.9424,-3.9424,-3.9424,-3.9424,-3.9424,-3.9265,-3.9265,-3.9424,-3.9265,-3.9192,-1.6315,-1.6455,0.0,0.0,-1.8937,-1.9957,-2.0959,-2.1507,-2.2011,-2.2921,-2.334,-2.3516,-2.3516,-2.3867,-2.415,0.0,-2.4512,-2.4795,-2.4795,-2.5176,-2.5459,-2.5459,-2.5459,-2.5459,-2.5459,-2.5625,-2.5742,-2.5742,-2.5742,-2.5742,-2.5742,-2.5742,-2.5742,-2.5742,-2.5742,-2.5742,-2.5742,-2.5742,-2.5742,-2.5742,-2.5742,-2.5742,-2.5742,-2.5742,-2.5742,-2.5742,-2.5742,-2.5742,-2.5742,-2.5742,-2.5742,-2.583,-2.7125,-2.8049,-2.868,-2.9223,-2.9407,-2.9681,-3.1412,-3.1689,-3.1412,-3.2698,-3.3081,-3.3081,-3.3081,-3.3081,-3.3081,-3.3081,-3.3081,-3.3081,-3.3081,-3.3081,-3.3081,-3.3081,-3.3081,-3.3081,-3.3081,-3.3081,-3.3081,-3.3081,-3.3081,-3.3081,-3.3081,-3.3081,-3.3081,-3.3081,-3.4498,-3.5734,-3.6132,-3.7648,-3.887,-3.9337,-3.9424,-3.9424,-3.9424,-3.9424,-3.9424,-3.9424,-3.9424,-3.9424,-3.9424,-3.9424,-3.9424,-3.9424,-3.9424,-3.9424,-3.9424,-3.9424,-3.9424,-3.9424,-3.9424,-3.9424,-1.7026,0.0,0.0,-1.963,-2.0385,-2.1038,-2.1682,-2.1756,-2.2069,-2.3105,-2.3574,-2.3828,-2.3945,-2.4316,-2.459,-2.459,-2.4971,-2.5254,-2.5254,-2.5527,-2.5742,-2.5742,-2.5742,-2.5742,-2.5742,-2.5742,-2.5742,-2.5742,-2.5742,-2.5742,-2.5742,-2.5742,-2.5742,-2.5742,-2.5742,-2.5742,-2.5742,-2.5742,-2.5742,-2.5742,-2.5742,-2.5742,-2.5742,-2.5742,-2.5742,-2.5742,-2.5742,-2.5917,-2.6197,-2.6197,-2.638,-2.6839,-2.8132,-2.9131,-2.9954,-3.0316,-3.0406,-3.0598,-3.1412,-3.1677,-3.1877,-3.2797,-3.3081,-3.3081,-3.3081,-3.3081,-3.3081,-3.3081,-3.3081,-3.3081,-3.3081,-3.3081,-3.3081,-3.3081,-3.3081,-3.3081,-3.3081,-3.3081,-3.3081,-3.3081,-3.3081,-3.3081,-3.3081,-3.3081,-3.3081,-3.3081,-3.487,-3.6198,-3.6198,-3.8055,-3.9424,-3.9424,-3.9424,-3.9424,-3.9424,-3.9424,-3.9424,-3.9424,-3.9424,-3.9424,-3.9424,-3.9424,-3.9424,-3.9424,-3.9424,-3.9424,-3.9424,-3.9424,-3.9424,-3.9424,-3.9424,-3.9424,-1.6688,0.0,-1.8765,-2.0452,-2.1092,-2.156,-2.2775,-2.3047,-2.3164,-2.3682,-2.3779,-2.3916,-2.4316,-2.4756,-2.5049,-2.5049,-2.543,-2.5713,-2.5713,-2.5723,-2.5742,-2.5742,-2.5742,-2.5742,0.0,-2.5742,-2.5742,-2.5742,-2.5742,-2.5742,-2.5742,-2.5742,-2.5742,-2.5742,-2.5742,-2.5742,-2.5742,-2.5742,-2.5742,-2.5742,-2.5742,-2.5742,-2.5742,-2.5742,-2.5742,-2.5742,-2.5742,-2.638,-2.7494,-2.7494,-2.8226,-2.9407,-3.0586,-3.1122,-3.1311,-3.2513,-3.2982,-3.2982,-3.3068,-3.3068,-3.3081,-3.3081,-3.3081,-3.3081,-3.3081,-3.3081,-3.3081,-3.3081,-3.3081,-3.3081,-3.3081,-3.3081,-3.3081,-3.3081,-3.3081,-3.3081,-3.3081,-3.3081,-3.3081,-3.3081,-3.3081,-3.3081,-3.3081,-3.3081,-3.3081,-3.3081,-3.487,-3.6198,-3.6198,-3.8055,-3.9424,-3.9424,-3.9424,-3.9424,-3.9424,-3.9424,-3.9424,-3.9424,-3.9424,-3.9424,-3.9424,-3.9424,-3.9424,-3.9424,-3.9424,-3.9424,-3.9424,-3.9424,-3.9424,-3.9424,-3.9424,-3.9424,-1.9003,0.0,-2.0443,-2.2004,-2.2397,-2.2656,-2.3407,-2.3574,-2.3691,-2.4121,-2.4209,-2.4248,-2.4394,-2.4531,-2.4727,-2.5019,-2.5195,-2.54,-2.5693,-2.5742,-2.5742,-2.5742,-2.5742,0.0,0.0,0.0,0.0,-2.5742,-2.5742,-2.5742,-2.5742,-2.5742,-2.5742,-2.5742,-2.5742,-2.5742,-2.5742,-2.5742,-2.5742,-2.5742,-2.5742,-2.5742,-2.5742,-2.5742,-2.5742,-2.5732,-2.6572,-2.722,-2.7683,-2.8495,-2.9039,-2.9498,-3.0765,-3.1223,-3.1311,-3.2612,-3.3081,-3.3081,-3.3081,-3.3081,-3.3081,-3.3081,-3.3081,-3.3081,-3.3081,-3.3081,-3.3081,-3.3081,-3.3081,-3.3081,-3.3081,-3.3081,-3.3081,-3.3081,-3.3081,-3.3081,-3.3081,-3.3081,-3.3081,-3.3081,-3.3081,-3.3081,-3.3081,-3.3081,-3.3556,-3.4952,-3.5734,-3.6682,-3.813,-3.8929,-3.9424,-3.9424,-3.9424,-3.9424,-3.9424,-3.9424,-3.9424,-3.9424,-3.9424,-3.9424,-3.9424,-3.9424,-3.9424,-3.9424,-3.9424,-3.9424,-3.9424,-3.9424,-3.9649,-4.0068,-4.0068,-4.0307,-2.0303,-2.1158,-2.1701,-2.2853,-2.3262,-2.3447,-2.3721,-2.3906,-2.4092,-2.4365,-2.4414,-2.4414,-2.4414,-2.4414,-2.456,-2.5,-2.5068,-2.5225,-2.5674,-2.5742,-2.5742,-2.5742,-2.5742,-2.5742,0.0,0.0,0.0,-2.5742,-2.5742,-2.5742,-2.5742,-2.5742,-2.5742,-2.5742,-2.5742,-2.5742,-2.5742,-2.5742,-2.5742,-2.5742,-2.5742,-2.5742,-2.5742,-2.5742,-2.5742,-2.5732,-2.6572,-2.74,-2.8319,-2.9039,-2.9954,-3.0777,-3.1589,-3.1986,-3.2244,-3.3084,-3.3495,-3.3608,-3.3219,-3.3081,-3.3081,-3.3081,-3.3081,-3.3119,-3.3307,-3.337,-3.342,-3.3608,-3.3658,-3.3658,-3.3658,-3.352,-3.337,-3.337,-3.3219,-3.3081,-3.3081,-3.3081,-3.3081,-3.3081,-3.3081,-3.3081,-3.3081,-3.3398,-3.4262,-3.5974,-3.6526,-3.7405,-3.9177,-3.9424,-3.9424,-3.9424,-3.9424,-3.9424,-3.9424,-3.9424,-3.9424,-3.9424,-3.9424,-3.9424,-3.9424,-3.9424,-3.9529,-3.9768,-3.9768,-3.9888,-4.0113,-4.0113,-4.0337,-4.0756,-4.0756,-4.098,-2.0802,-2.173,-2.2637,-2.3037,-2.3467,-2.3799,-2.3818,-2.4131,-2.4424,-2.4443,-2.4414,-2.4385,0.0,0.0,-2.4531,-2.4961,-2.5059,-2.5225,-2.5674,-2.5742,-2.5742,0.0,0.0,0.0,0.0,0.0,0.0,-2.5742,0.0,-2.5742,-2.5742,-2.5742,-2.5742,-2.5742,-2.5742,-2.5742,-2.5742,-2.5742,-2.5742,-2.5742,-2.5742,-2.5742,-2.5742,-2.5742,-2.5742,-2.5742,-2.5732,-2.722,-2.9441,-2.9532,-3.1015,-3.3156,-3.3156,-3.3483,-3.3935,-3.3935,-3.4274,-3.4575,-3.352,-3.3156,-3.3156,-3.3156,-3.3156,-3.3257,-3.3784,-3.3935,-3.4048,-3.4575,-3.4726,-3.4726,-3.4726,-3.4336,-3.3935,-3.3935,-3.3545,-3.3156,-3.3156,-3.3156,-3.3156,-3.3131,-3.3093,-3.3081,-3.3081,-3.4024,-3.5129,-3.6053,-3.7175,-3.8234,-3.9265,-3.9424,-3.9424,-3.9424,-3.9424,-3.9424,-3.9424,-3.9424,-3.9424,-3.9424,-3.9454,-3.9469,-3.9469,-3.9499,-3.9813,-4.0442,-4.0442,-4.0756,-4.1384,-4.1384,-4.1399,-4.1429,-4.1429,-4.1444,-2.2197,-2.2708,-2.2998,-2.3105,-2.3467,-2.3867,-2.418,-2.4346,-2.4512,-2.4834,-2.4394,-2.3945,0.0,0.0,0.0,-2.4512,-2.4853,0.0,-2.5674,-2.5742,0.0,-2.5742,0.0,-2.5742,-2.5742,-2.5742,0.0,0.0,-2.5742,-2.5742,-2.5742,-2.5742,-2.5742,-2.5742,-2.5742,-2.5742,-2.5742,-2.5742,-2.5742,-2.5742,-2.5742,-2.5742,-2.5742,-2.5742,-2.5742,-2.5732,-2.6658,-2.8241,-3.0049,-3.0985,-3.2533,-3.4299,-3.4299,-3.4387,-3.4512,-3.4512,-3.46,-3.4675,-3.4399,-3.4299,-3.4299,-3.4299,-3.4299,-3.4324,-3.4462,-3.4512,-3.4537,-3.4675,-3.4726,-3.4726,-3.4726,-3.4613,-3.4512,-3.4512,-3.4399,-3.4299,-3.4299,-3.4299,-3.4173,-3.3771,-3.3357,-3.3081,-3.3081,-3.465,-3.5894,-3.6119,-3.78,-3.9104,-3.9337,-3.9424,-3.9424,-3.9424,-3.9424,-3.9424,-3.9424,-3.9424,-3.9424,-3.9424,-3.9888,-4.0157,-4.0157,-4.0621,-4.0965,-4.113,-4.113,-4.1205,-4.1384,-4.1384,-4.1639,-4.2117,-4.2117,-4.2372,-2.2843,-2.3135,-2.3184,-2.3379,-2.375,-2.4121,-2.4365,-2.456,-2.4668,-2.4531,-2.4131,0.0,-2.3789,0.0,0.0,0.0,0.0,0.0,-2.5674,-2.5742,-2.5742,0.0,-2.5742,0.0,-2.5742,-2.5742,-2.5742,0.0,-2.5742,-2.5742,-2.5742,-2.5742,-2.5742,-2.5742,-2.5742,-2.5742,-2.5742,-2.5742,-2.5742,-2.5742,-2.5742,-2.584,-2.6025,-2.6025,-2.6123,-2.6299,0.0,-2.8517,-3.0555,-3.132,-3.2831,-3.4726,-3.4726,-3.4864,-3.509,-3.509,-3.524,-3.5441,-3.5441,-3.5441,-3.5366,-3.4876,-3.4726,-3.4763,-3.5014,-3.509,-3.5127,-3.5378,-3.5441,-3.5441,-3.5441,-3.5265,-3.509,-3.509,-3.4901,-3.4726,-3.4726,-3.4726,-3.4625,-3.4324,-3.3822,-3.3432,-3.3432,-3.4974,-3.6198,-3.6198,-3.8055,-3.9424,-3.9424,-3.9424,-3.9424,-3.9424,-3.9424,-3.9424,-3.9424,-3.9694,-3.9843,-3.9843,-4.0472,-4.0831,-4.0831,-4.119,-4.1519,-4.1803,-4.1818,-4.1953,-4.2237,-4.2237,-4.2432,-4.2776,-4.2776,-4.2985,-2.3047,-2.3135,-2.3242,-2.3682,-2.4102,-2.4414,-2.4414,-2.4707,-2.4756,-2.3955,0.0,-2.3721,-2.3779,-2.3789,-2.4072,-2.4932,0.0,-2.5225,-2.5674,-2.5742,-2.5742,-2.5742,-2.5742,-2.5742,-2.5742,-2.5742,-2.5742,-2.5742,-2.5742,-2.5742,-2.5742,-2.5742,-2.5742,-2.5742,-2.5742,-2.5742,-2.5742,-2.5742,-2.5762,-2.582,-2.582,-2.6045,-2.6475,-2.6475,-2.667,-2.7012,0.0,0.0,-3.0793,-3.0879,-3.2465,-3.4653,-3.4848,-3.5228,-3.5655,-3.5655,-3.5956,-3.6358,-3.6358,-3.6358,-3.6207,-3.5253,-3.4939,-3.5027,-3.5504,-3.5655,-3.5755,-3.6219,-3.6358,-3.6358,-3.6358,-3.6006,-3.5655,-3.5655,-3.529,-3.4939,-3.4939,-3.4876,-3.4826,-3.4826,-3.4387,-3.4098,-3.4262,-3.5442,-3.6498,-3.6494,-3.826,-3.9514,-3.9424,-3.9424,-3.9424,-3.9424,-3.9499,-3.9544,-3.9544,-4.0157,-4.0531,-4.0531,-4.1145,-4.1504,-4.1504,-4.1594,-4.1908,-4.2476,-4.2491,-4.2776,-4.3329,-4.3329,-4.3329,-4.3329,-4.3329,-4.3329,-2.3125,-2.3135,-2.3242,-2.3682,-2.4102,-2.4414,-2.4414,-2.4473,0.0,0.0,-2.3506,-2.3359,-2.3721,-2.3789,-2.4072,-2.4932,0.0,0.0,0.0,0.0,-2.5742,0.0,0.0,0.0,0.0,0.0,0.0,0.0,0.0,0.0,-2.5742,-2.5742,-2.5742,-2.5742,-2.5742,-2.5742,-2.5742,-2.5742,-2.5918,-2.6279,-2.6279,-2.6504,-2.6904,-2.6904,-2.6943,-2.7012,0.0,0.0,-3.0013,-3.1097,-3.2718,-3.4607,-3.568,-3.6132,-3.6219,-3.6219,-3.6282,-3.6358,-3.6358,-3.6358,-3.6332,-3.6132,-3.6081,-3.6094,-3.6194,-3.6219,-3.6245,-3.6332,-3.6358,-3.6358,-3.6358,-3.6282,-3.6219,-3.6219,-3.6144,-3.6081,-3.6081,-3.5717,-3.5403,-3.5403,-3.4964,-3.492,-3.5913,-3.698,-3.781,-3.8275,-3.9413,-4.0038,-3.9484,-3.9424,-3.9424,-3.9424,-3.9903,-4.0232,-4.0232,-4.0831,-4.1205,-4.1205,-4.1833,-4.2192,-4.2192,-4.2716,-4.3045,-4.3165,-4.3165,-4.3225,-4.3329,-4.3329,-4.3329,-4.3329,-4.3329,-4.3329,-2.2871,-2.3135,-2.3584,-2.4014,-2.4443,-2.4697,-2.4473,0.0,0.0,0.0,-2.3291,-2.3271,-2.3711,-2.3789,0.0,-2.4629,0.0,0.0,0.0,0.0,0.0,0.0,0.0,0.0,0.0,0.0,0.0,0.0,0.0,0.0,-2.5742,-2.5742,-2.5742,-2.5742,-2.5742,-2.585,-2.6074,-2.6074,-2.6289,-2.6709,-2.6709,-2.6943,-2.7353,-2.7353,-2.7471,-2.7676,-2.7676,0.0,-3.0095,-3.1494,-3.2948,-3.4483,-3.587,-3.6358,-3.6358,-3.6358,-3.6358,-3.6358,-3.6358,-3.6358,-3.6358,-3.6358,-3.6358,-3.6358,-3.6358,-3.6358,-3.6358,-3.6358,-3.6358,-3.6358,-3.6358,-3.6358,-3.6358,-3.6358,-3.6358,-3.6358,-3.6358,-3.6157,-3.5968,-3.5968,-3.5529,-3.5322,-3.5917,-3.7096,-3.8131,-3.8408,-3.9828,-4.0786,-4.0487,-4.0442,-4.0307,-3.9963,-4.0516,-4.0905,-4.0905,-4.1504,-4.1893,-4.1893,-4.2506,-4.2865,-4.2865,-4.3165,-4.3329,-4.3329,-4.3329,-4.3329,-4.3329,-4.3329,-4.3329,-4.3329,-4.3329,-4.3329,-2.2715,-2.3203,-2.3896,-2.4316,-2.4746,-2.4951,-2.4521,-2.4414,0.0,-2.331,-2.3135,-2.3271,-2.3711,0.0,-2.3818,0.0,-2.4629,-2.4863,-2.5039,-2.5371,-2.5635,0.0,0.0,0.0,0.0,0.0,0.0,0.0,0.0,0.0,-2.5742,-2.5742,-2.5742,-2.5742,-2.583,-2.6045,-2.6387,-2.6484,-2.6738,-2.7158,-2.7158,-2.7383,-2.7803,-2.7803,-2.7978,-2.8291,-2.8291,0.0,0.0,-3.1633,-3.2955,-3.4068,-3.5763,-3.6358,-3.6358,-3.6358,-3.6358,-3.6358,-3.6358,-3.6358,-3.6358,-3.6358,-3.6358,-3.6358,-3.6358,-3.6358,-3.6358,-3.6358,-3.6358,-3.6358,-3.6358,-3.6358,-3.6358,-3.6358,-3.6358,-3.6358,-3.6358,-3.6358,-3.6358,-3.6358,-3.6019,-3.581,-3.597,-3.7166,-3.8169,-3.8269,-3.9996,-4.1198,-4.1065,-4.1337,-4.1384,-4.0876,-4.128,-4.1594,-4.1594,-4.2192,-4.2566,-4.2566,-4.3045,-4.3329,-4.3329,-4.3329,-4.3329,-4.3329,-4.3329,-4.3329,-4.3329,-4.3329,-4.3329,-4.3329,-4.3329,-4.3329,-2.2988,-2.3428,-2.3896,-2.4316,-2.4746,-2.4951,-2.4521,0.0,-2.417,-2.331,-2.3135,-2.3271,-2.3711,-2.3467,0.0,0.0,0.0,-2.418,-2.4961,-2.5098,-2.5283,-2.5684,0.0,0.0,0.0,0.0,0.0,0.0,0.0,0.0,0.0,-2.5742,-2.5742,-2.5742,-2.6123,-2.6348,-2.6387,-2.6768,-2.7178,-2.7607,-2.7607,-2.7832,-2.8232,-2.8232,-2.8262,-2.8291,0.0,0.0,0.0,-3.1224,-3.2331,-3.2744,-3.5355,-3.6358,-3.6358,-3.6358,-3.6358,-3.6358,-3.6358,-3.6358,-3.6358,-3.6358,-3.6358,-3.6358,-3.6358,-3.6358,-3.6358,-3.6358,-3.6358,-3.6358,-3.6358,-3.6358,-3.6358,-3.6358,-3.6358,-3.6358,-3.6358,-3.6358,-3.6358,-3.6358,-3.632,-3.6646,-3.7678,-3.7989,-3.8301,-3.8776,-3.9881,-4.0444,-3.9866,-4.1214,-4.2252,-4.2192,-4.2237,-4.2267,-4.2267,-4.2865,-4.324,-4.324,-4.3299,-4.3329,-4.3329,-4.3329,-4.3329,-4.3329,-4.3329,-4.3329,-4.3329,-4.3329,-4.3329,-4.3329,-4.3329,-4.3329,-2.2412,-2.3262,-2.4209,-2.4375,-2.4951,-2.5283,-2.458,0.0,-2.417,-2.331,-2.3135,-2.3193,-2.3359,-2.3262,-2.3252,-2.3594,-2.373,-2.3994,-2.459,-2.4902,-2.5234,-2.5684,0.0,0.0,0.0,0.0,0.0,0.0,0.0,0.0,0.0,-2.5742,-2.5859,-2.6123,-2.6299,-2.6641,-2.7158,-2.7324,-2.7617,-2.8047,-2.8047,-2.8135,-2.8291,-2.8291,-2.8291,-2.8291,0.0,0.0,0.0,-3.1224,-3.2331,-3.2532,-3.5355,-3.6358,-3.6358,-3.6358,-3.6358,-3.6358,-3.6358,-3.6358,-3.6358,-3.6358,-3.6358,-3.6358,-3.6358,-3.6358,-3.6358,-3.6358,-3.6358,-3.6358,-3.6358,-3.6358,-3.6358,-3.6358,-3.6358,-3.6358,-3.6358,-3.6358,-3.6358,-3.6358,-3.6358,-3.6534,-3.6977,-3.7678,-3.8209,-3.8403,-3.9412,-4.0041,-3.9789,-4.0986,-4.1909,-4.1909,-4.2515,-4.294,-4.294,-4.318,-4.3329,-4.3329,-4.3329,-4.3329,-4.3329,-4.3329,-4.3329,-4.3329,-4.3329,-4.3329,-4.3329,-4.3329,-4.3329,-4.3329,-4.3329,-4.3329,-2.208,-2.3125,-2.4258,-2.4385,-2.498,-2.5342,0.0,0.0,-2.4023,-2.3291,-2.3135,-2.3135,-2.3135,-2.3135,-2.3135,-2.3135,-2.3398,-2.374,-2.417,-2.46,-2.499,0.0,0.0,0.0,0.0,0.0,0.0,0.0,0.0,0.0,0.0,-2.5859,-2.6074,-2.6377,-2.6631,-2.706,-2.7656,-2.7793,-2.7998,-2.8291,-2.8291,-2.8291,-2.8291,-2.8291,-2.8291,-2.8291,0.0,0.0,0.0,-3.1224,-3.2331,-3.2532,-3.5355,-3.6358,-3.6358,-3.6358,-3.6358,-3.6358,-3.6358,-3.6358,-3.6358,-3.6358,-3.6358,-3.6358,-3.6358,-3.6358,-3.6358,-3.6358,-3.6358,-3.6358,-3.6358,-3.6358,-3.6358,-3.6358,-3.6358,-3.6358,-3.6358,-3.6358,-3.6358,-3.6358,-3.6358,-3.6358,-3.6358,-3.7057,-3.7586,-3.7586,-3.8649,-3.936,-3.936,-4.039,-4.1253,-4.1587,-4.229,-4.29,-4.325,-4.3329,-4.3329,-4.3329,-4.3329,-4.3329,-4.3329,-4.3329,-4.3329,-4.3329,-4.3329,-4.3329,-4.3329,-4.3329,-4.3329,-4.3329,-4.3329,-4.3329,-2.2275,-2.3144,-2.3896,-2.4316,-2.4746,-2.4961,0.0,-2.4092,-2.3672,-2.3232,-2.3135,-2.3135,-2.3135,-2.3135,-2.3135,-2.3135,-2.3144,-2.3301,-2.374,-2.416,0.0,0.0,0.0,0.0,0.0,0.0,0.0,0.0,0.0,0.0,0.0,-2.6143,-2.6387,-2.6387,-2.7217,-2.7656,-2.7666,-2.8076,-2.8291,-2.8291,-2.8291,-2.8291,-2.8291,-2.8291,-2.8291,0.0,0.0,0.0,0.0,-3.1224,-3.2331,-3.2532,-3.5355,-3.6358,-3.6358,-3.6358,-3.6358,-3.6358,-3.6358,-3.6358,-3.6358,-3.6358,-3.6358,-3.6358,-3.6358,-3.6358,-3.6358,-3.6358,-3.6358,-3.6358,-3.6358,-3.6358,-3.6358,-3.6358,-3.6358,-3.6358,-3.6358,-3.6358,-3.6358,-3.6358,-3.6358,-3.6358,-3.6358,-3.6452,-3.6452,-3.6452,-3.7415,-3.8107,-3.8107,-3.9183,-4.0318,-4.1504,-4.1587,-4.2111,-4.317,-4.3329,-4.3329,-4.3329,-4.3329,-4.3329,-4.3329,-4.3329,-4.3329,-4.3329,-4.3329,-4.3329,-4.3329,-4.3329,-4.3329,-4.3329,-4.3329,-4.3329,-2.1562,-2.2471,-2.3379,-2.3525,-2.4092,-2.4512,-2.4092,-2.3887,-2.3662,-2.3232,-2.3135,-2.3135,-2.3135,-2.3135,-2.3135,-2.3135,-2.3135,-2.3291,0.0,0.0,0.0,0.0,0.0,0.0,0.0,0.0,0.0,0.0,0.0,0.0,0.0,-2.6426,-2.6816,-2.6816,-2.7363,-2.7803,-2.8096,-2.8223,-2.8291,-2.8291,-2.8291,-2.8291,-2.8291,-2.8291,0.0,0.0,0.0,0.0,0.0,-3.0224,-3.1429,-3.2431,-3.4362,-3.5571,-3.6358,-3.6358,-3.6358,-3.6358,-3.6358,-3.6358,-3.6358,-3.6358,-3.6358,-3.6358,-3.6358,-3.6358,-3.6358,-3.6358,-3.6358,-3.6358,-3.6358,-3.6358,-3.6358,-3.6358,-3.6358,-3.6358,-3.6358,-3.6358,-3.6358,-3.6358,-3.6358,-3.6358,-3.6358,-3.6358,-3.6358,-3.6358,-3.6709,-3.6977,-3.6977,-3.8662,-4.0073,-4.0404,-4.1864,-4.29,-4.325,-4.3329,-4.3329,-4.3329,-4.3329,-4.3329,-4.3329,-4.3329,-4.3329,-4.3329,-4.3329,-4.3329,-4.3329,-4.3329,-4.3329,-4.3329,-4.3329,-4.3329,-2.1191,-2.2051,-2.2939,-2.3115,-2.3672,0.0,-2.3848,-2.3662,-2.3467,-2.3193,-2.3135,-2.3135,-2.3135,-2.3135,-2.3135,-2.3135,-2.3135,-2.3232,0.0,0.0,0.0,0.0,0.0,0.0,0.0,0.0,0.0,0.0,0.0,0.0,0.0,0.0,-2.7012,-2.7012,-2.7598,-2.8027,-2.8291,-2.8291,-2.8291,-2.8291,-2.8291,-2.8291,-2.8291,-2.8291,0.0,0.0,0.0,0.0,0.0,-2.9713,-3.0824,-3.1724,-3.3055,-3.4459,-3.5667,-3.5667,-3.5966,-3.6358,-3.6358,-3.6358,-3.6358,-3.6358,-3.6358,-3.6358,-3.6358,-3.6358,-3.6358,-3.6358,-3.6358,-3.6358,-3.6358,-3.6358,-3.6358,-3.6358,-3.6358,-3.6358,-3.6358,-3.6358,-3.6358,-3.6358,-3.6358,-3.6358,-3.6358,-3.6358,-3.6358,-3.6358,-3.6358,-3.6358,-3.6358,-3.8043,-3.9373,-3.9812,-4.1518,-4.282,-4.325,-4.3329,-4.3329,-4.3329,-4.3329,-4.3329,-4.3329,-4.3329,-4.3329,-4.3329,-4.3329,-4.3329,-4.3329,-4.3329,-4.3329,-4.3329,-4.3329,-4.3329,0.0,-2.1836,-2.2568,-2.2949,-2.3398,-2.374,-2.374,-2.3428,0.0,-2.3135,-2.3135,-2.3135,-2.3135,-2.3135,-2.3135,-2.3135,-2.3135,0.0,0.0,0.0,0.0,0.0,0.0,0.0,0.0,0.0,0.0,0.0,0.0,0.0,0.0,0.0,-2.7012,-2.7012,-2.7851,-2.8291,-2.8291,-2.8291,-2.8291,-2.8291,-2.8291,-2.8291,-2.8291,-2.8291,0.0,0.0,0.0,0.0,0.0,-2.9608,-3.0214,-3.0411,-3.1622,-3.3055,-3.4276,-3.4276,-3.5078,-3.6263,-3.6263,-3.6358,-3.6358,-3.6358,-3.6358,-3.6358,-3.6358,-3.6358,-3.6358,-3.6358,-3.6358,-3.6358,-3.6358,-3.6358,-3.6358,-3.6358,-3.6358,-3.6358,-3.6358,-3.6358,-3.6358,-3.6358,-3.6358,-3.6358,-3.6358,-3.6358,-3.6358,-3.6358,-3.6358,-3.6358,-3.6358,-3.7415,-3.8559,-3.9812,-4.0916,-4.2029,-4.317,-4.3329,-4.3329,-4.3329,-4.3329,-4.3329,-4.3329,-4.3329,-4.3329,-4.3329,-4.3329,-4.3329,-4.3329,-4.3329,-4.3329,-4.3329,-4.3329,-4.3329,-2.1113,0.0,-2.206,-2.2158,-2.2744,-2.3291,0.0,0.0,0.0,0.0,0.0,0.0,0.0,0.0,-2.3135,0.0,0.0,0.0,0.0,0.0,0.0,0.0,0.0,0.0,0.0,0.0,0.0,0.0,0.0,0.0,0.0,0.0,-2.7012,-2.7012,-2.7851,-2.8291,-2.8291,-2.8291,-2.8291,-2.8291,-2.8291,-2.8291,-2.8291,-2.8291,0.0,0.0,0.0,0.0,-2.8291,-2.8591,-2.9408,-3.0317,-3.0618,-3.1633,-3.2744,-3.2744,-3.3662,-3.4884,-3.4884,-3.5571,-3.6358,-3.6358,-3.6358,-3.6358,-3.6358,-3.6358,-3.6358,-3.6358,-3.6358,-3.6358,-3.6358,-3.6358,-3.6358,-3.6358,-3.6358,-3.6358,-3.6358,-3.6358,-3.6358,-3.6358,-3.6358,-3.6358,-3.6358,-3.6358,-3.6358,-3.6358,-3.6358,-3.6358,-3.6358,-3.7415,-3.8559,-3.9812,-4.0916,-4.2029,-4.317,-4.3329,-4.3329,-4.3329,-4.3329,-4.3329,-4.3329,-4.3329,-4.3329,-4.3329,-4.3329,-4.3329,-4.3329,-4.3329,-4.3329,-4.3329,-4.3329,-4.3329,-2.1113,-2.1553,-2.1934,-2.2129,-2.2656,-2.3135,-2.3135,-2.3135,0.0,0.0,0.0,0.0,0.0,0.0,0.0,0.0,0.0,0.0,0.0,0.0,0.0,0.0,0.0,0.0,0.0,0.0,0.0,0.0,0.0,0.0,0.0,0.0,-2.7012,-2.7012,-2.7851,-2.8291,-2.8291,-2.8291,-2.8291,-2.8291,-2.8291,-2.8291,-2.8291,-2.8291,0.0,0.0,0.0,0.0,-2.8291,-2.8291,-2.8698,-2.9408,-2.9408,-3.0214,-3.1429,-3.1429,-3.2241,-3.3563,-3.4178,-3.5271,-3.6358,-3.6358,-3.6358,-3.6358,-3.6358,-3.6358,-3.6358,-3.6358,-3.6358,-3.6358,-3.6358,-3.6358,-3.6358,-3.6358,-3.6358,-3.6358,-3.6358,-3.6358,-3.6358,-3.6358,-3.6358,-3.6358,-3.6358,-3.6358,-3.6358,-3.6358,-3.6358,-3.6358,-3.6358,-3.7415,-3.8559,-3.9812,-4.0916,-4.2029,-4.317,-4.3329,-4.3329,-4.3329,-4.3329,-4.3329,-4.3329,-4.3329,-4.3329,-4.3329,-4.3329,-4.3329,-4.3329,-4.3329,-4.3329,-4.3329,-4.3329,-4.3329,-2.1191,-2.1602,-2.1992,-2.2412,-2.2822,-2.3135,-2.3135,-2.3135,0.0,0.0,0.0,0.0,0.0,0.0,0.0,0.0,0.0,0.0,0.0,0.0,0.0,0.0,0.0,0.0,0.0,0.0,0.0,0.0,0.0,0.0,0.0,0.0,0.0,-2.7012,-2.7851,-2.8291,-2.8291,-2.8291,-2.8291,-2.8291,-2.8291,-2.8291,-2.8291,-2.8291,-2.8291,0.0,0.0,0.0,-2.8291,-2.8291,-2.8291,-2.8291,-2.8291,-2.8996,-3.0016,-3.0016,-3.0824,-3.2241,-3.3871,-3.5271,-3.6358,-3.6358,-3.6358,-3.6358,-3.6358,-3.6358,-3.6358,-3.6358,-3.6358,-3.6358,-3.6358,-3.6358,-3.6358,-3.6358,-3.6358,-3.6358,-3.6358,-3.6358,-3.6358,-3.6358,-3.6358,-3.6358,-3.6358,-3.6358,-3.6358,-3.6358,-3.6358,-3.6358,-3.6358,-3.7243,-3.8289,-3.9536,-4.0476,-4.1587,-4.29,-4.3076,-4.3076,-4.325,-4.3329,-4.3329,-4.3329,-4.3329,-4.3329,-4.3329,-4.3329,-4.3329,-4.3329,-4.3329,-4.3329,-4.3329,-4.3329,-4.3329,-2.1562,-2.1836,-2.1992,-2.2412,-2.2822,-2.3135,-2.3135,-2.3135,-2.3135,0.0,0.0,0.0,0.0,0.0,0.0,0.0,0.0,0.0,0.0,0.0,0.0,0.0,0.0,0.0,0.0,0.0,0.0,0.0,0.0,0.0,0.0,0.0,0.0,-2.7012,-2.7851,-2.8291,-2.8291,-2.8291,-2.8291,-2.8291,-2.8291,-2.8291,-2.8291,-2.8291,-2.8291,0.0,0.0,-2.8291,-2.8291,-2.8291,-2.8291,-2.8291,-2.8291,-2.8398,-2.8601,-2.8601,-2.9513,-3.0927,-3.3563,-3.5271,-3.6358,-3.6358,-3.6358,-3.6358,-3.6358,-3.6358,-3.6358,-3.6358,-3.6358,-3.6358,-3.6358,-3.6358,-3.6358,-3.6358,-3.6358,-3.6358,-3.6358,-3.6358,-3.6358,-3.6358,-3.6358,-3.6358,-3.6358,-3.6358,-3.6358,-3.6358,-3.6358,-3.6358,-3.6358,-3.6534,-3.7057,-3.8289,-3.8545,-3.9508,-4.167,-4.185,-4.229,-4.325,-4.3329,-4.3329,-4.3329,-4.3329,-4.3329,-4.3329,-4.3329,-4.3329,-4.3329,-4.3329,-4.3329,-4.3329,-4.3329,-4.3329,-2.1641,-2.1885,-2.21,-2.2978,-2.3164,-2.3135,-2.3135,-2.3135,0.0,0.0,0.0,0.0,0.0,0.0,0.0,0.0,0.0,0.0,0.0,0.0,0.0,0.0,0.0,0.0,0.0,0.0,0.0,0.0,0.0,0.0,0.0,0.0,0.0,0.0,-2.7851,-2.8291,-2.8291,-2.8291,-2.8291,-2.8291,-2.8291,-2.8291,-2.8291,-2.8291,-2.8291,-2.8291,0.0,-2.8291,-2.8291,-2.8291,-2.8291,-2.8291,-2.8291,-2.8291,-2.8291,-2.8291,-2.9102,-3.0525,-3.1735,-3.3563,-3.5271,-3.5271,-3.5763,-3.6358,-3.6358,-3.6358,-3.6358,-3.6358,-3.6358,-3.6358,-3.6358,-3.6358,-3.6358,-3.6358,-3.6358,-3.6358,-3.6358,-3.6358,-3.6358,-3.6358,-3.6358,-3.6358,-3.6358,-3.6358,-3.6358,-3.6358,-3.6358,-3.6358,-3.6358,-3.6358,-3.6803,-3.803,-3.8649,-3.9784,-4.142,-4.2193,-4.2725,-4.325,-4.3329,-4.3329,-4.3329,-4.3329,-4.3329,-4.3329,-4.3329,-4.3329,-4.3329,-4.3329,-4.3329,-4.3329,-4.3329,-4.3329,-2.1641,-2.1885,-2.2168,-2.334,-2.3467,-2.332,-2.3418,-2.3437,0.0,0.0,0.0,0.0,0.0,0.0,0.0,0.0,0.0,0.0,0.0,0.0,0.0,0.0,0.0,0.0,0.0,0.0,0.0,0.0,0.0,0.0,0.0,0.0,0.0,0.0,-2.7744,-2.8193,-2.8291,-2.8291,-2.8291,-2.8291,-2.8291,-2.8291,-2.8291,-2.8291,-2.8291,-2.8291,-2.8291,-2.8291,-2.8291,-2.8291,-2.8291,-2.8291,-2.8291,-2.8291,-2.8291,-2.8291,-2.9102,-3.0317,-3.0317,-3.2151,-3.4385,-3.4385,-3.5271,-3.6358,-3.6358,-3.6358,-3.6358,-3.6358,-3.6358,-3.6358,-3.6358,-3.6358,-3.6358,-3.6358,-3.6358,-3.6358,-3.6358,-3.6358,-3.6358,-3.6358,-3.6358,-3.6358,-3.6358,-3.6358,-3.6358,-3.6358,-3.6358,-3.6358,-3.6358,-3.6358,-3.6709,-3.7586,-3.8572,-3.9623,-4.1085,-4.2467,-4.3329,-4.3329,-4.3329,-4.3329,-4.3329,-4.3329,-4.3329,-4.3329,-4.3329,-4.3329,-4.3329,-4.3329,-4.3329,-4.3329,-4.3329,-4.3329,-2.1641,-2.1885,-2.21,-2.2969,-2.3467,-2.3848,-2.4238,-2.4326,0.0,-2.4326,0.0,0.0,0.0,0.0,0.0,0.0,0.0,0.0,0.0,0.0,0.0,0.0,0.0,0.0,0.0,0.0,0.0,0.0,0.0,0.0,0.0,0.0,0.0,0.0,0.0,-2.79,-2.8291,-2.8291,-2.8291,-2.8291,-2.8291,-2.8291,-2.8291,-2.8291,-2.8291,-2.8291,-2.8291,-2.8291,-2.8291,-2.8291,-2.8291,-2.8291,-2.8291,-2.8291,-2.8291,-2.8291,-2.9102,-3.0317,-3.0317,-3.2151,-3.4385,-3.4385,-3.5271,-3.6358,-3.6358,-3.6358,-3.6358,-3.6358,-3.6358,-3.6358,-3.6358,-3.6358,-3.6358,-3.6358,-3.6358,-3.6358,-3.6358,-3.6358,-3.6358,-3.6358,-3.6358,-3.6358,-3.6358,-3.6358,-3.6358,-3.6358,-3.6358,-3.6358,-3.6358,-3.6358,-3.6452,-3.6546,-3.6628,-3.7599,-3.9812,-4.2044,-4.3329,-4.3329,-4.3329,-4.3329,-4.3329,-4.3329,-4.3329,-4.3329,-4.3329,-4.3329,-4.3329,-4.3329,-4.3329,-4.3329,-4.3329,-4.3329,-2.1641,-2.207,-2.2549,-2.3652,-2.4062,0.0,0.0,-2.4228,-2.4414,-2.4414,-2.4414,0.0,0.0,0.0,0.0,0.0,0.0,0.0,0.0,0.0,0.0,0.0,0.0,0.0,0.0,0.0,0.0,0.0,0.0,0.0,0.0,0.0,0.0,0.0,0.0,-2.7861,-2.8291,-2.8291,-2.8291,-2.8291,-2.8291,-2.8291,-2.8291,-2.8291,-2.8291,-2.8291,-2.8291,-2.8291,-2.8291,-2.8291,-2.8291,-2.8291,-2.8291,-2.8291,-2.8291,-2.8291,-2.8601,-2.9112,-2.9112,-3.0824,-3.3055,-3.3055,-3.4557,-3.6358,-3.6358,-3.6358,-3.6358,-3.6358,-3.6358,-3.6358,-3.6358,-3.6358,-3.6358,-3.6358,-3.6358,-3.6358,-3.6358,-3.6358,-3.6358,-3.6358,-3.6358,-3.6358,-3.6358,-3.6358,-3.6358,-3.6358,-3.6358,-3.6358,-3.6358,-3.6358,-3.6358,-3.6358,-3.7691,-3.9183,-4.0831,-4.2386,-4.3329,-4.3329,-4.3329,-4.3329,-4.3329,-4.3329,-4.3329,-4.3329,-4.3329,-4.3329,-4.3329,-4.3329,-4.3329,-4.3329,-4.3329,-4.3329,-2.1689,-2.2295,-2.2949,-2.3965,0.0,0.0,-2.4258,-2.4307,-2.4453,-2.459,-2.4736,0.0,0.0,0.0,0.0,0.0,0.0,0.0,0.0,0.0,0.0,0.0,0.0,0.0,0.0,0.0,0.0,0.0,0.0,0.0,0.0,0.0,0.0,0.0,0.0,-2.7666,-2.8096,-2.8223,-2.8291,-2.8291,-2.8291,-2.8291,-2.8291,-2.8291,-2.8291,-2.8291,-2.8291,-2.8291,-2.8291,-2.8291,-2.8291,-2.8291,-2.8291,-2.8291,-2.8291,-2.8291,-2.8291,-2.8398,-2.8804,-3.0421,-3.2331,-3.2844,-3.4545,-3.6358,-3.6358,-3.6358,-3.6358,-3.6358,-3.6358,-3.6358,-3.6358,-3.6358,-3.6358,-3.6358,-3.6358,-3.6358,-3.6358,-3.6358,-3.6358,-3.6358,-3.6358,-3.6358,-3.6358,-3.6358,-3.6358,-3.6358,-3.6358,-3.6358,-3.6358,-3.6358,-3.6358,-3.6358,-3.8482,-4.0246,-4.1,-4.2467,-4.3329,-4.3329,-4.3329,-4.3329,-4.3329,-4.3329,-4.3329,-4.3329,-4.3329,-4.3329,-4.3329,-4.3329,-4.3329,-4.3329,-4.3329,-4.3329,-2.1777,-2.251,-2.3262,0.0,0.0,0.0,-2.5068,-2.4727,-2.4551,-2.4971,0.0,0.0,0.0,0.0,0.0,0.0,0.0,0.0,0.0,0.0,0.0,0.0,0.0,0.0,0.0,0.0,0.0,0.0,0.0,0.0,0.0,0.0,0.0,0.0,0.0,-2.7217,-2.7666,-2.8076,-2.8291,-2.8291,-2.8291,-2.8291,-2.8291,-2.8291,-2.8291,-2.8291,-2.8291,-2.8291,-2.8291,-2.8291,-2.8291,-2.8291,-2.8291,-2.8291,-2.8291,-2.8291,-2.8291,-2.8495,-2.9817,-3.1122,-3.2543,-3.397,-3.5271,-3.6358,-3.6358,-3.6358,-3.6358,-3.6358,-3.6358,-3.6358,-3.6358,-3.6358,-3.6358,-3.6358,-3.6358,-3.6358,-3.6358,-3.6358,-3.6358,-3.6358,-3.6358,-3.6358,-3.6358,-3.6358,-3.6358,-3.6358,-3.6358,-3.6358,-3.6358,-3.6358,-3.6358,-3.6358,-3.8482,-3.9899,-3.9899,-4.1961,-4.325,-4.3329,-4.3329,-4.3329,-4.3329,-4.3329,-4.3329,-4.3329,-4.3329,-4.3329,-4.3329,-4.3329,-4.3329,-4.3329,-4.3329,-4.3329,-2.2207,-2.3164,0.0,0.0,0.0,0.0,0.0,-2.4971,0.0,0.0,0.0,0.0,0.0,0.0,0.0,0.0,0.0,0.0,0.0,0.0,0.0,0.0,0.0,0.0,0.0,0.0,0.0,0.0,0.0,0.0,0.0,0.0,0.0,0.0,-2.6514,-2.6924,-2.7656,-2.7793,-2.7998,-2.8291,-2.8291,-2.8291,-2.8291,-2.8291,-2.8291,-2.8291,-2.8291,-2.8291,-2.8291,-2.8291,-2.8291,-2.8291,-2.8291,-2.8291,-2.8291,-2.8291,-2.8291,-2.8398,-2.8804,-3.0421,-3.2331,-3.2744,-3.4447,-3.6358,-3.6358,-3.6358,-3.6358,-3.6358,-3.6358,-3.6358,-3.6358,-3.6358,-3.6358,-3.6358,-3.6358,-3.6358,-3.6358,-3.6358,-3.6358,-3.6358,-3.6358,-3.6358,-3.6358,-3.6358,-3.6358,-3.6358,-3.6358,-3.6358,-3.6358,-3.6358,-3.6358,-3.6358,-3.7769,-3.9006,-3.9812,-4.1253,-4.2467,-4.325,-4.3329,-4.3329,-4.3329,-4.3329,-4.3329,-4.3329,-4.3329,-4.3329,-4.3329,-4.3329,-4.3329,-4.3329,-4.3329,-4.3329,-2.2441,0.0,0.0,0.0,0.0,0.0,0.0,0.0,0.0,0.0,0.0,0.0,0.0,0.0,0.0,0.0,0.0,0.0,0.0,0.0,0.0,0.0,0.0,0.0,0.0,0.0,0.0,0.0,0.0,0.0,0.0,0.0,0.0,0.0,-2.6299,-2.6641,-2.7158,-2.75,-2.7793,-2.8047,-2.8213,-2.8291,-2.8291,-2.8291,-2.8291,-2.8291,-2.8291,-2.8291,-2.8291,-2.8291,-2.8291,-2.8291,-2.8291,-2.8291,-2.8291,-2.8291,-2.8291,-2.8495,-2.9513,-3.0927,-3.2431,-3.354,-3.5054,-3.6358,-3.6358,-3.6358,-3.6358,-3.6358,-3.6358,-3.6358,-3.6358,-3.6358,-3.6358,-3.6358,-3.6358,-3.6358,-3.6358,-3.6358,-3.6358,-3.6358,-3.6358,-3.6358,-3.6358,-3.6358,-3.6358,-3.6358,-3.6358,-3.6358,-3.6358,-3.6358,-3.6358,-3.6358,-3.7415,-3.8559,-3.9812,-4.0916,-4.2111,-4.325,-4.3329,-4.3329,-4.3329,-4.3329,-4.3329,-4.3329,-4.3329,-4.3329,-4.3329,-4.3329,-4.3329,-4.3329,-4.3329,-4.3329,-2.2559,0.0,0.0,0.0,0.0,0.0,0.0,0.0,0.0,0.0,0.0,0.0,0.0,0.0,0.0,0.0,0.0,0.0,0.0,0.0,0.0,0.0,0.0,0.0,0.0,0.0,0.0,0.0,0.0,0.0,0.0,0.0,0.0,0.0,-2.6123,-2.6348,-2.6387,-2.7158,-2.7568,0.0,-2.8037,-2.8232,-2.8232,-2.8271,-2.8291,-2.8291,-2.8291,-2.8291,-2.8291,-2.8291,-2.8291,-2.8291,-2.8291,-2.8291,-2.8291,-2.8291,-2.8291,-2.8601,-3.1122,-3.2129,-3.2733,-3.5246,-3.6156,-3.6358,-3.6358,-3.6358,-3.6358,-3.6358,-3.6358,-3.6358,-3.6358,-3.6358,-3.6358,-3.6358,-3.6358,-3.6358,-3.6358,-3.6358,-3.6358,-3.6358,-3.6358,-3.6358,-3.6358,-3.6358,-3.6358,-3.6358,-3.6358,-3.6358,-3.6358,-3.6358,-3.6358,-3.6358,-3.7322,-3.8469,-3.9623,-4.0831,-4.1947,-4.3076,-4.325,-4.3329,-4.3329,-4.3329,-4.3329,-4.3329,-4.3329,-4.3329,-4.3329,-4.3329,-4.3329,-4.3329,-4.3329,-4.3329,0.0,-2.4023,0.0,0.0,0.0,0.0,0.0,0.0,0.0,0.0,0.0,0.0,0.0,0.0,0.0,0.0,0.0,0.0,0.0,0.0,0.0,0.0,0.0,0.0,0.0,0.0,0.0,0.0,0.0,0.0,0.0,0.0,0.0,-2.5742,-2.583,-2.6045,-2.6387,-2.6572,-2.6826,0.0,-2.7588,-2.7803,-2.7812,-2.8144,-2.8291,-2.8291,-2.8291,-2.8291,-2.8291,-2.8291,-2.8291,-2.8291,-2.8291,-2.8291,-2.8291,-2.8291,-2.8291,-2.8398,-2.9006,-3.0514,-3.2431,-3.3032,-3.4642,-3.6358,-3.6358,-3.6358,-3.6358,-3.6358,-3.6358,-3.6358,-3.6358,-3.6358,-3.6358,-3.6358,-3.6358,-3.6358,-3.6358,-3.6358,-3.6358,-3.6358,-3.6358,-3.6358,-3.6358,-3.6358,-3.6358,-3.6358,-3.6358,-3.6358,-3.6358,-3.6358,-3.6358,-3.6358,-3.6628,-3.7243,-3.8379,-3.9623,-4.0746,-4.185,-4.2805,-4.3329,-4.3329,-4.3329,-4.3329,-4.3329,-4.3329,-4.3329,-4.3329,-4.3329,-4.3329,-4.3329,-4.3329,-4.3329,0.0,0.0,0.0,0.0,0.0,0.0,0.0,0.0,0.0,0.0,0.0,0.0,0.0,0.0,0.0,0.0,0.0,0.0,0.0,0.0,0.0,0.0,0.0,0.0,0.0,0.0,0.0,0.0,0.0,0.0,0.0,-2.5742,-2.5742,-2.5742,-2.5742,-2.585,-2.6074,-2.6279,-2.6494,-2.6719,-2.7148,-2.7461,-2.7685,-2.8096,-2.8291,-2.8291,-2.8291,-2.8291,-2.8291,-2.8291,-2.8291,-2.8291,-2.8291,-2.8291,-2.8291,-2.8291,-2.8291,-2.8398,-2.9006,-3.0214,-3.1531,-3.2855,-3.4264,-3.5571,-3.6168,-3.6358,-3.6358,-3.6358,-3.6358,-3.6358,-3.6358,-3.6358,-3.6358,-3.6358,-3.6358,-3.6358,-3.6358,-3.6358,-3.6358,-3.6358,-3.6358,-3.6358,-3.6358,-3.6358,-3.6358,-3.6358,-3.6358,-3.6358,-3.6358,-3.6358,-3.6358,-3.6358,-3.6358,-3.6896,-3.803,-3.8649,-3.9784,-4.1504,-4.2193,-4.2725,-4.325,-4.3329,-4.3329,-4.3329,-4.3329,-4.3329,-4.3329,-4.3329,-4.3329,-4.3329,-4.3329,-4.3329,0.0,0.0,0.0,0.0,0.0,0.0,0.0,0.0,0.0,0.0,0.0,0.0,0.0,0.0,0.0,0.0,0.0,0.0,0.0,0.0,0.0,0.0,0.0,0.0,0.0,0.0,0.0,0.0,0.0,0.0,-2.5742,-2.5742,-2.5742,-2.5742,-2.5742,-2.5742,-2.5742,-2.6103,-2.6279,-2.6279,-2.6709,-2.7139,-2.7568,-2.791,-2.8154,-2.8291,-2.8291,-2.8291,-2.8291,-2.8291,-2.8291,-2.8291,-2.8291,-2.8291,-2.8291,-2.8291,-2.8291,-2.8495,-2.9608,-3.012,-3.0721,-3.3266,-3.4178,-3.4678,-3.5966,-3.6358,-3.6358,-3.6358,-3.6358,-3.6358,-3.6358,-3.6358,-3.6358,-3.6358,-3.6358,-3.6358,-3.6358,-3.6358,-3.6358,-3.6358,-3.6358,-3.6358,-3.6358,-3.6358,-3.6358,-3.6358,-3.6358,-3.6358,-3.6358,-3.6358,-3.6358,-3.6358,-3.6358,-3.6803,-3.7769,-3.803,-3.8979,-4.1169,-4.1504,-4.2111,-4.325,-4.3329,-4.3329,-4.3329,-4.3329,-4.3329,-4.3329,-4.3329,-4.3329,-4.3329,-4.3329,-4.3329,0.0,0.0,0.0,0.0,0.0,0.0,0.0,0.0,0.0,0.0,0.0,0.0,0.0,0.0,0.0,0.0,0.0,0.0,0.0,0.0,0.0,0.0,0.0,0.0,0.0,0.0,0.0,0.0,0.0,0.0,-2.5742,-2.5742,-2.5742,-2.5742,-2.5742,-2.5742,-2.5742,-2.5791,-2.582,-2.583,-2.626,-2.6689,-2.7109,-2.7158,-2.7588,-2.8291,-2.8291,-2.8291,-2.8291,-2.8291,-2.8291,-2.8291,-2.8291,-2.8291,-2.8291,-2.8291,-2.8291,-2.8291,-2.8495,-2.9303,-3.0514,-3.2039,-3.3464,-3.4678,-3.5966,-3.6358,-3.6358,-3.6358,-3.6358,-3.6358,-3.6358,-3.6358,-3.6358,-3.6358,-3.6358,-3.6358,-3.6358,-3.6358,-3.6358,-3.6358,-3.6358,-3.6358,-3.6358,-3.6358,-3.6358,-3.6358,-3.6358,-3.6358,-3.6358,-3.6358,-3.6358,-3.6358,-3.6358,-3.6452,-3.6628,-3.7494,-3.8635,-4.0059,-4.1085,-4.2111,-4.325,-4.3329,-4.3329,-4.3329,-4.3329,-4.3329,-4.3329,-4.3329,-4.3329,-4.3329,-4.3329,-4.3329,-2.3271,0.0,0.0,0.0,0.0,0.0,0.0,0.0,0.0,0.0,0.0,0.0,0.0,0.0,0.0,0.0,0.0,0.0,0.0,0.0,0.0,0.0,0.0,0.0,0.0,0.0,0.0,0.0,0.0,-2.5742,-2.5742,-2.5742,-2.5742,-2.5742,-2.5742,-2.5742,-2.5742,-2.5742,-2.5742,-2.5742,-2.5937,-2.625,-2.666,-2.666,-2.7002,-2.7588,-2.7832,-2.7939,-2.7959,-2.8193,-2.8291,-2.8291,-2.8291,-2.8291,-2.8291,-2.8291,-2.8291,-2.8291,-2.8291,-2.8698,-2.9408,-3.0721,-3.214,-3.3453,-3.486,-3.5763,-3.6358,-3.6358,-3.6358,-3.6358,-3.6358,-3.6358,-3.6358,-3.6358,-3.6358,-3.6358,-3.6358,-3.6358,-3.6358,-3.6358,-3.6358,-3.6358,-3.6358,-3.6358,-3.6358,-3.6358,-3.6358,-3.6358,-3.6358,-3.6358,-3.6358,-3.6358,-3.6358,-3.6358,-3.6358,-3.6896,-3.7952,-3.9812,-4.0404,-4.1435,-4.325,-4.3329,-4.3329,-4.3329,-4.3329,-4.3329,-4.3329,-4.3329,-4.3329,-4.3329,-4.3329,-4.3329,0.0,0.0,0.0,0.0,0.0,0.0,0.0,0.0,0.0,0.0,0.0,0.0,0.0,0.0,0.0,0.0,0.0,0.0,0.0,0.0,0.0,0.0,0.0,0.0,0.0,0.0,0.0,0.0,0.0,-2.5742,-2.5742,-2.5742,-2.5742,-2.5742,-2.5742,-2.5742,-2.5742,-2.5742,-2.5742,-2.5742,-2.5742,-2.5908,-2.6221,-2.6221,-2.6396,-2.6719,-2.7266,-2.75,-2.7529,-2.7842,-2.8037,-2.8135,-2.8135,-2.8193,-2.8291,-2.8291,-2.8291,-2.8291,-2.8291,-2.8291,-2.8495,-2.9807,-3.1224,-3.2532,-3.397,-3.5367,-3.6358,-3.6358,-3.6358,-3.6358,-3.6358,-3.6358,-3.6358,-3.6358,-3.6358,-3.6358,-3.6358,-3.6358,-3.6358,-3.6358,-3.6358,-3.6358,-3.6358,-3.6358,-3.6358,-3.6358,-3.6358,-3.6358,-3.6358,-3.6358,-3.6358,-3.6358,-3.6358,-3.6358,-3.6358,-3.6358,-3.7428,-3.9724,-3.9899,-4.093,-4.317,-4.3329,-4.3329,-4.3329,-4.3329,-4.3329,-4.3329,-4.3329,-4.3329,-4.3329,-4.3329,-4.3329,0.0,-2.3828,0.0,0.0,0.0,0.0,0.0,0.0,0.0,0.0,0.0,0.0,0.0,0.0,0.0,0.0,0.0,0.0,0.0,0.0,0.0,0.0,0.0,0.0,0.0,0.0,0.0,0.0,0.0,-2.5742,-2.5742,-2.5742,-2.5742,-2.5742,-2.5742,-2.5742,-2.5742,-2.5742,-2.5742,-2.5742,-2.5742,-2.5752,-2.5771,-2.5771,-2.5781,-2.585,-2.6689,-2.7051,-2.7051,-2.707,-2.7324,-2.7695,-2.7695,-2.7939,-2.8291,-2.8291,-2.8291,-2.8291,-2.8291,-2.8291,-2.8495,-2.9807,-3.1224,-3.2532,-3.397,-3.5367,-3.6358,-3.6358,-3.6358,-3.6358,-3.6358,-3.6358,-3.6358,-3.6358,-3.6358,-3.6358,-3.6358,-3.6358,-3.6358,-3.6358,-3.6358,-3.6358,-3.6358,-3.6358,-3.6358,-3.6358,-3.6358,-3.6358,-3.6358,-3.6358,-3.6358,-3.6358,-3.6358,-3.6358,-3.6358,-3.6358,-3.7428,-3.9724,-3.9899,-4.093,-4.317,-4.3329,-4.3329,-4.3329,-4.3329,-4.3329,-4.3329,-4.3329,-4.3329,-4.3329,-4.3329,-4.3329,0.0,0.0,0.0,-2.417,0.0,0.0,0.0,0.0,0.0,0.0,0.0,0.0,0.0,0.0,0.0,0.0,0.0,0.0,0.0,0.0,0.0,0.0,0.0,0.0,0.0,0.0,0.0,0.0,0.0,0.0,-2.5742,-2.5742,-2.5742,-2.5742,-2.5742,-2.5742,-2.5742,-2.5742,-2.5742,-2.5742,-2.5742,-2.5742,-2.5742,-2.5742,-2.5742,-2.5752,-2.6064,-2.6357,-2.6631,-2.6904,-2.7109,-2.7246,-2.7246,-2.7344,-2.751,-2.7783,-2.7891,-2.793,-2.8203,-2.8291,-2.8398,-2.89,-2.9911,-3.1224,-3.2644,-3.4068,-3.5271,-3.6156,-3.6358,-3.6358,-3.6358,-3.6358,-3.6358,-3.6358,-3.6358,-3.6358,-3.6358,-3.6358,-3.6358,-3.6358,-3.6358,-3.6358,-3.6358,-3.6358,-3.6358,-3.6358,-3.6358,-3.6358,-3.6358,-3.6358,-3.6358,-3.6358,-3.6358,-3.6358,-3.6358,-3.6358,-3.7428,-3.9724,-3.9899,-4.093,-4.317,-4.3329,-4.3329,-4.3329,-4.3329,-4.3329,-4.3329,-4.3329,-4.3329,-4.3329,-4.3329,-4.3329,-2.3135,0.0,0.0,0.0,0.0,0.0,0.0,0.0,0.0,0.0,0.0,0.0,0.0,0.0,0.0,0.0,0.0,0.0,0.0,0.0,0.0,0.0,0.0,0.0,0.0,0.0,0.0,0.0,0.0,0.0,-2.5742,-2.5742,-2.5742,-2.5742,-2.5742,-2.5742,-2.5742,-2.5742,-2.5742,-2.5742,-2.5742,-2.5742,-2.5742,-2.5742,-2.5742,-2.5742,-2.5742,-2.5908,-2.6191,-2.6475,-2.667,-2.6807,-2.6807,-2.6894,-2.7051,-2.7344,-2.7451,-2.749,-2.7764,-2.7959,-2.8086,-2.8086,-2.939,-3.1122,-3.2028,-3.3552,-3.5271,-3.6156,-3.6358,-3.6358,-3.6358,-3.6358,-3.6358,-3.6358,-3.6358,-3.6358,-3.6358,-3.6358,-3.6358,-3.6358,-3.6358,-3.6358,-3.6358,-3.6358,-3.6358,-3.6358,-3.6358,-3.6358,-3.6358,-3.6358,-3.6358,-3.6358,-3.6358,-3.6358,-3.6358,-3.6358,-3.7428,-3.9724,-3.9899,-4.093,-4.317,-4.3329,-4.3329,-4.3329,-4.3329,-4.3329,-4.3329,-4.3329,-4.3329,-4.3329,-4.3329,-4.3329,0.0,0.0,0.0,0.0,0.0,0.0,0.0,0.0,0.0,0.0,0.0,0.0,0.0,0.0,0.0,0.0,0.0,0.0,0.0,0.0,0.0,0.0,0.0,0.0,0.0,0.0,0.0,0.0,0.0,-2.5742,-2.5742,-2.5742,-2.5742,-2.5742,-2.5742,-2.5742,-2.5742,-2.5742,-2.5742,-2.5742,-2.5742,-2.5742,-2.5742,-2.5742,-2.5742,-2.5742,-2.5742,-2.5742,-2.5742,-2.5742,-2.5986,-2.6367,-2.6367,-2.6621,-2.6982,-2.6992,-2.6992,-2.6992,-2.7012,-2.7295,-2.7646,-2.7646,-2.9724,-3.2197,-3.2208,-3.4119,-3.6238,-3.6358,-3.6358,-3.6358,-3.6358,-3.6358,-3.6358,-3.6358,-3.6358,-3.6358,-3.6358,-3.6358,-3.6358,-3.6358,-3.6358,-3.6358,-3.6358,-3.6358,-3.6358,-3.6358,-3.6358,-3.6358,-3.6358,-3.6358,-3.6358,-3.6358,-3.6358,-3.6358,-3.6358,-3.6358,-3.7428,-3.9724,-3.9899,-4.093,-4.317,-4.3329,-4.3329,-4.3329,-4.3329,-4.3329,-4.3329,-4.3329,-4.3329,-4.3329,-4.3329,-4.3329,-2.3135,0.0,0.0,0.0,0.0,0.0,0.0,0.0,0.0,0.0,0.0,0.0,0.0,0.0,0.0,0.0,0.0,0.0,0.0,0.0,0.0,0.0,0.0,0.0,0.0,0.0,0.0,0.0,-2.5742,-2.5742,-2.5742,-2.5742,-2.5742,-2.5742,-2.5742,-2.5742,-2.5742,-2.5742,-2.5742,-2.5742,-2.5742,-2.5742,-2.5742,-2.5742,-2.5742,-2.5742,-2.5742,-2.5742,-2.5742,-2.5742,-2.581,-2.5918,-2.5918,-2.5986,-2.6123,-2.6445,-2.6562,-2.6602,-2.6904,-2.709,-2.7197,-2.7197,-2.7759,-2.8899,-3.1208,-3.2408,-3.3476,-3.5746,-3.6358,-3.6358,-3.6358,-3.6358,-3.6358,-3.6358,-3.6358,-3.6358,-3.6358,-3.6358,-3.6358,-3.6358,-3.6358,-3.6358,-3.6358,-3.6358,-3.6358,-3.6358,-3.6358,-3.6358,-3.6358,-3.6358,-3.6358,-3.6358,-3.6358,-3.6358,-3.6358,-3.6358,-3.7428,-3.9724,-3.9899,-4.093,-4.317,-4.3329,-4.3329,-4.3329,-4.3329,-4.3329,-4.3329,-4.3329,-4.3329,-4.3329,-4.3329,-4.3329,-2.3135,-2.3135,-2.3135,0.0,0.0,0.0,-2.3457,-2.3662,0.0,0.0,0.0,0.0,0.0,0.0,0.0,0.0,0.0,0.0,0.0,0.0,0.0,0.0,0.0,0.0,0.0,0.0,0.0,-2.5742,-2.5742,-2.5742,-2.5742,-2.5742,-2.5742,-2.5742,-2.5742,-2.5742,-2.5742,-2.5742,-2.5742,-2.5742,-2.5742,-2.5742,-2.5742,-2.5742,-2.5742,-2.5742,-2.5742,-2.5742,-2.5742,-2.5742,-2.5742,-2.5742,-2.5742,-2.5742,-2.5762,-2.6025,-2.6113,-2.6152,-2.6396,-2.6602,-2.6758,-2.6758,-2.726,-2.8328,-3.0635,-3.1797,-3.2779,-3.5268,-3.6194,-3.6358,-3.6358,-3.6358,-3.6358,-3.6358,-3.6358,-3.6358,-3.6358,-3.6358,-3.6358,-3.6358,-3.6358,-3.6358,-3.6358,-3.6358,-3.6358,-3.6358,-3.6358,-3.6358,-3.6358,-3.6358,-3.6358,-3.6358,-3.6358,-3.6358,-3.6358,-3.6358,-3.7428,-3.9724,-3.9899,-4.093,-4.317,-4.3329,-4.3329,-4.3329,-4.3329,-4.3329,-4.3329,-4.3329,-4.3329,-4.3329,-4.3329,-4.3329,-2.3135,-2.3135,-2.3135,0.0,0.0,0.0,-2.3203,-2.3477,-2.3848,0.0,0.0,0.0,0.0,0.0,0.0,0.0,0.0,0.0,0.0,0.0,0.0,0.0,0.0,0.0,0.0,-2.5742,-2.5742,-2.5742,-2.5742,-2.5742,-2.5742,-2.5742,-2.5742,-2.5742,-2.5742,-2.5742,-2.5742,-2.5742,-2.5742,-2.5742,-2.5742,-2.5742,-2.5742,-2.5742,-2.5742,-2.5742,-2.5742,-2.5742,-2.5742,-2.5742,-2.5742,-2.5742,-2.5742,-2.5742,-2.5742,-2.5742,-2.5742,-2.5742,-2.5742,-2.5986,-2.6318,-2.6318,-2.742,-2.9091,-3.04,-3.176,-3.3224,-3.4984,-3.5893,-3.6282,-3.6345,-3.6358,-3.6358,-3.6358,-3.6358,-3.6358,-3.6358,-3.6358,-3.6358,-3.6358,-3.6358,-3.6358,-3.6358,-3.6358,-3.6358,-3.6358,-3.6358,-3.6358,-3.6358,-3.6358,-3.6358,-3.6358,-3.6358,-3.6358,-3.6358,-3.6358,-3.7428,-3.9724,-3.9899,-4.093,-4.317,-4.3329,-4.3329,-4.3329,-4.3329,-4.3329,-4.3329,-4.3329,-4.3329,-4.3329,-4.3329,-4.3329,0.0,0.0,0.0,0.0,0.0,0.0,-2.3584,-2.3457,-2.3486,0.0,0.0,0.0,0.0,0.0,0.0,0.0,0.0,0.0,0.0,0.0,0.0,0.0,0.0,0.0,0.0,-2.5742,-2.5742,-2.5742,-2.5742,-2.5742,-2.5742,-2.5742,-2.5742,-2.5742,-2.5742,-2.5742,-2.5742,-2.5742,-2.5742,-2.5742,-2.5742,-2.5742,-2.5742,-2.5742,-2.5742,-2.5742,-2.5742,-2.5742,-2.5742,-2.5742,-2.5742,-2.5742,-2.5742,-2.5742,-2.5742,-2.5742,-2.5742,-2.5742,-2.5742,-2.5791,-2.5859,-2.5859,-2.6754,-2.8201,-2.9792,-3.124,-3.2663,-3.4872,-3.5617,-3.5805,-3.6245,-3.6358,-3.6358,-3.6358,-3.6358,-3.6358,-3.6358,-3.6358,-3.6358,-3.6358,-3.6358,-3.6358,-3.6358,-3.6358,-3.6358,-3.6358,-3.6358,-3.6358,-3.6358,-3.6358,-3.6358,-3.6358,-3.6358,-3.6358,-3.6358,-3.6358,-3.7428,-3.9724,-3.9899,-4.093,-4.317,-4.3329,-4.3329,-4.3329,-4.3329,-4.3329,-4.3329,-4.3329,-4.3329,-4.3329,-4.3329,-4.3329,0.0,0.0,0.0,-2.3135,0.0,0.0,0.0,-2.3301,-2.332,0.0,0.0,0.0,0.0,0.0,0.0,0.0,0.0,0.0,0.0,0.0,0.0,0.0,0.0,0.0,0.0,-2.5742,-2.5742,-2.5742,-2.5742,-2.5742,-2.5742,-2.5742,-2.5742,-2.5742,-2.5742,-2.5742,-2.5742,-2.5742,-2.5742,-2.5742,-2.5742,-2.5742,-2.5742,-2.5742,-2.5742,-2.5742,-2.5742,-2.5742,-2.5742,-2.5742,-2.5742,-2.5742,-2.5742,-2.5742,-2.5742,-2.5742,-2.5742,-2.5742,-2.5742,-2.5742,-2.5742,-2.5742,-2.61,-2.7071,-2.9151,-3.134,-3.326,-3.4382,-3.5115,-3.5604,-3.5881,-3.6157,-3.6358,-3.6358,-3.6358,-3.6358,-3.6358,-3.6358,-3.6358,-3.6358,-3.6358,-3.6358,-3.6358,-3.6358,-3.6358,-3.6358,-3.6358,-3.6358,-3.6358,-3.6358,-3.6358,-3.6358,-3.6358,-3.6358,-3.6358,-3.6358,-3.7428,-3.9724,-3.9899,-4.093,-4.317,-4.3329,-4.3329,-4.3329,-4.3329,-4.3329,-4.3329,-4.3329,-4.3329,-4.3329,-4.3329,-4.3329,0.0,0.0,0.0,0.0,0.0,-2.3135,0.0,0.0,0.0,-2.3594,0.0,0.0,0.0,0.0,0.0,0.0,0.0,0.0,0.0,0.0,0.0,0.0,0.0,0.0,0.0,-2.5684,-2.5742,-2.5742,-2.5742,-2.5742,-2.5742,-2.5742,-2.5742,-2.5742,-2.5742,-2.5742,-2.5742,-2.5742,-2.5742,-2.5742,-2.5742,-2.5742,-2.5742,-2.5742,-2.5742,-2.5742,-2.5742,-2.5742,-2.5742,-2.5742,-2.5742,-2.5742,-2.5742,-2.5742,-2.5742,-2.5742,-2.5742,-2.5742,-2.5742,-2.5742,-2.5742,-2.5742,-2.6014,-2.6839,-2.9039,-3.1621,-3.3759,-3.3872,-3.4537,-3.5278,-3.5491,-3.5868,-3.6232,-3.6332,-3.6358,-3.6358,-3.6358,-3.6358,-3.6358,-3.6358,-3.6358,-3.6358,-3.6358,-3.6358,-3.6358,-3.6358,-3.6358,-3.6358,-3.6358,-3.6358,-3.6358,-3.6358,-3.6358,-3.6358,-3.6358,-3.6358,-3.7428,-3.9724,-3.9899,-4.093,-4.317,-4.3329,-4.3329,-4.3329,-4.3329,-4.3329,-4.3329,-4.3329,-4.3329,-4.3329,-4.3329,-4.3329,0.0,0.0,0.0,0.0,-2.3135,0.0,0.0,0.0,-2.3154,-2.3203,0.0,0.0,0.0,0.0,0.0,0.0,0.0,0.0,0.0,0.0,0.0,0.0,0.0,0.0,0.0,0.0,-2.5742,-2.5742,-2.5742,-2.5742,-2.5742,-2.5742,-2.5742,-2.5742,-2.5742,-2.5742,-2.5742,-2.5742,-2.5742,-2.5742,-2.5742,-2.5742,-2.5742,-2.5742,-2.5742,-2.5742,-2.5742,-2.5742,-2.5742,-2.5742,-2.5742,-2.5742,-2.5742,-2.5742,-2.5742,-2.5742,-2.5742,-2.5742,-2.5742,-2.5742,-2.5742,-2.5742,-2.721,-2.9223,-3.0586,-3.2001,-3.3269,-3.3759,-3.3985,-3.4311,-3.529,-3.5592,-3.5768,-3.6245,-3.6358,-3.6358,-3.6358,-3.6358,-3.6358,-3.6358,-3.6358,-3.6358,-3.6358,-3.6358,-3.6358,-3.6358,-3.6358,-3.6358,-3.6358,-3.6358,-3.6358,-3.6358,-3.6358,-3.6358,-3.6358,-3.6358,-3.7428,-3.9724,-3.9899,-4.093,-4.317,-4.3329,-4.3329,-4.3329,-4.3329,-4.3329,-4.3329,-4.3329,-4.3329,-4.3329,-4.3329,-4.3329,0.0,0.0,0.0,0.0,0.0,0.0,0.0,0.0,-2.3135,0.0,0.0,0.0,0.0,0.0,0.0,0.0,0.0,0.0,0.0,0.0,0.0,0.0,0.0,0.0,0.0,0.0,0.0,0.0,0.0,-2.5352,-2.5352,-2.5596,-2.5742,-2.5742,-2.5742,-2.5742,-2.5742,-2.5742,-2.5742,-2.5742,-2.5742,-2.5742,-2.5742,-2.5742,-2.5742,-2.5742,-2.5742,-2.5742,-2.5742,-2.5742,-2.5742,-2.5742,-2.5742,-2.5742,-2.5742,-2.5742,-2.5742,-2.5742,-2.5742,-2.5742,-2.5742,-2.5742,-2.7389,-2.9498,-3.0045,-3.1512,-3.3131,-3.3357,-3.3658,-3.4085,-3.4864,-3.5303,-3.568,-3.6232,-3.6358,-3.6358,-3.6358,-3.6358,-3.6358,-3.6358,-3.6358,-3.6358,-3.6358,-3.6358,-3.6358,-3.6358,-3.6358,-3.6358,-3.6358,-3.6358,-3.6358,-3.6358,-3.6358,-3.6358,-3.6358,-3.6358,-3.707,-3.8738,-4.0131,-4.1601,-4.325,-4.3329,-4.3329,-4.3329,-4.3329,-4.3329,-4.3329,-4.3329,-4.3329,-4.3329,-4.3329,-4.3329,-2.3877,0.0,0.0,0.0,0.0,0.0,0.0,0.0,0.0,0.0,0.0,0.0,0.0,0.0,0.0,-2.3135,0.0,0.0,0.0,0.0,0.0,0.0,0.0,0.0,0.0,0.0,0.0,-2.4863,-2.4893,-2.4941,-2.5059,-2.5371,-2.5605,-2.5732,-2.5742,-2.5742,-2.5742,-2.5742,-2.5742,-2.5742,-2.5742,-2.5742,-2.5742,-2.5742,-2.5742,-2.5742,-2.5742,-2.5742,-2.5742,-2.5742,-2.5742,-2.5742,-2.5742,-2.5742,-2.5742,-2.5742,-2.5742,-2.5742,-2.5742,-2.5742,-2.5742,-2.5742,-2.7389,-2.9407,-2.9407,-3.1146,-3.3081,-3.3081,-3.337,-3.3796,-3.4349,-3.4901,-3.5454,-3.6006,-3.6257,-3.6358,-3.6358,-3.6358,-3.6358,-3.6358,-3.6358,-3.6358,-3.6358,-3.6358,-3.6358,-3.6358,-3.6358,-3.6358,-3.6358,-3.6358,-3.6358,-3.6358,-3.6358,-3.6358,-3.6358,-3.6358,-3.707,-3.8469,-4.0476,-4.2111,-4.325,-4.3329,-4.3329,-4.3329,-4.3329,-4.3329,-4.3329,-4.3329,-4.3329,-4.3329,-4.3329,-4.3329,0.0,0.0,0.0,-2.4297,0.0,0.0,0.0,0.0,-2.3135,0.0,0.0,0.0,0.0,0.0,-2.3135,-2.3135,-2.3135,0.0,0.0,0.0,0.0,0.0,0.0,0.0,0.0,0.0,0.0,-2.4434,-2.4443,-2.4619,-2.5049,-2.5078,-2.5293,-2.5723,-2.5742,-2.5742,-2.5742,-2.5742,-2.5742,-2.5742,-2.5742,-2.5742,-2.5742,-2.5742,-2.5742,-2.5742,-2.5742,-2.5742,-2.5742,-2.5742,-2.5742,-2.5742,-2.5742,-2.5742,-2.5742,-2.5742,-2.5742,-2.5742,-2.5742,-2.5742,-2.5742,-2.5742,-2.7389,-2.9407,-2.9407,-3.1146,-3.3081,-3.3081,-3.3093,-3.3232,-3.3784,-3.4336,-3.4889,-3.5441,-3.5968,-3.6358,-3.6358,-3.6358,-3.6358,-3.6358,-3.6358,-3.6358,-3.6358,-3.6358,-3.6358,-3.6358,-3.6358,-3.6358,-3.6358,-3.6358,-3.6358,-3.6358,-3.6358,-3.6358,-3.6358,-3.6358,-3.7428,-3.9724,-4.0916,-4.2111,-4.325,-4.3329,-4.3329,-4.3329,-4.3329,-4.3329,-4.3329,-4.3329,-4.3329,-4.3329,-4.3329,-4.3329,0.0,0.0,-2.4668,-2.4814,0.0,0.0,0.0,0.0,0.0,0.0,0.0,0.0,0.0,0.0,-2.3135,-2.3135,-2.3135,-2.3135,0.0,0.0,0.0,0.0,0.0,0.0,0.0,0.0,0.0,-2.3984,-2.4004,-2.4189,-2.4609,-2.4912,-2.5273,-2.5723,-2.5742,-2.5742,-2.5742,-2.5742,-2.5742,-2.5742,-2.5742,-2.5742,-2.5742,-2.5742,-2.5742,-2.5742,-2.5742,-2.5742,-2.5742,-2.5742,-2.5742,-2.5742,-2.5742,-2.5742,-2.5742,-2.5742,-2.5742,-2.5742,-2.5742,-2.5742,-2.5742,-2.5742,-2.7389,-2.9407,-2.9407,-3.1146,-3.3081,-3.3081,-3.3081,-3.3206,-3.3759,-3.4311,-3.4864,-3.5416,-3.5968,-3.6358,-3.6358,-3.6358,-3.6358,-3.6358,-3.6358,-3.6358,-3.6358,-3.6358,-3.6358,-3.6358,-3.6358,-3.6358,-3.6358,-3.6358,-3.6358,-3.6358,-3.6358,-3.6358,-3.6358,-3.6358,-3.7428,-3.9724,-4.0232,-4.1351,-4.325,-4.3329,-4.3329,-4.3329,-4.3329,-4.3329,-4.3329,-4.3329,-4.3329,-4.3329,-4.3329,-4.3329,-2.5129,-2.5195,0.0,-2.5273,-2.4853,0.0,-2.4268,0.0,0.0,0.0,0.0,0.0,0.0,0.0,-2.3135,-2.3135,-2.3135,-2.3135,0.0,-2.3135,0.0,0.0,0.0,0.0,0.0,0.0,-2.3262,-2.3535,-2.3555,-2.3809,0.0,0.0,-2.5117,-2.5723,-2.5742,-2.5742,-2.5742,-2.5742,-2.5742,-2.5742,-2.5742,-2.5742,-2.5742,-2.5742,-2.5742,-2.5742,-2.5742,-2.5742,-2.5742,-2.5742,-2.5742,-2.5742,-2.5742,-2.5742,-2.5742,-2.5742,-2.5742,-2.5742,-2.5742,-2.5742,-2.5742,-2.5742,-2.7389,-2.9407,-2.9407,-3.1146,-3.3206,-3.3796,-3.3671,-3.3533,-3.4299,-3.46,-3.4813,-3.5165,-3.5667,-3.6119,-3.632,-3.6358,-3.6358,-3.6358,-3.6358,-3.6358,-3.6358,-3.6358,-3.6358,-3.6358,-3.6358,-3.6358,-3.6358,-3.6358,-3.6358,-3.6358,-3.6358,-3.6358,-3.6358,-3.6358,-3.7428,-3.9724,-3.9899,-4.093,-4.317,-4.3329,-4.3329,-4.3329,-4.3329,-4.3329,-4.3329,-4.3329,-4.3329,-4.3329,-4.3329,-4.3329]}]]